[[{"header":{"parameterUnit":"m.s-1","parameterCategory":1,"la1":31.0,"la2":29.5877,"lo1":-88.7671,"lo2":-86.6584,"dy":0.0162,"dx":0.0185,"nx":115,"ny":88,"refTime":"2023-05-23T06:00:00:Z","depth":0,"parameterNumber":2,"parameterNumberName":"U-component_of_WINDS"},"data":[0.0,0.0,0.0,0.0,0.0,0.0,0.0,0.0,0.0,0.0,0.0,0.0,0.0,0.0,0.0,0.0,0.0,0.0,0.0,0.0,0.0,0.0,0.0,0.0,0.0,0.0,0.0,0.0,0.0,0.0,0.0,0.0,0.0,0.0,0.0,0.0,0.0,0.0,0.0,0.0,0.0,0.0,0.0,0.0,0.0,0.0,0.0,0.0,0.0,0.0,0.0,0.0,0.0,0.0,0.0,0.0,0.0,0.0,0.0,0.0,0.0,0.0,0.0,0.0,0.0,0.0,0.0,0.0,0.0,0.0,0.0,0.0,0.0,0.0,0.0,0.0,0.0,0.0,0.0,0.0,0.0,0.0,0.0,0.0,0.0,0.0,0.0,0.0,0.0,0.0,0.0,0.0,0.0,0.0,0.0,0.0,0.0,0.0,0.0,0.0,0.0,0.0,0.0,0.0,0.0,0.0,0.0,0.0,0.0,0.0,0.0,0.0,0.0,0.0,0.0,0.0,0.0,0.0,0.0,0.0,0.0,0.0,0.0,0.0,0.0,0.0,0.0,0.0,0.0,0.0,0.0,0.0,0.0,0.0,0.0,0.0,0.0,0.0,0.0,0.0,0.0,0.0,0.0,0.0,0.0,0.0,0.0,0.0,0.0,0.0,0.0,0.0,0.0,0.0,0.0,0.0,0.0,0.0,0.0,0.0,0.0,0.0,0.0,0.0,0.0,0.0,0.0,0.0,0.0,0.0,0.0,0.0,0.0,0.0,0.0,0.0,0.0,0.0,0.0,0.0,0.0,0.0,0.0,0.0,0.0,0.0,0.0,0.0,0.0,0.0,0.0,0.0,0.0,0.0,0.0,0.0,0.0,0.0,0.0,0.0,0.0,0.0,0.0,0.0,0.0,0.0,0.0,0.0,0.0,0.0,0.0,0.0,0.0,0.0,0.0,0.0,0.0,0.0,0.0,0.0,0.0,0.0,0.0,0.0,0.0,0.0,0.0,0.0,0.0,0.0,0.0,0.0,0.0,0.0,0.0,0.0,0.0,0.0,0.0,0.0,0.0,0.0,0.0,0.0,0.0,0.0,0.0,0.0,0.0,0.0,0.0,0.0,0.0,0.0,0.0,0.0,0.0,0.0,0.0,0.0,0.0,0.0,0.0,0.0,0.0,0.0,0.0,0.0,0.0,0.0,0.0,0.0,0.0,0.0,0.0,0.0,0.0,0.0,0.0,0.0,0.0,0.0,0.0,0.0,0.0,0.0,0.0,0.0,0.0,0.0,0.0,0.0,0.0,0.0,0.0,0.0,0.0,0.0,0.0,0.0,0.0,0.0,0.0,0.0,0.0,0.0,0.0,0.0,0.0,0.0,0.0,0.0,0.0,0.0,0.0,0.0,0.0,0.0,0.0,0.0,0.0,0.0,0.0,0.0,0.0,0.0,0.0,0.0,0.0,0.0,0.0,0.0,0.0,0.0,0.0,0.0,0.0,0.0,0.0,0.0,0.0,0.0,0.0,0.0,0.0,0.0,0.0,0.0,0.0,0.0,0.0,0.0,0.0,0.0,0.0,0.0,0.0,0.0,0.0,0.0,0.0,0.0,0.0,0.0,0.0,0.0,0.0,0.0,0.0,0.0,0.0,0.0,0.0,0.0,0.0,0.0,0.0,0.0,0.0,0.0,0.0,0.0,0.0,0.0,0.0,0.0,0.0,0.0,0.0,0.0,0.0,0.0,0.0,0.0,0.0,0.0,0.0,0.0,0.0,0.0,0.0,0.0,0.0,0.0,0.0,0.0,0.0,0.0,0.0,0.0,0.0,0.0,0.0,0.0,0.0,0.0,0.0,0.0,0.0,0.0,0.0,0.0,0.0,0.0,0.0,0.0,0.0,0.0,0.0,0.0,0.0,0.0,0.0,0.0,0.0,0.0,0.0,0.0,0.0,0.0,0.0,0.0,0.0,0.0,0.0,0.0,0.0,0.0,0.0,0.0,0.0,0.0,0.0,0.0,0.0,0.0,0.0,0.0,0.0,0.0,0.0,0.0,0.0,0.0,0.0,0.0,0.0,0.0,0.0,0.0,0.0,0.0,0.0,0.0,0.0,0.0,0.0,0.0,0.0,0.0,0.0,0.0,0.0,0.0,0.0,0.0,0.0,0.0,0.0,0.0,0.0,0.0,0.0,0.0,0.0,0.0,0.0,0.0,0.0,0.0,0.0,0.0,0.0,0.0,0.0,0.0,0.0,0.0,0.0,0.0,0.0,0.0,0.0,0.0,0.0,0.0,0.0,0.0,0.0,0.0,0.0,0.0,0.0,0.0,0.0,0.0,0.0,0.0,0.0,0.0,0.0,0.0,0.0,0.0,0.0,0.0,0.0,0.0,0.0,0.0,0.0,0.0,0.0,0.0,0.0,0.0,0.0,0.0,0.0,0.0,0.0,0.0,0.0,0.0,0.0,0.0,0.0,0.0,0.0,0.0,0.0,0.0,0.0,0.0,0.0,0.0,0.0,0.0,0.0,0.0,0.0,0.0,0.0,0.0,0.0,0.0,0.0,0.0,0.0,0.0,0.0,0.0,0.0,0.0,0.0,0.0,0.0,0.0,0.0,0.0,0.0,0.0,0.0,0.0,0.0,0.0,0.0,0.0,0.0,0.0,0.0,0.0,0.0,0.0,0.0,0.0,0.0,0.0,0.0,0.0,0.0,0.0,0.0,0.0,0.0,0.0,0.0,0.0,0.0,0.0,0.0,0.0,0.0,0.0,0.0,0.0,0.0,0.0,0.0,0.0,0.0,0.0,0.0,0.0,0.0,0.0,0.0,0.0,0.0,0.0,0.0,0.0,0.0,0.0,0.0,0.0,0.0,0.0,0.0,0.0,0.0,0.0,0.0,0.0,0.0,0.0,0.0,0.0,0.0,0.0,0.0,0.0,0.0,0.0,0.0,0.0,0.0,0.0,0.0,0.0,0.0,0.0,0.0,0.0,0.0,0.0,0.0,0.0,0.0,0.0,0.0,0.0,0.0,0.0,0.0,0.0,0.0,0.0,0.0,0.0,0.0,0.0,0.0,0.0,0.0,0.0,0.0,0.0,0.0,0.0,0.0,0.0,0.0,0.0,0.0,0.0,0.0,0.0,0.0,0.0,0.0,0.0,0.0,0.0,0.0,0.0,0.0,0.0,0.0,0.0,0.0,0.0,0.0,0.0,0.0,0.0,0.0,0.0,0.0,0.0,0.0,0.0,0.0,0.0,0.0,0.0,0.0,0.0,0.0,0.0,0.0,0.0,0.0,0.0,0.0,0.0,0.0,0.0,0.0,0.0,0.0,0.0,0.0,0.0,0.0,0.0,0.0,0.0,0.0,0.0,0.0,0.0,0.0,0.0,0.0,0.0,0.0,0.0,0.0,0.0,0.0,0.0,0.0,0.0,0.0,0.0,0.0,0.0,0.0,0.0,0.0,0.0,0.0,0.0,0.0,0.0,0.0,0.0,0.0,0.0,0.0,0.0,0.0,0.0,0.0,0.0,0.0,0.0,0.0,0.0,0.0,0.0,0.0,0.0,0.0,0.0,0.0,0.0,0.0,0.0,0.0,0.0,0.0,0.0,0.0,0.0,0.0,0.0,0.0,0.0,0.0,0.0,0.0,0.0,0.0,0.0,0.0,0.0,0.0,0.0,0.0,0.0,0.0,0.0,0.0,0.0,0.0,0.0,0.0,0.0,0.0,0.0,0.0,0.0,0.0,0.0,0.0,0.0,0.0,0.0,0.0,0.0,0.0,0.0,0.0,0.0,0.0,0.0,0.0,0.0,0.0,0.0,0.0,0.0,0.0,0.0,0.0,0.0,0.0,0.0,0.0,0.0,0.0,0.0,0.0,0.0,0.0,0.0,0.0,0.0,0.0,0.0,0.0,0.0,0.0,0.0,0.0,0.0,0.0,0.0,0.0,0.0,0.0,0.0,0.0,0.0,0.0,0.0,0.0,0.0,0.0,0.0,0.0,0.0,0.0,0.0,0.0,0.0,0.0,0.0,0.0,0.0,0.0,0.0,0.0,0.0,0.0,0.0,0.0,0.0,0.0,0.0,0.0,0.0,0.0,0.0,0.0,0.0,0.0,0.0,0.0,0.0,0.0,0.0,0.0,0.0,0.0,0.0,0.0,0.0,0.0,0.0,0.0,0.0,0.0,0.0,0.0,0.0,0.0,0.0,0.0,0.0,0.0,0.0,0.0,0.0,0.0,0.0,0.0,0.0,0.0,0.0,0.0,0.0,0.0,0.0,0.3847,0.0,0.0,0.0,0.0,0.0,0.0,0.0,0.0,0.0,0.0,0.0,0.0,0.0,0.0,0.0,0.0,0.0,0.0,0.0,0.0,0.0,0.0,0.0,0.0,0.0,0.0,0.0,0.0,0.0,0.0,0.0,0.0,0.0,0.0,0.0,0.0,0.0,0.0,0.0,0.0,0.0,0.0,0.0,0.0,0.0,0.0,0.0,0.0,0.0,0.0,0.0,0.0,0.0,0.0,0.0,0.0,0.0,0.0,0.0,0.0,0.0,0.0,0.0,0.0,0.0,0.0,0.0,0.0,0.0,0.0,0.0,0.0,0.0,0.0,0.0,0.0,0.0,0.0,0.0,0.0,0.0,0.0,0.0,0.0,0.0,0.0,0.0,0.0,0.0,0.0,0.0,0.0,0.0,0.0,0.0,0.0,0.0,0.0,0.0,0.0,0.0,0.0,0.0,0.0,0.0,0.0,0.0,0.0,0.0,0.0,0.2591,0.1455,0.019,-0.0827,-0.1343,0.0,0.0,0.0,0.0,0.0,0.0,0.0,0.0,0.0,0.0,0.0,0.0,0.0,0.0,0.0,0.0,0.0,0.0,0.0,0.0,0.0,0.0,0.0,0.0,0.0,0.0,0.0,0.0,0.0,0.0,0.0,0.0,0.0,0.0,0.0,0.0,0.0,0.0,0.0,0.0,0.0,0.0,0.0,0.0,0.0,0.0,0.0,0.0,0.0,0.0,0.0,0.0,0.0,0.0,0.0,0.0,0.0,0.0,0.0,0.0,0.0,0.0,0.0,0.0,0.0,0.0,0.0,0.0,0.0,0.0,0.0,0.0,0.0,0.0,0.0,0.0,0.0,0.0,0.0,0.0,0.0,0.0,0.0,0.0,0.0,0.0,0.0,0.0,0.0,0.0,0.0,0.0,0.0,0.0,0.0,0.0,0.0,0.0,0.0,0.0,0.0,0.0,0.0,0.0,0.0,0.0,0.0,0.0,0.0,0.0,0.0,0.0,-0.5685,-0.6408,-0.6572,0.0,0.0,0.0,0.0,0.0,0.0,0.0,0.0,0.0,0.0,0.0,0.0,0.0,0.0,0.0,0.0,0.0,0.0,0.0,0.0,0.0,0.0,0.0,0.0,0.0,0.0,0.0,0.0,0.0,0.0,0.0,0.0,0.0,0.0,0.0,0.0,0.0,0.0,0.0,0.0,0.0,0.0,0.0,0.0,0.0,0.0,0.0,0.0,0.0,0.0,0.0,0.0,0.0,0.0,0.0,0.0,0.0,0.0,0.0,0.0,0.0,0.0,0.0,0.0,0.0,0.0,0.0,0.0,0.0,0.0,0.0,0.0,0.0,0.0,0.0,0.0,0.0,0.0,0.0,0.0,0.0,0.0,0.0,0.0,0.0,0.0,0.0,0.0,0.0,0.0,0.0,0.0,0.0,0.0,0.0,0.0,0.0,0.0,0.0,0.0,0.0,0.0,0.0,0.0,0.0,0.0,0.0,0.0,0.0,0.0,-0.9101,-1.0618,-1.1685,0.0,-1.1698,0.0,0.0,0.0,0.0,0.0,0.0,0.0,0.0,0.0,0.0,0.0,0.0,0.0,0.0,0.0,0.0,0.0,0.0,0.0,0.0,0.0,0.0,0.0,0.0,0.0,0.0,0.0,0.0,0.0,0.0,0.0,0.0,0.0,0.0,0.0,0.0,0.0,0.0,0.0,0.0,0.0,0.0,0.0,0.0,0.0,0.0,0.0,0.0,0.0,0.0,0.0,0.0,0.0,0.0,0.0,0.0,0.0,0.0,0.0,0.0,0.0,0.0,0.0,0.0,0.0,0.0,0.0,0.0,0.0,0.0,0.0,0.0,0.0,0.0,0.0,0.0,0.0,0.0,0.0,0.0,0.0,0.0,0.0,0.0,0.0,0.0,0.0,0.0,0.0,0.0,0.0,0.0,0.0,0.0,0.0,0.0,0.0,0.0,0.0,0.0,0.0,0.0,0.0,0.0,0.0,0.0,0.0,0.0,0.0,0.0,-1.5381,-1.5533,-1.6299,-1.6429,0.0,0.0,0.0,0.0,0.0,0.0,0.0,0.0,0.0,0.0,0.0,0.0,0.0,0.0,0.0,0.0,0.0,0.0,0.0,0.0,0.0,0.0,0.0,0.0,0.0,0.0,0.0,0.0,0.0,0.0,0.0,0.0,0.0,0.0,0.0,0.0,0.0,0.0,0.0,0.0,0.0,0.0,0.0,0.0,0.0,0.0,0.0,0.0,0.0,0.0,0.0,0.0,0.0,0.0,0.0,0.0,0.0,0.0,0.0,0.0,0.0,0.0,0.0,0.0,0.0,0.0,0.0,0.0,0.0,0.0,0.0,0.0,0.0,0.0,0.0,0.0,0.0,0.0,0.0,0.0,0.0,0.0,0.0,0.0,0.0,0.0,0.0,0.0,0.0,0.0,0.0,0.0,0.0,0.0,0.0,0.0,0.0,0.0,0.0,0.0,0.0,0.0,0.0,0.0,0.0,0.0,0.0,0.0,0.0,0.0,-1.8222,-2.0152,-2.0017,-2.0381,-2.0271,-1.9546,0.0,0.0,0.0,0.0,0.0,0.0,0.0,0.0,0.0,0.0,0.0,0.0,0.0,0.0,0.0,0.0,0.0,0.0,0.0,0.0,0.0,0.0,0.0,0.0,0.0,0.0,0.0,0.0,0.0,0.0,0.0,0.0,0.0,0.0,0.0,0.0,0.0,0.0,0.0,0.0,0.0,0.0,0.0,0.0,0.0,0.0,0.0,0.0,0.0,0.0,0.0,0.0,0.0,0.0,0.0,0.0,0.0,0.0,0.0,0.0,0.0,0.0,0.0,0.0,0.0,0.0,0.0,0.0,0.0,0.0,0.0,0.0,0.0,0.0,0.0,0.0,0.0,0.0,0.0,0.0,0.0,0.0,0.0,0.0,0.0,0.0,0.0,0.0,0.0,0.0,0.0,0.0,0.0,0.0,0.0,0.0,0.0,0.0,0.0,0.0,0.0,0.0,0.0,0.0,0.0,0.0,0.0,0.0,-1.827,-2.0596,-2.2551,-2.4107,-2.4131,-2.3616,0.0,0.0,0.0,0.0,0.0,0.0,0.0,0.0,0.0,0.0,0.0,0.0,0.0,0.0,0.0,0.0,0.0,0.0,0.0,0.0,0.0,0.0,0.0,0.0,0.0,0.0,0.0,0.0,0.0,0.0,0.0,0.0,0.0,0.0,0.0,0.0,0.0,0.0,0.0,0.0,0.0,0.0,0.0,0.0,0.0,0.0,0.0,0.0,0.0,0.0,0.0,0.0,0.0,0.0,0.0,0.0,0.0,0.0,0.0,0.0,0.0,0.0,0.0,0.0,0.0,0.0,0.0,0.0,0.0,0.0,0.0,0.0,0.0,0.0,0.0,0.0,0.0,0.0,0.0,0.0,0.0,0.0,0.0,0.0,0.0,0.0,0.0,0.0,0.0,0.0,0.0,0.0,0.0,0.0,0.0,0.0,0.0,0.0,0.0,0.0,0.0,0.0,0.0,0.0,0.0,0.0,0.0,0.0,0.0,-2.1641,-2.3974,-2.5581,-2.636,-2.6217,-2.5657,0.0,0.0,0.0,0.0,0.0,0.0,0.0,0.0,0.0,0.0,0.0,0.0,0.0,0.0,0.0,0.0,0.0,0.0,0.0,0.0,0.0,0.0,0.0,0.0,0.0,0.0,0.0,0.0,0.0,0.0,0.0,0.0,0.0,0.0,0.0,0.0,0.0,0.0,0.0,0.0,0.0,0.0,0.0,0.0,0.0,0.0,0.0,0.0,0.0,0.0,0.0,0.0,0.0,0.0,0.0,0.0,0.0,0.0,0.0,0.0,0.0,0.0,0.0,0.0,0.0,0.0,0.0,0.0,0.0,0.0,0.0,0.0,0.0,0.0,0.0,0.0,0.0,0.0,0.0,0.0,0.0,0.0,0.0,0.0,0.0,0.0,0.0,0.0,0.0,0.0,0.0,0.0,0.0,0.0,0.0,0.0,0.0,0.0,0.0,0.0,0.0,0.0,0.0,0.0,0.0,0.0,0.0,0.0,0.0,-2.4877,0.0,-2.7887,-2.8098,-2.7826,-2.7239,0.0,0.0,0.0,0.0,0.0,0.0,0.0,0.0,0.0,0.0,0.0,0.0,0.0,0.0,0.0,0.0,0.0,0.0,0.0,0.0,0.0,0.0,0.0,0.0,0.0,0.0,0.0,0.0,0.0,0.0,0.0,0.0,0.0,0.0,0.0,0.0,0.0,0.0,0.0,0.0,0.0,0.0,0.0,0.0,0.0,0.0,0.0,0.0,0.0,0.0,0.0,0.0,0.0,0.0,0.0,0.0,0.0,0.0,0.0,0.0,0.0,0.0,0.0,0.0,0.0,0.0,0.0,0.0,0.0,0.0,0.0,0.0,0.0,0.0,0.0,0.0,0.0,0.0,0.0,0.0,0.0,0.0,0.0,0.0,0.0,0.0,0.0,0.0,0.0,0.0,0.0,0.0,0.0,0.0,0.0,0.0,0.0,0.0,0.0,0.0,0.0,0.0,0.0,0.0,0.0,0.0,0.0,0.0,-2.5046,-2.7941,-2.8793,-2.9208,-2.938,-2.9024,-2.8481,0.0,0.0,0.0,0.0,0.0,0.0,0.0,0.0,0.0,0.0,0.0,0.0,0.0,0.0,0.0,0.0,0.0,0.0,0.0,0.0,0.0,0.0,0.0,0.0,0.0,0.0,0.0,0.0,0.0,0.0,0.0,0.0,0.0,0.0,0.0,0.0,0.0,0.0,0.0,0.0,0.0,0.0,0.0,0.0,0.0,0.0,0.0,0.0,0.0,0.0,0.0,0.0,0.0,0.0,0.0,0.0,0.0,0.0,0.0,0.0,0.0,0.0,0.0,0.0,0.0,0.0,0.0,0.0,0.0,0.0,0.0,0.0,0.0,0.0,0.0,0.0,0.0,0.0,0.0,0.0,0.0,0.0,0.0,0.0,0.0,0.0,0.0,0.0,0.0,0.0,0.0,0.0,0.0,0.0,0.0,0.0,0.0,0.0,0.0,0.0,0.0,0.0,0.0,0.0,0.0,0.0,0.0,0.0,0.0,-2.9101,-2.9578,-2.9845,-2.9877,-2.9639,-2.913,0.0,0.0,0.0,0.0,0.0,0.0,0.0,0.0,0.0,0.0,0.0,0.0,0.0,0.0,0.0,0.0,0.0,0.0,0.0,0.0,0.0,0.0,0.0,0.0,0.0,0.0,0.0,0.0,0.0,0.0,0.0,0.0,0.0,0.0,0.0,0.0,0.0,0.0,0.0,0.0,0.0,0.0,0.0,0.0,0.0,0.0,0.0,0.0,0.0,0.0,0.0,0.0,0.0,0.0,0.0,0.0,0.0,0.0,0.0,0.0,0.0,0.0,0.0,0.0,0.0,0.0,0.0,0.0,0.0,0.0,0.0,0.0,0.0,0.0,0.0,0.0,0.0,0.0,0.0,0.0,0.0,0.0,0.0,0.0,0.0,0.0,0.0,0.0,0.0,0.0,0.0,0.0,0.0,0.0,0.0,0.0,0.0,0.0,0.0,0.0,0.0,0.0,0.0,0.0,0.0,0.0,0.0,0.0,0.0,-3.0929,-3.1098,-3.1226,-3.1225,-3.0715,-3.0105,-2.9434,0.0,0.0,0.0,0.0,0.0,0.0,0.0,0.0,0.0,0.0,0.0,0.0,0.0,0.0,0.0,0.0,0.0,0.0,0.0,0.0,0.0,0.0,0.0,0.0,0.0,0.0,0.0,0.0,0.0,0.0,0.0,0.0,0.0,0.0,0.0,0.0,0.0,0.0,0.0,0.0,0.0,0.0,0.0,0.0,0.0,0.0,0.0,0.0,0.0,0.0,0.0,0.0,0.0,0.0,0.0,0.0,0.0,0.0,0.0,0.0,0.0,0.0,0.0,0.0,0.0,0.0,0.0,0.0,0.0,0.0,0.0,0.0,0.0,0.0,0.0,0.0,0.0,0.0,0.0,0.0,0.0,0.0,0.0,0.0,0.0,0.0,0.0,0.0,0.0,0.0,0.0,0.0,0.0,0.0,0.0,0.0,0.0,0.0,0.0,0.0,0.0,0.0,0.0,0.0,0.0,0.0,0.0,0.0,-3.3235,-3.3352,-3.3316,-3.314,-3.2196,-3.1412,0.0,0.0,0.0,0.0,0.0,0.0,0.0,0.0,0.0,0.0,0.0,0.0,0.0,0.0,0.0,0.0,0.0,0.0,0.0,0.0,0.0,0.0,0.0,0.0,0.0,0.0,0.0,0.0,0.0,0.0,0.0,0.0,0.0,0.0,0.0,0.0,0.0,0.0,0.0,0.0,0.0,0.0,0.0,0.0,0.0,0.0,0.0,0.0,0.0,0.0,0.0,0.0,0.0,0.0,0.0,0.0,0.0,0.0,0.0,0.0,0.0,0.0,0.0,0.0,0.0,0.0,0.0,0.0,0.0,0.0,0.0,0.0,0.0,0.0,0.0,0.0,0.0,0.0,0.0,0.0,0.0,0.0,0.0,0.0,0.0,0.0,0.0,0.0,0.0,0.0,0.0,0.0,0.0,0.0,0.0,0.0,0.0,0.0,0.0,0.0,0.0,0.0,0.0,0.0,0.0,0.0,0.0,0.0,0.0,-3.5151,-3.6415,-3.6144,-3.4231,-3.3752,-3.3071,0.0,0.0,0.0,0.0,0.0,0.0,0.0,0.0,0.0,0.0,0.0,0.0,0.0,0.0,0.0,0.0,0.0,0.0,0.0,0.0,0.0,0.0,0.0,0.0,0.0,0.0,0.0,0.0,0.0,0.0,0.0,0.0,0.0,0.0,0.0,0.0,0.0,0.0,0.0,0.0,0.0,0.0,0.0,0.0,0.0,0.0,0.0,0.0,0.0,0.0,0.0,0.0,0.0,0.0,0.0,0.0,0.0,0.0,0.0,0.0,0.0,0.0,0.0,0.0,0.0,0.0,0.0,0.0,0.0,0.0,0.0,0.0,0.0,0.0,0.0,0.0,0.0,0.0,0.0,0.0,0.0,0.0,0.0,0.0,0.0,0.0,0.0,0.0,0.0,0.0,0.0,0.0,0.0,0.0,0.0,0.0,0.0,0.0,0.0,0.0,0.0,0.0,0.0,0.0,0.0,0.0,0.0,0.0,-3.5055,-3.6438,-3.8174,-3.8326,-3.6781,-3.5543,-3.45,0.0,0.0,0.0,0.0,0.0,0.0,0.0,0.0,0.0,0.0,0.0,0.0,0.0,0.0,0.0,0.0,0.0,0.0,0.0,0.0,0.0,0.0,0.0,0.0,0.0,0.0,0.0,0.0,0.0,0.0,0.0,0.0,0.0,0.0,0.0,0.0,0.0,0.0,0.0,0.0,0.0,0.0,0.0,0.0,0.0,0.0,0.0,0.0,0.0,0.0,0.0,0.0,0.0,0.0,0.0,0.0,0.0,0.0,0.0,0.0,0.0,0.0,0.0,0.0,0.0,0.0,0.0,0.0,0.0,0.0,0.0,0.0,0.0,0.0,0.0,0.0,0.0,0.0,0.0,0.0,0.0,0.0,0.0,0.0,0.0,0.0,0.0,0.0,0.0,0.0,0.0,0.0,0.0,0.0,0.0,0.0,0.0,0.0,0.0,0.0,0.0,0.0,0.0,0.0,0.0,0.0,0.0,0.0,-3.5513,-3.7309,-3.9113,-3.9992,-3.9869,-3.7358,-3.5825,0.0,0.0,0.0,0.0,0.0,0.0,0.0,0.0,0.0,0.0,0.0,0.0,0.0,0.0,0.0,0.0,0.0,0.0,0.0,0.0,0.0,0.0,0.0,0.0,0.0,0.0,0.0,0.0,0.0,0.0,0.0,0.0,0.0,0.0,0.0,0.0,0.0,0.0,0.0,0.0,0.0,0.0,0.0,0.0,0.0,0.0,0.0,0.0,0.0,0.0,0.0,0.0,0.0,0.0,0.0,0.0,0.0,0.0,0.0,0.0,0.0,0.0,0.0,0.0,0.0,0.0,0.0,0.0,0.0,0.0,0.0,0.0,0.0,0.0,0.0,0.0,0.0,0.0,0.0,0.0,0.0,0.0,0.0,0.0,0.0,0.0,0.0,0.0,0.0,0.0,0.0,0.0,0.0,0.0,0.0,0.0,0.0,0.0,0.0,0.0,0.0,0.0,0.0,0.0,0.0,0.0,0.0,0.0,-3.6479,-3.827,-3.9976,-4.0856,-4.0832,-3.8887,-3.7374,0.0,0.0,0.0,0.0,0.0,0.0,0.0,0.0,0.0,0.0,0.0,0.0,0.0,0.0,0.0,0.0,0.0,0.0,0.0,0.0,0.0,0.0,0.0,0.0,0.0,0.0,0.0,0.0,0.0,0.0,0.0,0.0,0.0,0.0,0.0,0.0,0.0,0.0,0.0,0.0,0.0,0.0,0.0,0.0,0.0,0.0,0.0,0.0,-3.6654,0.0,0.0,0.0,0.0,0.0,0.0,0.0,0.0,0.0,0.0,0.0,0.0,0.0,0.0,0.0,0.0,0.0,0.0,0.0,0.0,0.0,0.0,0.0,0.0,0.0,0.0,0.0,0.0,0.0,0.0,0.0,0.0,0.0,0.0,0.0,0.0,0.0,0.0,0.0,0.0,0.0,0.0,0.0,0.0,0.0,0.0,0.0,0.0,0.0,0.0,0.0,0.0,0.0,0.0,0.0,0.0,0.0,0.0,0.0,-3.7237,-3.8589,-4.0272,-4.113,-4.1045,-3.9351,-3.8058,0.0,0.0,0.0,0.0,0.0,0.0,0.0,0.0,0.0,0.0,0.0,0.0,0.0,0.0,0.0,0.0,0.0,0.0,0.0,0.0,0.0,0.0,0.0,0.0,0.0,0.0,0.0,0.0,0.0,0.0,0.0,0.0,0.0,0.0,0.0,0.0,0.0,0.0,0.0,0.0,0.0,0.0,0.0,0.0,0.0,0.0,0.0,0.0,0.0,0.0,0.0,0.0,0.0,0.0,0.0,0.0,0.0,0.0,0.0,0.0,0.0,0.0,0.0,0.0,0.0,0.0,0.0,0.0,0.0,0.0,0.0,0.0,0.0,0.0,0.0,0.0,0.0,0.0,0.0,0.0,0.0,0.0,0.0,0.0,0.0,0.0,0.0,0.0,0.0,0.0,0.0,0.0,0.0,0.0,0.0,0.0,0.0,0.0,0.0,0.0,0.0,0.0,0.0,0.0,0.0,0.0,0.0,-3.6044,-3.7791,-3.8807,-4.0371,-4.117,-4.108,-3.9351,-3.826,-3.7974,0.0,0.0,0.0,0.0,0.0,0.0,0.0,0.0,0.0,0.0,0.0,0.0,0.0,0.0,0.0,0.0,0.0,0.0,0.0,0.0,0.0,0.0,0.0,0.0,0.0,0.0,0.0,0.0,0.0,0.0,0.0,0.0,0.0,0.0,0.0,0.0,0.0,0.0,-3.4112,-3.328,0.0,0.0,0.0,0.0,0.0,0.0,0.0,0.0,-3.6665,0.0,0.0,0.0,0.0,0.0,0.0,0.0,0.0,0.0,0.0,0.0,0.0,0.0,0.0,0.0,0.0,0.0,0.0,0.0,0.0,0.0,0.0,0.0,0.0,0.0,0.0,0.0,0.0,0.0,0.0,0.0,0.0,0.0,0.0,0.0,0.0,0.0,0.0,0.0,0.0,0.0,0.0,0.0,0.0,0.0,0.0,0.0,0.0,0.0,0.0,0.0,0.0,0.0,0.0,0.0,0.0,-3.4462,-3.6341,-3.8065,-3.9647,-4.0683,-4.117,-4.1041,-3.9287,-3.8177,-3.7855,0.0,0.0,0.0,0.0,0.0,0.0,0.0,0.0,0.0,0.0,0.0,0.0,0.0,0.0,0.0,0.0,0.0,0.0,0.0,0.0,0.0,0.0,0.0,0.0,0.0,0.0,0.0,0.0,0.0,0.0,0.0,0.0,0.0,0.0,0.0,0.0,0.0,0.0,0.0,-3.4779,-3.4617,0.0,0.0,0.0,0.0,0.0,0.0,0.0,0.0,-3.7207,0.0,0.0,0.0,0.0,0.0,0.0,0.0,0.0,0.0,0.0,0.0,0.0,0.0,0.0,0.0,0.0,0.0,0.0,0.0,0.0,0.0,0.0,0.0,0.0,0.0,0.0,0.0,0.0,0.0,0.0,0.0,0.0,0.0,0.0,0.0,0.0,0.0,0.0,0.0,0.0,0.0,0.0,0.0,0.0,0.0,0.0,0.0,0.0,0.0,0.0,0.0,0.0,0.0,0.0,0.0,-3.4736,-3.6853,-3.8593,-3.9863,-4.0742,-4.117,-4.1074,-3.9252,-3.8112,0.0,0.0,0.0,0.0,0.0,0.0,0.0,0.0,0.0,0.0,0.0,0.0,0.0,0.0,0.0,0.0,0.0,0.0,0.0,0.0,0.0,0.0,0.0,0.0,0.0,0.0,0.0,0.0,0.0,0.0,0.0,0.0,0.0,0.0,0.0,0.0,0.0,0.0,0.0,0.0,-3.5484,-3.5587,-3.6507,0.0,0.0,0.0,0.0,0.0,0.0,-3.7631,-3.7401,0.0,0.0,0.0,0.0,0.0,0.0,0.0,0.0,0.0,0.0,0.0,0.0,0.0,0.0,0.0,0.0,0.0,0.0,0.0,0.0,0.0,0.0,0.0,0.0,0.0,0.0,0.0,0.0,0.0,0.0,0.0,0.0,0.0,0.0,0.0,0.0,0.0,0.0,0.0,0.0,0.0,0.0,0.0,0.0,0.0,0.0,0.0,0.0,0.0,0.0,0.0,0.0,0.0,0.0,0.0,-3.5252,-3.7461,-3.9121,-4.0137,-4.084,-4.1169,-4.1072,-3.9201,-3.8084,0.0,0.0,0.0,0.0,0.0,0.0,0.0,0.0,0.0,0.0,0.0,0.0,0.0,0.0,0.0,0.0,0.0,0.0,0.0,0.0,0.0,0.0,0.0,0.0,0.0,0.0,0.0,0.0,0.0,0.0,0.0,0.0,0.0,0.0,0.0,0.0,0.0,0.0,0.0,0.0,0.0,-3.6145,-3.7068,-3.6572,0.0,0.0,0.0,0.0,-3.8113,-3.7855,0.0,0.0,0.0,0.0,0.0,0.0,0.0,0.0,0.0,0.0,0.0,0.0,0.0,0.0,0.0,0.0,0.0,0.0,0.0,0.0,0.0,0.0,0.0,0.0,0.0,0.0,0.0,0.0,0.0,0.0,0.0,0.0,0.0,0.0,0.0,0.0,0.0,0.0,0.0,0.0,0.0,0.0,0.0,0.0,0.0,0.0,0.0,0.0,0.0,0.0,0.0,0.0,0.0,0.0,0.0,0.0,-3.6932,-3.8047,-3.9375,-4.0957,-4.1152,-4.1169,-4.1091,-3.9208,-3.8074,0.0,0.0,0.0,0.0,0.0,0.0,0.0,0.0,0.0,0.0,0.0,0.0,0.0,0.0,0.0,0.0,0.0,0.0,0.0,0.0,0.0,0.0,0.0,0.0,0.0,0.0,0.0,0.0,0.0,0.0,0.0,0.0,0.0,0.0,0.0,0.0,0.0,0.0,0.0,0.0,0.0,-3.6096,-3.6836,-3.6427,-3.6084,0.0,0.0,-3.7896,-3.8009,-3.8665,0.0,0.0,0.0,0.0,0.0,0.0,0.0,0.0,0.0,0.0,0.0,0.0,0.0,0.0,0.0,0.0,0.0,0.0,0.0,0.0,0.0,0.0,0.0,0.0,0.0,0.0,0.0,0.0,0.0,0.0,0.0,0.0,0.0,0.0,0.0,0.0,0.0,0.0,0.0,0.0,0.0,0.0,0.0,0.0,0.0,0.0,0.0,0.0,0.0,0.0,0.0,0.0,0.0,0.0,0.0,-3.5194,-3.7265,-3.8633,-3.9941,-4.1152,-4.1191,-4.1169,-4.1111,-3.9214,-3.8064,0.0,0.0,0.0,0.0,0.0,0.0,0.0,0.0,0.0,0.0,0.0,0.0,0.0,0.0,0.0,0.0,0.0,0.0,0.0,0.0,0.0,0.0,0.0,0.0,0.0,0.0,0.0,0.0,0.0,0.0,0.0,0.0,0.0,0.0,0.0,0.0,0.0,0.0,0.0,0.0,0.0,0.0,-3.7009,-3.6731,0.0,0.0,0.0,-3.7909,-3.7993,0.0,0.0,0.0,0.0,0.0,0.0,0.0,0.0,0.0,0.0,0.0,0.0,0.0,0.0,0.0,0.0,0.0,0.0,0.0,0.0,0.0,0.0,0.0,0.0,0.0,0.0,0.0,0.0,0.0,0.0,0.0,0.0,0.0,0.0,0.0,0.0,0.0,0.0,0.0,0.0,0.0,0.0,0.0,0.0,0.0,0.0,0.0,0.0,0.0,0.0,0.0,0.0,0.0,0.0,0.0,0.0,0.0,-3.7598,-3.9121,-4.0312,-4.1152,-4.1191,-4.1169,-4.1072,-3.9415,0.0,0.0,0.0,0.0,0.0,0.0,0.0,0.0,0.0,0.0,0.0,0.0,0.0,0.0,0.0,0.0,0.0,0.0,0.0,0.0,0.0,0.0,0.0,0.0,0.0,0.0,0.0,-3.543,0.0,0.0,0.0,0.0,0.0,0.0,0.0,0.0,0.0,0.0,0.0,0.0,0.0,0.0,-3.6948,-3.7069,-3.7122,-3.7305,0.0,0.0,-3.8156,-3.8306,-3.9075,-3.9367,0.0,0.0,0.0,0.0,0.0,0.0,0.0,0.0,0.0,0.0,0.0,0.0,0.0,0.0,0.0,0.0,0.0,0.0,0.0,0.0,0.0,0.0,0.0,0.0,0.0,0.0,0.0,0.0,0.0,0.0,0.0,0.0,0.0,0.0,0.0,0.0,0.0,0.0,0.0,0.0,0.0,0.0,0.0,0.0,0.0,0.0,0.0,0.0,0.0,0.0,0.0,0.0,0.0,0.0,0.0,-3.8476,-3.9434,-4.0332,-4.1152,-4.1191,-4.117,-4.1097,-4.0,-3.8947,0.0,0.0,0.0,0.0,0.0,0.0,0.0,0.0,0.0,0.0,0.0,0.0,0.0,0.0,0.0,0.0,0.0,0.0,0.0,0.0,0.0,0.0,0.0,0.0,0.0,0.0,0.0,0.0,0.0,0.0,0.0,0.0,0.0,0.0,0.0,0.0,0.0,0.0,0.0,0.0,0.0,-3.6876,-3.6758,-3.7417,-3.7991,0.0,0.0,-3.8986,-3.9185,-3.9888,-3.9914,-3.835,0.0,0.0,0.0,0.0,0.0,0.0,0.0,0.0,0.0,0.0,0.0,0.0,0.0,0.0,0.0,0.0,0.0,0.0,0.0,0.0,0.0,0.0,0.0,0.0,0.0,0.0,0.0,0.0,0.0,0.0,0.0,0.0,0.0,0.0,0.0,0.0,0.0,0.0,0.0,0.0,0.0,0.0,0.0,0.0,0.0,0.0,0.0,0.0,0.0,0.0,0.0,0.0,0.0,-3.7383,-3.8594,-3.998,-4.0879,-4.1172,-4.1191,-4.117,-4.1099,-4.0149,-3.9123,0.0,0.0,0.0,0.0,0.0,0.0,0.0,0.0,0.0,0.0,0.0,0.0,0.0,0.0,0.0,0.0,0.0,0.0,0.0,0.0,0.0,0.0,0.0,0.0,0.0,0.0,0.0,0.0,-3.755,-3.7464,-3.682,0.0,0.0,0.0,0.0,0.0,0.0,0.0,0.0,0.0,0.0,-3.6919,-3.7291,-3.7588,0.0,0.0,-3.8455,-3.8652,-3.8247,-3.9087,-3.921,-3.7571,-3.7321,0.0,0.0,0.0,0.0,0.0,0.0,0.0,0.0,0.0,0.0,0.0,0.0,0.0,0.0,0.0,0.0,0.0,0.0,0.0,0.0,0.0,0.0,0.0,0.0,0.0,0.0,0.0,0.0,0.0,0.0,0.0,0.0,0.0,0.0,0.0,0.0,0.0,0.0,0.0,0.0,0.0,0.0,0.0,0.0,0.0,0.0,0.0,0.0,0.0,0.0,0.0,0.0,-3.7988,-3.8613,-4.0312,-4.1191,-4.1191,-4.1191,-4.1171,-4.1084,-4.0444,-3.9602,0.0,0.0,0.0,0.0,0.0,0.0,0.0,0.0,0.0,0.0,0.0,0.0,0.0,0.0,0.0,0.0,0.0,0.0,0.0,0.0,0.0,0.0,0.0,0.0,0.0,0.0,0.0,0.0,-3.7614,-3.7423,-3.6673,0.0,0.0,0.0,0.0,0.0,0.0,0.0,0.0,0.0,0.0,-3.7087,-3.7331,-3.7572,-3.7701,-3.7538,-3.7943,-3.8097,-3.7642,-3.8276,-3.8458,-3.7329,0.0,0.0,0.0,0.0,0.0,0.0,0.0,0.0,0.0,0.0,0.0,0.0,0.0,0.0,0.0,0.0,0.0,0.0,0.0,0.0,0.0,0.0,0.0,0.0,0.0,0.0,0.0,0.0,0.0,0.0,-3.3193,0.0,0.0,0.0,0.0,0.0,0.0,0.0,0.0,0.0,0.0,0.0,0.0,0.0,0.0,0.0,0.0,0.0,0.0,0.0,0.0,0.0,0.0,-3.8574,-3.8633,-4.0332,-4.1191,-4.1191,-4.1191,-4.1172,-4.1111,-4.1013,-4.0491,-3.9488,0.0,0.0,0.0,0.0,0.0,0.0,0.0,0.0,0.0,0.0,0.0,0.0,0.0,0.0,0.0,0.0,0.0,0.0,0.0,0.0,0.0,0.0,0.0,0.0,0.0,0.0,-3.592,-3.6407,-3.6771,0.0,0.0,0.0,0.0,0.0,0.0,0.0,0.0,0.0,0.0,-3.6719,-3.7378,-3.6657,-3.7267,-3.757,-3.7007,-3.7175,-3.7411,-3.7639,-3.7764,-3.783,0.0,0.0,0.0,0.0,0.0,0.0,0.0,0.0,0.0,0.0,0.0,0.0,0.0,0.0,0.0,0.0,0.0,0.0,0.0,0.0,0.0,0.0,0.0,0.0,0.0,0.0,0.0,-3.4129,-3.4108,0.0,0.0,0.0,0.0,0.0,0.0,0.0,0.0,0.0,0.0,0.0,-3.6964,-3.7079,0.0,0.0,0.0,0.0,0.0,0.0,0.0,0.0,0.0,0.0,0.0,0.0,-3.8613,-3.8691,-4.0332,-4.1191,-4.1191,-4.1191,-4.1172,-4.1112,-4.111,-4.059,-3.9477,0.0,0.0,0.0,0.0,0.0,0.0,0.0,0.0,0.0,0.0,0.0,0.0,0.0,0.0,0.0,0.0,0.0,0.0,0.0,0.0,0.0,0.0,0.0,0.0,0.0,-3.6733,0.0,0.0,0.0,0.0,0.0,0.0,0.0,0.0,0.0,0.0,0.0,-3.5528,-3.6011,-3.6058,-3.6113,-3.6333,-3.6648,-3.6962,0.0,0.0,0.0,0.0,0.0,0.0,0.0,0.0,0.0,0.0,0.0,0.0,0.0,0.0,-3.7057,-3.6535,-3.709,-3.7583,-3.7512,0.0,0.0,0.0,0.0,0.0,0.0,0.0,0.0,0.0,0.0,0.0,0.0,0.0,0.0,-3.582,0.0,-3.5554,0.0,0.0,0.0,0.0,0.0,0.0,0.0,0.0,-3.8144,-3.8513,-3.8721,-3.8793,-3.8561,0.0,-3.8407,-3.7714,0.0,0.0,0.0,0.0,0.0,0.0,0.0,0.0,-3.8613,-3.8672,-4.0312,-4.1191,-4.1191,-4.1191,-4.1172,-4.1132,-4.113,-4.0776,-3.9993,-3.9072,-3.8241,0.0,0.0,0.0,0.0,0.0,0.0,0.0,0.0,0.0,0.0,0.0,0.0,0.0,0.0,0.0,0.0,0.0,0.0,0.0,0.0,0.0,0.0,0.0,-3.6688,0.0,0.0,0.0,0.0,0.0,0.0,0.0,0.0,0.0,-3.5388,-3.5541,-3.5809,-3.6221,-3.614,-3.5946,-3.5787,0.0,0.0,0.0,0.0,0.0,0.0,0.0,-3.5571,-3.5457,-3.6103,-3.6787,-3.7125,-3.7515,-3.7756,-3.7756,0.0,0.0,-3.7332,-3.7891,-3.8426,-3.8366,-3.8581,-3.8955,-3.9393,-3.9279,-3.9172,0.0,0.0,0.0,0.0,0.0,0.0,0.0,0.0,-3.7947,-3.8276,0.0,-3.743,0.0,0.0,0.0,0.0,0.0,-3.8024,0.0,0.0,-4.0,-4.0395,-3.9747,-3.9736,-3.9735,-3.9689,-3.9055,-3.871,-3.8672,-3.8672,0.0,0.0,0.0,0.0,0.0,0.0,-3.8613,-3.8711,-4.0332,-4.1191,-4.1191,-4.1191,-4.1191,-4.1191,-4.108,-4.1,-4.0953,-4.0046,-3.9513,-3.9371,-3.7783,0.0,0.0,0.0,0.0,0.0,0.0,0.0,0.0,0.0,0.0,0.0,0.0,0.0,0.0,0.0,0.0,0.0,0.0,0.0,0.0,-3.6285,0.0,0.0,0.0,0.0,0.0,0.0,0.0,0.0,0.0,0.0,-3.5365,-3.5855,-3.6201,-3.6058,0.0,0.0,0.0,0.0,-3.5559,-3.4092,-3.3931,-3.4136,-3.4391,-3.4363,-3.4682,-3.573,0.0,0.0,-3.8101,-3.7612,-3.7144,-3.7122,-3.7769,-3.8243,-3.8024,-3.8685,-3.925,-3.9221,-3.978,-4.0344,-4.0209,-3.9854,-3.9588,-3.7844,0.0,0.0,0.0,0.0,-3.7383,-3.7954,-3.8721,-3.8972,-3.91,-3.9073,-3.8833,0.0,0.0,0.0,0.0,0.0,0.0,-3.8827,-3.9353,-3.9828,-4.0182,-4.0493,-4.0599,-4.0621,-4.0625,-4.0523,-4.0469,-4.0469,-4.0449,-3.9394,-3.7344,0.0,0.0,0.0,0.0,-3.8906,-3.957,-4.0625,-4.1191,-4.1191,-4.1191,-4.1191,-4.1191,-4.117,-4.1103,-4.0996,-4.0725,-4.0246,-3.9571,-3.9013,0.0,0.0,0.0,0.0,0.0,0.0,0.0,0.0,0.0,0.0,0.0,0.0,0.0,0.0,0.0,0.0,0.0,0.0,0.0,-3.6427,-3.6711,-3.6572,0.0,0.0,0.0,0.0,0.0,0.0,0.0,0.0,0.0,-3.5937,-3.5559,-3.5282,0.0,0.0,-3.447,-3.388,-3.4181,-3.4327,-3.4075,-3.4037,0.0,-3.4477,-3.4382,-3.4349,-3.4731,-3.5556,-3.6434,-3.7243,-3.7257,-3.7149,-3.7168,-3.7829,-3.8345,-3.8341,-3.8952,-3.9463,-3.9518,-3.9688,-3.9876,-3.9936,-3.9637,-3.9282,-3.9465,-3.8955,-3.8329,-3.8298,-3.8633,-3.8653,-3.909,-3.9841,-3.9841,-3.986,-3.9874,-3.9835,-3.9399,-3.8664,-3.8432,0.0,0.0,0.0,-3.9478,-4.031,-4.0251,-4.0467,-4.094,-4.1049,-4.1099,-4.108,-4.1151,-4.1191,-4.1191,-4.1191,-4.0234,-3.8379,0.0,0.0,-3.7851,-3.8672,-3.9375,-3.9922,-4.0762,-4.1191,-4.1191,-4.1191,-4.1191,-4.1191,-4.1191,-4.1151,-4.106,-4.108,-4.0818,-4.0255,-3.9841,-3.9141,0.0,0.0,0.0,0.0,0.0,0.0,0.0,0.0,0.0,0.0,0.0,-3.6804,-3.6216,0.0,0.0,0.0,-3.708,-3.7204,-3.7048,-3.6983,0.0,0.0,0.0,0.0,0.0,0.0,0.0,-3.4905,-3.5491,-3.5854,-3.5639,-3.4875,-3.4622,-3.5398,-3.4818,-3.419,-3.3749,0.0,-3.3646,-3.3669,-3.3485,-3.3546,-3.3978,-3.3899,-3.396,-3.45,-3.5052,-3.5764,-3.6572,-3.6814,-3.6844,-3.69,-3.7231,-3.7567,-3.7567,-3.7978,-3.8621,-3.9421,-3.9599,-3.9651,-3.9763,-3.9406,-3.909,-4.0492,-4.0389,-3.8845,-3.8671,-3.9388,-3.9398,-3.9826,-4.0469,-4.0489,-4.0539,-4.0592,-4.0523,-4.0135,-3.9475,-3.8733,0.0,-3.9956,-3.9778,-4.0248,-4.1171,-4.1055,-4.1058,-4.1191,-4.1191,-4.1191,-4.1191,-4.1191,-4.1191,-4.1191,-4.1191,-4.0762,-3.9902,-3.9883,-3.9512,-3.8789,-3.9434,-3.9844,-3.9902,-4.0664,-4.0996,-4.0918,-4.1035,-4.1094,-4.1094,-4.1172,-4.1191,-4.1191,-4.1172,-4.1191,-4.1152,-4.0351,-3.9839,-3.9738,0.0,0.0,0.0,0.0,0.0,0.0,0.0,0.0,0.0,0.0,0.0,0.0,0.0,0.0,0.0,-3.7713,0.0,-3.7991,-3.7203,0.0,0.0,0.0,-3.5975,-3.6645,-3.6677,-3.6377,-3.5775,0.0,0.0,-3.4783,-3.4041,-3.4288,-3.6146,-3.581,-3.4968,-3.4059,-3.3647,-3.3349,-3.2959,-3.257,-3.2519,-3.3024,-3.3081,-3.343,-3.4418,-3.4842,-3.51,-3.576,-3.6019,-3.6064,-3.6048,-3.6138,-3.6221,-3.6193,-3.6342,-3.6934,-3.8882,-3.926,-3.9301,-3.9447,-3.9072,-3.8637,-4.0321,-4.0485,-4.0062,-4.0042,-4.0215,-4.0215,-4.0331,-4.0489,-4.0489,-4.0504,-4.0523,-4.0504,-4.0458,-4.0382,-4.0247,-4.0322,-4.0584,-4.0632,-4.0793,-4.1049,-4.1019,-4.1077,-4.1191,-4.1191,-4.1191,-4.1191,-4.1191,-4.1191,-4.1191,-4.1191,-4.0762,-3.9922,-3.9883,-3.9785,-3.959,-3.9141,-3.9238,-3.9883,-3.9844,-3.9414,-3.8594,-3.9629,-4.0215,-4.0195,-4.0859,-4.1191,-4.1191,-4.1103,-4.1052,-4.103,-4.0745,-4.0305,-3.9738,-3.8702,0.0,0.0,0.0,0.0,0.0,0.0,0.0,0.0,0.0,-3.6488,-3.5746,0.0,-3.7185,0.0,-3.7973,-3.8461,-3.804,-3.7635,0.0,0.0,-3.6139,-3.6507,-3.7106,-3.6924,-3.6442,-3.5661,-3.5598,-3.5443,-3.4764,-3.4498,-3.4424,-3.4719,-3.3776,-3.2861,-3.2529,-3.2598,-3.2459,-3.2091,-3.2231,-3.2384,-3.223,-3.2451,-3.2752,-3.3027,-3.3394,-3.3694,-3.3894,-3.4191,-3.4394,-3.4431,-3.4926,-3.5275,-3.5284,-3.5826,-3.6397,-3.698,-3.7082,-3.7479,-3.86,-3.7923,-3.6951,-4.0177,-4.0339,-4.0457,-4.0489,-4.0489,-4.0489,-4.0489,-4.0489,-4.0489,-4.0489,-4.0489,-4.0489,-4.0568,-4.0711,-4.0676,-4.0713,-4.0801,-4.087,-4.093,-4.0996,-4.1074,-4.1128,-4.1191,-4.1191,-4.1191,-4.1191,-4.082,-4.0625,-4.0605,-4.0234,-3.9785,-3.9336,-3.9316,-3.9316,-3.9297,-3.8828,-3.8848,-3.9316,-3.9121,-3.871,-3.8061,-3.8803,-3.9229,-3.9242,-3.971,-3.9947,-3.9947,-3.9887,-3.9848,-3.9838,-3.9786,-3.9532,-3.915,-3.8331,-3.7663,0.0,0.0,0.0,0.0,0.0,0.0,0.0,0.0,0.0,0.0,0.0,-3.7265,-3.7343,-3.8022,-3.8169,-3.7532,-3.7131,-3.6626,-3.5937,-3.6069,-3.6531,-3.7158,-3.7089,-3.6557,-3.5545,-3.5479,-3.5175,-3.4268,-3.3779,-3.3511,-3.3373,-3.2414,-3.196,-3.2295,-3.2102,-3.1768,-3.1714,-3.1823,-3.1914,-3.1789,-3.2213,-3.2517,-3.2517,-3.2713,-3.2872,-3.289,-3.3075,-3.3225,-3.3243,-3.3605,-3.3876,-3.3912,-3.4238,-3.4612,-3.4612,-3.4612,-3.5375,-3.7169,-3.7106,-3.6413,-4.0041,-4.012,-4.0356,-4.0473,-4.0489,-4.0489,-4.0489,-4.0489,-4.0489,-4.0489,-4.0489,-4.0489,-4.0574,-4.0655,-4.0574,-4.061,-4.076,-4.0805,-4.0864,-4.0968,-4.1125,-4.1132,-4.1035,-4.1035,-4.0976,-4.082,-4.0098,-3.9726,-3.9726,-3.8965,-3.8535,-3.8437,-3.8437,-3.8379,-3.8281,-3.8262,-3.8262,-3.8261,-3.8261,-3.8197,-3.8069,-3.8186,-3.8233,-3.8238,-3.8336,-3.8394,-3.838,-3.835,-3.8351,-3.8344,-3.8344,-3.8364,-3.8481,-3.7761,-3.737,0.0,-3.6682,0.0,0.0,0.0,0.0,0.0,0.0,0.0,0.0,-3.7014,-3.7312,-3.7775,-3.794,-3.7706,-3.6934,-3.6487,-3.6184,-3.6021,-3.6037,-3.6304,-3.6891,-3.6962,-3.6479,-3.5275,-3.5105,-3.4575,-3.3422,-3.2679,-3.2313,-3.2161,-3.1653,-3.1533,-3.2282,-3.1803,-3.1368,-3.1696,-3.1393,-3.1372,-3.1623,-3.2039,-3.2282,-3.2334,-3.2384,-3.2417,-3.24,-3.2484,-3.2517,-3.2517,-3.2619,-3.2586,-3.2517,-3.2553,-3.2553,-3.2707,-3.2725,-3.338,-3.5254,-3.6065,-3.5647,-3.9599,-4.0101,-4.0158,-4.0285,-4.0489,-4.0489,-4.0489,-4.0489,-4.0489,-4.0489,-4.0489,-4.0489,-4.0539,-4.0545,-4.0623,-4.0617,-4.0563,-4.0714,-4.0809,-4.0831,-4.0968,-4.073,-4.0176,-4.0137,-3.9785,-3.9101,-3.8926,-3.8848,-3.8848,-3.8691,-3.8242,-3.7559,-3.7539,-3.7187,-3.6523,0.0,0.0,0.0,-3.6452,-3.6443,-3.6333,-3.7045,-3.7396,-3.7356,-3.7981,0.0,-3.8225,-3.8152,-3.8036,-3.8001,-3.7938,0.0,0.0,0.0,0.0,0.0,0.0,0.0,0.0,0.0,0.0,0.0,-3.6775,-3.6718,-3.6814,-3.734,-3.7728,-3.7968,-3.8005,-3.7735,-3.7183,-3.7072,-3.6872,-3.6584,-3.6763,-3.6587,-3.5736,-3.5632,-3.5307,-3.4523,-3.4024,-3.3459,-3.2618,-3.2357,-3.2053,-3.1489,-3.1275,-3.1066,-3.0866,-3.1059,-3.123,-3.1291,-3.1134,-3.119,-3.1291,-3.1372,-3.1432,-3.1449,-3.1733,-3.188,-3.1915,-3.2213,-3.2451,-3.2451,-3.2517,-3.2451,-3.2484,-3.2517,-3.2417,-3.2484,-3.2484,-3.2743,-3.3455,-3.3716,-3.3455,-3.9289,0.0,-3.9962,-4.0177,0.0,-4.0304,-4.0372,-4.0489,-4.0489,-4.0489,-4.0489,-4.0489,-4.0489,-4.0504,-4.0574,-4.0574,-4.05,-4.0295,-4.019,-4.0178,-3.9923,-3.9624,-3.9238,-3.9277,-3.9043,-3.8574,-3.8164,-3.7949,-3.793,-3.7519,-3.709,-3.666,-3.666,-3.6405,-3.5968,-3.5876,-3.5864,-3.5884,-3.5932,-3.586,-3.5725,-3.6161,-3.6398,-3.6375,-3.6589,0.0,0.0,0.0,0.0,0.0,0.0,0.0,0.0,0.0,0.0,-3.7906,-3.754,-3.7536,-3.8002,-3.7867,-3.78,-3.7985,-3.7792,-3.7442,-3.6849,-3.7461,-3.7784,-3.7596,-3.7379,-3.7117,-3.6843,-3.6545,-3.6191,-3.5706,-3.5758,-3.5428,-3.4523,-3.4328,-3.4059,-3.3345,-3.2774,-3.2109,-3.1399,-3.1007,-3.0747,-3.0359,-3.0293,-3.0208,-2.9978,-3.0393,-3.0658,-3.0393,-3.0293,-3.0309,-3.0293,-3.0293,-3.0335,-3.0377,-3.0493,-3.0704,-3.1016,-3.1004,-3.1142,-3.1625,-3.1405,-3.1104,-3.1716,-3.1625,-3.1497,-3.177,-3.186,-3.1894,-3.2105,-3.2458,-3.2539,-3.9044,-3.9152,-3.9709,-3.9943,-4.0002,-4.0002,-4.0157,-4.0422,0.0,0.0,0.0,-4.0489,-4.0489,-4.0489,-4.0354,-4.0292,-4.025,-3.9635,-3.9357,-3.9342,-3.8807,-3.8496,-3.8379,-3.8379,-3.8281,-3.8105,-3.7402,-3.707,-3.703,-3.6327,-3.5974,-3.5953,-3.5933,-3.5923,-3.5869,-3.5761,-3.5749,-3.5831,-3.5807,-3.5696,-3.5519,-3.5465,-3.5456,-3.5443,-3.517,-3.5037,-3.5073,-3.4867,-3.4718,-3.4637,-3.466,-3.4813,-3.5204,-3.5269,-3.5701,-3.6487,-3.6528,-3.6957,-3.7898,-3.781,-3.7917,-3.8452,-3.823,-3.7693,-3.6904,-3.7502,-3.7614,-3.692,-3.6434,-3.6115,-3.5887,-3.5574,-3.5064,-3.437,-3.4252,-3.3888,-3.3161,-3.3052,-3.2706,-3.1901,-3.1338,-3.0806,-3.0281,-2.981,-2.9406,-2.9406,-2.9496,-2.9316,-2.9361,-2.9761,-2.9978,-2.9629,-2.9585,-2.9451,-2.9406,-2.9451,-2.9406,-2.9496,-2.948,-2.9585,-2.9892,-2.9717,-2.9865,-3.0666,-3.0038,-2.9978,-3.0617,-3.0502,-3.0335,-3.0781,-3.0895,-3.0895,-3.0975,-3.1631,-3.2001,-3.8894,-3.9125,-3.9186,-3.9408,-3.9668,-3.9668,-3.984,-4.0177,-4.0389,-4.0489,-4.0489,-4.0489,-4.0489,-4.0466,-3.9777,-3.9469,-3.9407,-3.8733,-3.8442,-3.8493,-3.8443,-3.8094,-3.75,-3.748,-3.709,-3.6406,-3.625,-3.6169,-3.6091,-3.5968,-3.5873,-3.5747,-3.5741,-3.5755,-3.5723,-3.571,-3.5667,-3.565,-3.5484,-3.5321,-3.5177,-3.4983,-3.4882,-3.4811,-3.4718,-3.464,-3.4597,-3.4551,-3.452,-3.4435,-3.4498,-3.4867,-3.5652,-3.5715,-3.6192,-3.699,-3.7086,-3.6927,-3.648,-3.6705,-3.6628,-3.6139,-3.5669,-3.5874,-3.7037,-3.7596,-3.7256,-3.5793,-3.5486,-3.5007,-3.404,-3.4194,-3.4185,-3.3609,-3.3204,-3.2605,-3.1812,-3.1687,-3.1237,-3.0129,-2.9742,-2.9683,-2.956,-2.9406,-2.9271,-2.9361,-2.921,-2.918,-2.8764,-2.9134,-2.9451,-2.9406,-2.9406,-2.9406,-2.9271,-2.9345,-2.9255,-2.9406,-2.9316,-2.9316,-2.9496,-2.9361,-2.9406,-2.9629,-2.9451,-2.9451,-2.9717,-2.9585,-2.9629,-2.9761,-2.9805,-2.9761,-2.9821,-3.0619,-3.1249,-3.7894,-3.8302,-3.885,-3.9186,-3.9339,-3.951,-3.9557,-3.9542,-3.9567,-3.9934,-4.0431,-4.0046,-3.9835,-3.9777,-3.8969,-3.8584,-3.8561,-3.7827,-3.7511,-3.751,-3.7125,-3.6752,-3.6462,-3.6426,-3.6231,-3.5841,-3.5838,-3.5825,-3.5802,-3.5777,-3.5761,-3.5703,-3.5671,-3.5657,-3.5657,-3.5611,-3.5492,-3.5339,-3.5264,-3.5196,-3.5095,-3.4868,-3.4737,-3.4697,-3.4494,-3.4383,-3.4334,-3.4,-3.3865,-3.4074,-3.3865,-3.4141,-3.4857,-3.4982,-3.536,-3.6189,-3.6048,-3.5869,-3.583,-3.5769,-3.5489,-3.4924,-3.4888,-3.4946,-3.5134,-3.5584,-3.5423,-3.4374,-3.4281,-3.4055,-3.3499,-3.3618,-3.3381,-3.2419,-3.2133,-3.1543,-3.0538,-3.0312,-3.008,-2.9486,-2.9107,-2.8905,-2.8919,-2.8638,-2.8448,-2.8432,-2.8432,-2.8158,-2.7515,-2.7635,-2.7966,-2.8336,-2.8448,-2.8448,-2.84,-2.8448,-2.8448,-2.8448,-2.8448,-2.8591,-2.8779,-2.867,-2.8717,-2.918,-2.8904,-2.8779,-2.9164,-2.9134,-2.9088,-2.9345,-2.9406,-2.9406,-2.947,-2.972,-2.9944,-3.6566,-3.6991,-3.794,-3.8368,-3.8497,-3.874,-3.874,-3.8544,-3.8398,-3.8861,-3.961,-3.9227,-3.8992,-3.8846,-3.8089,-3.767,-3.7536,-3.6897,-3.6585,-3.655,-3.5965,-3.5682,-3.5703,-3.5703,-3.5703,-3.5703,-3.5703,-3.5716,-3.5675,-3.5694,-3.5659,-3.5646,-3.5591,-3.5577,-3.5577,-3.5457,-3.5304,-3.5122,-3.5018,-3.495,-3.4888,-3.4634,-3.4464,-3.4357,-3.4195,-3.3988,-3.3817,-3.3421,-3.3302,-3.3476,-3.3214,-3.3277,-3.3766,-3.3817,-3.4113,-3.4721,-3.4495,-3.4461,-3.4803,-3.4357,-3.3948,-3.3703,-3.3783,-3.354,-3.284,-3.2942,-3.3144,-3.3111,-3.3052,-3.29,-3.2639,-3.2605,-3.2174,-3.1112,-3.086,-3.0368,-2.9412,-2.918,-2.9134,-2.9012,-2.8606,-2.8286,-2.8174,-2.7745,-2.7291,-2.7122,-2.7086,-2.6864,-2.639,-2.6229,-2.6549,-2.6916,-2.7086,-2.7071,-2.7086,-2.7086,-2.7071,-2.7086,-2.7122,-2.7246,-2.7535,-2.7363,-2.7399,-2.8033,-2.767,-2.7434,-2.8179,-2.8097,-2.7902,-2.8115,-2.8148,-2.8432,-2.8792,-2.8747,-2.8653,-3.5135,-3.5204,-3.576,-3.6176,-3.6628,-3.6638,-3.6786,-3.6956,-3.6907,-3.7103,-3.7581,-3.7929,-3.7958,-3.7689,-3.7091,-3.6673,-3.6432,-3.5878,-3.5688,-3.5736,-3.564,-3.5629,-3.5689,-3.5696,-3.5703,-3.5696,-3.5696,-3.5663,-3.5611,-3.5601,-3.5577,-3.5515,-3.5515,-3.5501,-3.5468,-3.5254,-3.5122,-3.5069,-3.4576,-3.4297,-3.4269,-3.4012,-3.3698,-3.3354,-3.3671,-3.3458,-3.2773,-3.3014,-3.3014,-3.2666,-3.2583,-3.2616,-3.2695,-3.2677,-3.2731,-3.2802,-3.2737,-3.2758,-3.2747,-3.1977,-3.1743,-3.1923,-3.1303,-3.0833,-3.0658,-3.0212,-3.0631,-3.1801,-3.1883,-3.1345,-3.0707,-3.0495,-3.0279,-2.9781,-2.939,-2.8928,-2.8654,-2.8606,-2.8367,-2.7795,-2.776,-2.7675,-2.7545,-2.7034,-2.639,-2.5892,-2.5892,-2.5769,-2.5563,-2.5384,-2.5329,-2.5481,-2.555,-2.555,-2.5591,-2.5618,-2.5645,-2.5645,-2.5605,-2.5686,-2.5781,-2.5741,-2.5714,-2.6101,-2.5889,-2.5849,-2.5767,-2.57,-2.5863,-2.613,-2.6226,-2.6304,-2.7339,-2.768,-2.77,-3.3952,-3.4267,-3.5202,-3.5866,-3.6227,-3.5994,-3.6124,-3.6399,-3.5835,-3.5795,-3.6137,-3.6102,-3.6235,-3.6539,-3.5836,-3.5547,-3.5562,-3.5359,-3.536,-3.5521,-3.5534,-3.555,-3.5588,-3.5588,-3.5588,-3.5568,-3.5588,-3.5574,-3.5502,-3.5372,-3.5212,-3.5051,-3.5016,-3.5035,-3.5016,-3.4926,-3.4774,-3.4555,-3.4096,-3.3792,-3.3616,-3.3504,-3.3379,-3.3214,-3.3105,-3.2854,-3.255,-3.2433,-3.24,-3.2484,-3.223,-3.2213,-3.2484,-3.2517,-3.2517,-3.2484,-3.223,-3.1968,-3.1768,-3.1389,-3.1134,-3.0914,-3.0526,-3.0166,-2.9821,-2.954,-2.9758,-3.0353,-3.0375,-3.0053,-2.9826,-2.9681,-2.9444,-2.8966,-2.8732,-2.8435,-2.8012,-2.7565,-2.7174,-2.6982,-2.693,-2.6774,-2.6375,-2.6054,-2.5728,-2.5453,-2.5384,-2.5175,-2.4838,-2.4341,-2.3794,-2.3395,-2.2905,-2.3272,-2.4218,-2.4617,-2.442,-2.4037,-2.3851,-2.3966,-2.4433,-2.4094,-2.4037,-2.449,-2.4503,-2.4306,-2.394,-2.4813,-2.5329,-2.4953,-2.5148,-2.5619,-2.6189,-2.6284,-2.6279,-3.2619,-3.3161,-3.414,-3.4835,-3.52,-3.4898,-3.501,-3.5341,-3.4676,-3.4595,-3.4971,-3.4503,-3.4656,-3.5218,-3.4877,-3.4774,-3.487,-3.5016,-3.5187,-3.5383,-3.5383,-3.5432,-3.5493,-3.5354,-3.532,-3.5369,-3.5304,-3.5289,-3.5254,-3.5105,-3.487,-3.4714,-3.4694,-3.4694,-3.4674,-3.4532,-3.4274,-3.4018,-3.3551,-3.3128,-3.2831,-3.2773,-3.2791,-3.2791,-3.2616,-3.2384,-3.2162,-3.1754,-3.1664,-3.1862,-3.1405,-3.1274,-3.1629,-3.1792,-3.1881,-3.1862,-3.1425,-3.1016,-3.0723,-3.0699,-3.0518,-3.0123,-2.9951,-2.9629,-2.9225,-2.8996,-2.8904,-2.8919,-2.8732,-2.8654,-2.915,-2.8996,-2.8622,-2.8061,-2.7963,-2.7715,-2.7019,-2.6496,-2.6229,-2.6176,-2.6229,-2.5906,-2.5287,-2.5133,-2.5021,-2.4711,-2.4469,-2.4284,-2.3669,-2.2917,-2.2115,-2.1616,-2.1037,-2.1369,-2.2817,-2.2997,-2.278,-2.2528,-2.2226,-2.2419,-2.3031,-2.2468,-2.2274,-2.2662,-2.2997,-2.2984,-2.2444,-2.3318,-2.4,-2.3541,-2.3683,-2.435,-2.4694,-2.4558,-2.4024,-3.0773,-3.138,-3.1783,-3.2336,-3.2674,-3.2677,-3.292,-3.3485,-3.3322,-3.3509,-3.3799,-3.3484,-3.3494,-3.3942,-3.4353,-3.4529,-3.4379,-3.4813,-3.507,-3.5122,-3.5122,-3.5239,-3.5446,-3.4981,-3.4889,-3.5088,-3.487,-3.4774,-3.4754,-3.4734,-3.4714,-3.4674,-3.4653,-3.4674,-3.4532,-3.3981,-3.364,-3.3524,-3.2906,-3.2296,-3.1759,-3.1827,-3.1844,-3.1826,-3.223,-3.2004,-3.1317,-3.1043,-3.079,-3.0444,-2.9919,-2.9597,-2.9641,-3.0117,-3.0444,-3.0402,-2.9876,-2.9569,-2.9569,-2.9585,-2.954,-2.9377,-2.8996,-2.8606,-2.8511,-2.8027,-2.7745,-2.771,-2.7159,-2.7246,-2.8143,-2.7898,-2.7378,-2.6759,-2.6616,-2.6336,-2.5659,-2.5563,-2.5453,-2.5453,-2.5287,-2.4881,-2.4394,-2.435,-2.3872,-2.322,-2.2543,-2.2113,-2.2039,-2.1353,-2.0771,-2.0568,-2.0451,-2.0579,-2.0696,-2.1095,-2.0991,-2.0523,-2.0415,-2.0737,-2.0696,-2.0696,-2.0685,-2.0737,-2.083,-2.0894,-2.0749,-2.0812,-2.1106,-2.1106,-2.1358,-2.1862,-2.2764,-2.2309,-2.1822,-3.0243,-3.1033,-3.074,-3.1339,-3.24,-3.1757,-3.1952,-3.2681,-3.2415,-3.2565,-3.2903,-3.2809,-3.284,-3.2996,-3.3194,-3.3623,-3.4181,-3.4427,-3.4655,-3.4813,-3.4851,-3.4908,-3.4982,-3.4868,-3.4829,-3.4813,-3.4602,-3.4459,-3.4383,-3.4379,-3.4307,-3.4136,-3.4111,-3.4018,-3.3732,-3.3487,-3.3183,-3.2862,-3.2348,-3.1738,-3.1172,-3.0965,-3.064,-3.0294,-3.0784,-3.0761,-3.0081,-2.9972,-2.987,-2.9717,-2.9496,-2.9406,-2.9406,-2.9629,-2.9717,-2.9717,-2.9496,-2.9406,-2.9406,-2.9406,-2.9225,-2.8826,-2.8638,-2.8286,-2.7894,-2.7291,-2.6878,-2.6759,-2.6215,-2.6147,-2.6293,-2.6308,-2.6108,-2.5837,-2.5783,-2.5673,-2.5412,-2.5021,-2.4681,-2.4553,-2.3891,-2.2977,-2.276,-2.2225,-2.183,-2.153,-2.1227,-2.1037,-2.091,-2.0333,-1.9465,-1.8905,-1.8372,-1.7833,-1.7133,-1.8849,-1.9541,-1.867,-1.8392,-1.9135,-1.942,-1.8572,-1.8352,-1.9225,-1.9236,-1.8696,-1.8609,-1.8752,-1.8961,-1.9976,-2.0106,-1.9857,-2.0862,-2.0429,-2.0006,-2.98,-3.0344,-3.0018,-3.0425,-3.1353,-3.0717,-3.0881,-3.1614,-3.1336,-3.1485,-3.1864,-3.1969,-3.2057,-3.2194,-3.2229,-3.2638,-3.3351,-3.3629,-3.3895,-3.4106,-3.413,-3.4157,-3.424,-3.4269,-3.4221,-3.4083,-3.3876,-3.3702,-3.3558,-3.3424,-3.3182,-3.2816,-3.2816,-3.2644,-3.2423,-3.2258,-3.1969,-3.1668,-3.1257,-3.0751,-3.0186,-3.0074,-2.9629,-2.898,-2.9178,-2.9403,-2.9345,-2.9225,-2.9088,-2.9088,-2.8904,-2.8904,-2.9088,-2.8904,-2.8904,-2.9042,-2.8904,-2.8701,-2.8481,-2.8449,-2.8146,-2.757,-2.7485,-2.7297,-2.6916,-2.6443,-2.6176,-2.6,-2.5508,-2.5063,-2.4937,-2.4584,-2.4469,-2.4881,-2.5063,-2.4908,-2.4667,-2.3975,-2.3433,-2.2942,-2.2212,-2.1581,-2.1346,-2.0939,-2.0707,-2.059,-2.0182,-1.976,-1.964,-1.8706,-1.7842,-1.7133,-1.66,-1.5913,-1.5492,-1.666,-1.7483,-1.6807,-1.6835,-1.7531,-1.7736,-1.6766,-1.6549,-1.7493,-1.7493,-1.6876,-1.66,-1.6807,-1.7542,-1.8752,-1.8419,-1.79,-1.8372,-1.8619,-1.8088,-2.9364,-2.9396,-2.9377,-2.9428,-2.9669,-2.9611,-2.9685,-3.0161,-3.017,-3.0425,-3.0762,-3.083,-3.1079,-3.1472,-3.1539,-3.1668,-3.1742,-3.2346,-3.2769,-3.2936,-3.2936,-3.3055,-3.325,-3.3063,-3.2872,-3.2757,-3.262,-3.2426,-3.2317,-3.1967,-3.146,-3.0929,-3.1005,-3.1042,-3.0777,-3.0526,-3.0154,-3.002,-2.9735,-2.921,-2.8638,-2.9011,-2.8732,-2.768,-2.7505,-2.7954,-2.9102,-2.867,-2.8415,-2.8415,-2.7944,-2.7894,-2.8271,-2.7879,-2.7845,-2.8222,-2.7894,-2.7291,-2.6707,-2.6654,-2.64,-2.5863,-2.555,-2.5714,-2.5714,-2.5508,-2.5329,-2.5148,-2.461,-2.4163,-2.3859,-2.2882,-2.2652,-2.393,-2.4092,-2.3682,-2.3113,-2.2372,-2.1553,-2.0887,-2.0429,-2.0515,-2.0515,-2.0041,-1.9771,-1.9564,-1.8752,-1.7861,-1.7803,-1.6729,-1.5579,-1.5296,-1.4996,-1.4419,-1.4371,-1.445,-1.4791,-1.5005,-1.5438,-1.593,-1.607,-1.5508,-1.528,-1.5808,-1.5126,-1.4585,-1.5238,-1.5379,-1.5255,-1.6,-1.5685,-1.6053,-1.6549,-1.6798,-1.6061,-2.8002,-2.8296,-2.7893,-2.8576,-2.972,-2.9449,-2.965,-3.0245,-3.029,-3.0117,-2.987,-2.9837,-2.9966,-3.0061,-3.011,-3.0136,-3.0086,-3.0392,-3.1031,-3.1812,-3.1967,-3.2051,-3.2033,-3.1741,-3.1227,-3.0867,-3.1106,-3.1222,-3.117,-3.0984,-3.087,-3.0738,-3.0627,-3.0538,-3.0071,-3.0054,-2.9691,-2.8973,-2.9236,-2.8639,-2.7229,-2.7694,-2.736,-2.6254,-2.6065,-2.625,-2.6605,-2.6923,-2.7378,-2.7795,-2.724,-2.693,-2.6953,-2.6481,-2.6414,-2.6953,-2.6467,-2.6054,-2.5783,-2.5728,-2.5605,-2.5398,-2.5342,-2.5398,-2.5342,-2.4838,-2.4355,-2.3781,-2.311,-2.247,-2.183,-2.1342,-2.1467,-2.2543,-2.2151,-2.1768,-2.1404,-2.1089,-2.03,-1.9083,-1.8742,-1.8208,-1.7269,-1.6995,-1.7201,-1.7192,-1.6513,-1.6105,-1.5904,-1.5413,-1.4879,-1.4378,-1.3787,-1.2896,-1.2538,-1.2171,-1.2091,-1.2816,-1.3476,-1.3917,-1.4068,-1.4068,-1.3917,-1.3606,-1.2868,-1.2788,-1.3512,-1.3663,-1.3461,-1.3973,-1.4466,-1.4854,-1.533,-1.4879,-1.403,-2.6358,-2.6955,-2.6652,-2.7451,-2.8832,-2.8504,-2.8685,-2.904,-2.8756,-2.8447,-2.8217,-2.802,-2.8079,-2.8276,-2.8482,-2.8435,-2.8309,-2.8482,-2.8955,-2.9739,-3.0583,-3.0791,-3.0752,-3.049,-3.0152,-2.9665,-2.9452,-2.9615,-2.9988,-2.8778,-2.8241,-2.8564,-2.8075,-2.7736,-2.7779,-2.7825,-2.7516,-2.7305,-2.7629,-2.7098,-2.5977,-2.6246,-2.6115,-2.5037,-2.4657,-2.484,-2.5273,-2.5037,-2.5342,-2.6414,-2.6336,-2.6108,-2.6068,-2.5673,-2.5618,-2.5837,-2.5673,-2.5287,-2.5021,-2.4684,-2.4513,-2.4469,-2.3981,-2.3794,-2.3865,-2.342,-2.2664,-2.2164,-2.1705,-2.1175,-2.0719,-2.0268,-2.0311,-2.0331,-2.0621,-2.0246,-1.9836,-1.9564,-1.8752,-1.7464,-1.6927,-1.6314,-1.557,-1.5163,-1.5163,-1.5163,-1.4879,-1.4363,-1.4212,-1.3765,-1.3128,-1.2405,-1.1582,-1.092,-1.0409,-0.9965,-0.9518,-1.0404,-1.1354,-1.1723,-1.2018,-1.1803,-1.1582,-1.1495,-1.0971,-1.0896,-1.1409,-1.1341,-1.1273,-1.2218,-1.2556,-1.2451,-1.2245,-1.2458,-1.1924,-2.4658,-2.5431,-2.5493,-2.6021,-2.687,-2.687,-2.6936,-2.6854,-2.6169,-2.5968,-2.6065,-2.5795,-2.5772,-2.6208,-2.6425,-2.6315,-2.6237,-2.6315,-2.6418,-2.6688,-2.7567,-2.8264,-2.8482,-2.8405,-2.8433,-2.8487,-2.7246,-2.721,-2.7798,-2.5236,-2.403,-2.4943,-2.3834,-2.3315,-2.4233,-2.4112,-2.4399,-2.5052,-2.519,-2.4732,-2.3922,-2.4687,-2.4687,-2.3806,-2.3213,-2.3416,-2.4187,-2.3009,-2.2997,-2.4896,-2.5287,-2.5342,-2.5356,-2.5287,-2.498,-2.5092,-2.5148,-2.4513,-2.4008,-2.3263,-2.2905,-2.2834,-2.183,-2.091,-2.1791,-2.153,-2.0951,-2.0696,-2.044,-2.0311,-1.9987,-1.9333,-1.8583,-1.814,-1.8874,-1.9017,-1.7986,-1.7726,-1.6986,-1.5703,-1.5163,-1.5021,-1.4807,-1.4728,-1.4577,-1.4434,-1.3715,-1.2837,-1.2245,-1.1508,-1.0484,-0.9965,-0.9809,-0.9195,-0.8817,-0.8053,-0.7524,-0.7275,-0.8397,-0.908,-0.9611,-0.9471,-0.9246,-0.917,-0.8878,-0.8969,-0.8964,-0.8718,-0.8713,-0.8995,-0.9155,-0.9054,-0.9271,-0.9611,-0.975,-2.3838,-2.4061,-2.4061,-2.4584,-2.5345,-2.5413,-2.5473,-2.5563,-2.5318,-2.4834,-2.4644,-2.4195,-2.3952,-2.4059,-2.3302,-2.3148,-2.3412,-2.3097,-2.3321,-2.3469,-2.2649,-2.3328,-2.4267,-2.4544,-2.4586,-2.445,-2.3415,-2.3026,-2.3284,-2.163,-2.1296,-2.2303,-2.1052,-2.1378,-2.2774,-2.1632,-2.1704,-2.2491,-2.2499,-2.2188,-2.1735,-2.2262,-2.2274,-2.1596,-2.1307,-2.142,-2.1856,-2.1244,-2.172,-2.3475,-2.4297,-2.458,-2.4368,-2.3539,-2.3157,-2.3416,-2.2566,-2.1868,-2.1694,-2.1444,-2.1267,-2.1215,-2.0782,-2.0719,-2.091,-2.0719,-2.0268,-1.9738,-1.9048,-1.8352,-1.7697,-1.6886,-1.6253,-1.6044,-1.6513,-1.6582,-1.6105,-1.5834,-1.5429,-1.4314,-1.4091,-1.373,-1.3222,-1.2551,-1.2171,-1.1951,-1.144,-1.0634,-1.0254,-1.0029,-0.9372,-0.914,-0.8832,-0.791,-0.7141,-0.6297,-0.5449,-0.4516,-0.5043,-0.5956,-0.6561,-0.6942,-0.6863,-0.6779,-0.6113,-0.5973,-0.5883,-0.5797,-0.588,-0.6273,-0.6569,-0.6954,-0.7019,-0.7223,-0.7227,-2.1834,-2.2211,-2.2691,-2.3143,-2.3553,-2.3553,-2.3647,-2.3653,-2.3315,-2.3052,-2.2673,-2.2083,-2.1654,-2.124,-2.0053,-1.9684,-2.0028,-1.9062,-1.8882,-1.8935,-1.7402,-1.8004,-1.9756,-2.0316,-2.0316,-2.0193,-1.9113,-1.868,-1.8595,-1.7451,-1.7174,-1.7486,-1.7062,-1.7458,-1.8485,-1.8376,-1.8352,-1.9244,-1.9606,-1.9512,-1.8955,-1.963,-1.949,-1.9107,-1.9215,-1.9509,-1.9552,-2.0204,-2.1078,-2.1918,-2.2494,-2.2749,-2.2688,-2.1904,-2.1592,-2.1906,-2.1066,-2.0643,-2.0526,-2.0333,-2.0268,-2.0333,-2.0074,-1.953,-1.9378,-1.917,-1.8583,-1.7639,-1.7064,-1.6591,-1.5992,-1.5155,-1.4665,-1.4593,-1.4235,-1.4163,-1.4522,-1.4593,-1.4091,-1.3375,-1.2718,-1.2345,-1.1694,-1.0789,-1.034,-1.0115,-0.9965,-0.9372,-0.8841,-0.8694,-0.8228,-0.7685,-0.7141,-0.6217,-0.5443,-0.4673,-0.4288,-0.3278,-0.281,-0.3579,-0.4117,-0.4727,-0.4727,-0.4496,-0.3583,-0.32,-0.3501,-0.3805,-0.4196,-0.458,-0.4722,-0.4796,-0.487,-0.4865,-0.4865,-1.9316,-2.011,-2.1161,-2.1501,-2.1343,-2.1408,-2.1312,-2.1247,-2.0562,-2.0384,-2.0346,-1.9606,-1.8777,-1.8154,-1.675,-1.6093,-1.5998,-1.4854,-1.3924,-1.3215,-1.2102,-1.2346,-1.3749,-1.5349,-1.5787,-1.5683,-1.4494,-1.4185,-1.3918,-1.2438,-1.1982,-1.2417,-1.2009,-1.2155,-1.3342,-1.3831,-1.4641,-1.5643,-1.6541,-1.6742,-1.6482,-1.7079,-1.7233,-1.694,-1.7309,-1.7629,-1.8075,-1.9013,-2.0041,-2.0106,-2.0398,-2.0835,-2.0782,-2.059,-2.0462,-2.0375,-2.0106,-1.9846,-1.9912,-1.9069,-1.9003,-1.9246,-1.8277,-1.7687,-1.7552,-1.7083,-1.648,-1.579,-1.5155,-1.5013,-1.4728,-1.4019,-1.352,-1.323,-1.2579,-1.2652,-1.3011,-1.3302,-1.3011,-1.2144,-1.1168,-1.0789,-1.0415,-0.982,-0.9145,-0.8988,-0.8533,-0.7609,-0.7073,-0.6681,-0.6066,-0.522,-0.4756,-0.429,-0.3669,-0.3046,-0.2812,-0.2345,-0.1722,-0.1876,-0.2343,-0.273,-0.2731,-0.2501,-0.1955,-0.1956,-0.2266,-0.2577,-0.2653,-0.2653,-0.2725,-0.2728,-0.2807,-0.2803,-0.2801,-1.7811,-1.7954,-1.8195,-1.8266,-1.8249,-1.8329,-1.832,-1.8231,-1.8026,-1.794,-1.782,-1.6656,-1.5913,-1.5553,-1.3466,-1.2267,-1.1846,-1.0743,-0.928,-0.6744,-0.6374,-0.4889,-0.5414,-0.8159,-1.0521,-1.0331,-0.9618,-0.9187,-0.8827,-0.819,-0.7913,-0.837,-0.786,-0.8282,-0.961,-0.9532,-1.0166,-1.165,-1.2813,-1.3667,-1.4245,-1.4993,-1.5441,-1.5404,-1.5685,-1.5773,-1.6,-1.6886,-1.7434,-1.79,-1.9246,-2.0182,-2.0193,-1.9814,-1.9475,-1.9135,-1.819,-1.7571,-1.7366,-1.6886,-1.6201,-1.66,-1.6401,-1.579,-1.5781,-1.5641,-1.5446,-1.5021,-1.4522,-1.3738,-1.3084,-1.2799,-1.2204,-1.1681,-1.131,-1.0864,-1.0565,-1.1001,-1.1007,-1.034,-0.982,-0.9593,-0.9518,-0.8609,-0.808,-0.7927,-0.7,-0.5844,-0.53,-0.4908,-0.429,-0.3595,-0.3361,-0.3047,-0.2267,-0.172,-0.1329,-0.1016,-0.047,-0.0078,-0.0469,-0.0704,-0.0781,-0.0704,-0.0549,-0.0627,-0.0625,-0.0626,-0.0625,-0.0627,-0.0705,-0.0783,-0.0782,-0.0705,-0.1097,-1.4939,-1.4939,-1.5434,-1.5434,-1.4946,-1.4946,-1.4939,-1.4939,-1.4946,-1.4946,-1.4738,-1.3988,-1.3092,-1.1981,-1.0038,-0.8603,-0.7049,-0.5562,-0.3746,-0.1994,-0.1606,-0.0538,0.0849,-0.1065,-0.3163,-0.4315,-0.4336,-0.3819,-0.3366,-0.3297,-0.3222,-0.3364,-0.3224,-0.3986,-0.5475,-0.5518,-0.6432,-0.778,-0.9324,-1.0399,-1.0899,-1.1832,-1.3107,-1.3765,-1.4219,-1.4665,-1.5305,-1.5649,-1.593,-1.6262,-1.7338,-1.8352,-1.8639,-1.8325,-1.7852,-1.7229,-1.6618,-1.5939,-1.579,-1.5517,-1.5305,-1.5163,-1.5163,-1.4879,-1.4665,-1.453,-1.4235,-1.3875,-1.3302,-1.2659,-1.1694,-1.1025,-1.0571,-1.034,-1.0115,-0.9658,-0.8974,-0.9432,-0.997,-0.9296,-0.8922,-0.8371,-0.7761,-0.6996,-0.6146,-0.5523,-0.5212,-0.421,-0.4213,-0.3744,-0.3202,-0.2659,-0.2503,-0.2035,-0.1097,-0.0392,0.0235,0.0626,0.1173,0.1485,0.1484,0.1329,0.1252,0.1097,0.0784,0.1408,0.1484,0.1487,0.1253,0.1408,0.1329,0.1253,0.1019,0.0705,0.0157,-1.1991,-1.2076,-1.2974,-1.2813,-1.207,-1.2076,-1.2076,-1.1991,-1.1725,-1.1804,-1.1544,-1.1373,-0.9871,-0.8336,-0.6767,-0.4725,-0.2272,-0.0245,0.1273,0.2493,0.2644,0.3339,0.4112,0.416,0.345,0.1544,0.1,0.1387,0.1543,0.147,0.1231,0.1855,0.139,0.0308,-0.0695,-0.1697,-0.2769,-0.4083,-0.6156,-0.7546,-0.8014,-0.8949,-1.0387,-1.1951,-1.2691,-1.3578,-1.4299,-1.4807,-1.495,-1.495,-1.5076,-1.5562,-1.593,-1.628,-1.607,-1.5296,-1.5163,-1.5021,-1.4879,-1.4736,-1.4585,-1.4736,-1.4665,-1.4307,-1.3665,-1.323,-1.2858,-1.2352,-1.1848,-1.1391,-1.0634,-1.0121,-0.9448,-0.9064,-0.8993,-0.8367,-0.7744,-0.7982,-0.7901,-0.8219,-0.7141,-0.6213,-0.5752,-0.506,-0.4133,-0.3279,-0.3046,-0.289,-0.289,-0.2578,-0.1956,-0.1644,-0.141,-0.0861,0.0,0.0939,0.1565,0.1878,0.2501,0.2734,0.3046,0.2969,0.2657,0.2268,0.219,0.2656,0.2812,0.25,0.2578,0.3124,0.289,0.2189,0.1956,0.1957,0.141,-1.0854,-1.0854,-1.1101,-1.1021,-1.0854,-1.0854,-1.0758,-1.0677,-0.9688,-0.9329,-0.8979,-0.732,-0.6355,-0.5303,-0.3537,-0.087,0.1783,0.3733,0.5281,0.653,0.6809,0.7239,0.7698,0.8183,0.8023,0.7487,0.6301,0.56,0.5387,0.531,0.5078,0.531,0.5081,0.439,0.3317,0.2466,0.0848,-0.0852,-0.3165,-0.486,-0.603,-0.758,-0.9115,-1.0691,-1.1224,-1.1896,-1.2712,-1.352,-1.3954,-1.4019,-1.4727,-1.4743,-1.4498,-1.4942,-1.5084,-1.4879,-1.4307,-1.3954,-1.389,-1.3302,-1.2952,-1.2806,-1.2865,-1.2872,-1.2432,-1.1829,-1.1378,-1.1013,-1.0346,-0.9744,-0.9599,-0.8988,-0.8689,-0.8075,-0.7141,-0.6364,-0.5526,-0.4982,-0.498,-0.5449,-0.4675,-0.4055,-0.3822,-0.3589,-0.3044,-0.2423,-0.2034,-0.1878,-0.1801,-0.1253,-0.047,-0.0314,-0.0314,0.0392,0.1176,0.2111,0.2812,0.2891,0.3281,0.3511,0.3824,0.4139,0.4062,0.413,0.3667,0.3359,0.3435,0.3435,0.3515,0.3826,0.3435,0.3044,0.3047,0.3129,0.2813,-0.879,-0.879,-0.879,-0.879,-0.8703,-0.8165,-0.7899,-0.772,-0.6649,-0.5753,-0.5039,-0.3986,-0.2747,-0.1595,-0.0621,0.2011,0.4964,0.7195,0.8401,0.9223,0.9541,0.9823,1.047,1.1043,1.1483,1.1451,1.0948,0.9755,0.8585,0.7934,0.8147,0.8369,0.8081,0.7255,0.6176,0.5095,0.3863,0.2089,0.0077,-0.1779,-0.3333,-0.557,-0.7888,-0.8974,-0.9814,-1.0271,-1.0645,-1.1087,-1.1668,-1.2178,-1.2656,-1.2889,-1.299,-1.2931,-1.3201,-1.3513,-1.323,-1.3025,-1.2952,-1.2519,-1.2378,-1.2298,-1.1848,-1.1545,-1.1316,-1.0714,-1.004,-0.9739,-0.914,-0.8304,-0.7749,-0.7294,-0.6451,-0.56,-0.49,-0.4441,-0.3826,-0.289,-0.2813,-0.3129,-0.3203,-0.2968,-0.2503,-0.2268,-0.2034,-0.1566,-0.1097,-0.0941,-0.0784,0.0,0.0784,0.0941,0.1097,0.1722,0.2426,0.3205,0.3904,0.3982,0.4217,0.4448,0.4988,0.5461,0.63,0.69,0.6056,0.4678,0.4841,0.5157,0.4921,0.4763,0.4838,0.4838,0.4453,0.4219,0.4215,-0.6422,-0.6422,-0.6422,-0.6425,-0.6245,-0.5445,-0.4907,-0.4459,-0.3474,-0.2313,-0.1066,-0.0444,0.0798,0.2217,0.3358,0.5165,0.8268,1.0475,1.126,1.192,1.2264,1.2338,1.2619,1.3167,1.3875,1.3856,1.4094,1.3973,1.1965,1.1021,1.1033,1.131,1.0828,0.9782,0.876,0.7774,0.6481,0.4804,0.3496,0.1945,-0.0544,-0.349,-0.621,-0.7468,-0.8461,-0.9069,-0.9523,-0.9674,-0.9965,-1.0409,-1.0691,-1.092,-1.1391,-1.095,-1.0875,-1.1545,-1.17,-1.1848,-1.2224,-1.1626,-1.1477,-1.1768,-1.1013,-1.064,-1.0265,-0.9593,-0.8761,-0.838,-0.7689,-0.6612,-0.5671,-0.4908,-0.4213,-0.3589,-0.32,-0.2735,-0.2581,-0.1957,-0.1174,-0.1409,-0.1954,-0.1799,-0.1253,-0.1254,-0.1097,-0.0705,-0.0235,0.0235,0.047,0.1252,0.1957,0.219,0.2501,0.3047,0.3673,0.4377,0.4844,0.5076,0.5312,0.5625,0.624,0.6938,0.7621,0.799,0.7387,0.6237,0.6563,0.6872,0.6853,0.6846,0.6865,0.6468,0.5665,0.5992,0.6479,-0.4014,-0.4014,-0.4014,-0.4016,-0.4014,-0.3837,-0.3117,-0.2134,-0.0979,0.0267,0.151,0.3279,0.4343,0.5222,0.7058,0.9809,1.2114,1.3188,1.3981,1.4946,1.5521,1.5613,1.5654,1.5454,1.5732,1.5689,1.5488,1.5084,1.4442,1.4227,1.4204,1.4204,1.3765,1.3389,1.1107,0.9825,0.8689,0.651,0.5696,0.3744,0.0467,-0.2174,-0.4267,-0.5973,-0.7145,-0.8075,-0.8604,-0.868,-0.9059,-0.9367,-0.9482,-0.9557,-0.9593,-0.9554,-0.9549,-0.9604,-0.982,-1.0351,-1.1477,-1.0875,-1.0271,-1.0645,-1.004,-0.9599,-0.8908,-0.83,-0.7153,-0.5306,-0.5151,-0.4758,-0.3975,-0.3433,-0.32,-0.2734,-0.2111,-0.1879,-0.1568,-0.0862,-0.0078,0.0469,0.0078,-0.0078,0.0157,0.0,-0.0078,0.0314,0.0706,0.1176,0.1645,0.2425,0.3205,0.3517,0.3828,0.4375,0.4608,0.5315,0.578,0.6015,0.6177,0.6563,0.7553,0.8003,0.7706,0.7851,0.7706,0.8237,0.8689,0.8912,0.8912,0.8613,0.8161,0.7423,0.6449,0.7271,0.8231,-0.1695,-0.357,-0.2852,-0.2941,-0.3299,-0.1512,-0.0711,-0.0356,0.1247,0.2761,0.3829,0.4807,0.6045,0.7621,0.9712,1.1519,1.3153,1.442,1.5367,1.6557,1.7195,1.7613,1.752,1.7667,1.7759,1.7608,1.7407,1.7309,1.6865,1.584,1.5234,1.5234,1.4665,1.3506,1.2398,1.076,0.9336,0.7753,0.6227,0.421,0.1864,-0.0233,-0.2096,-0.3569,-0.4663,-0.5752,-0.6528,-0.6685,-0.7379,-0.7999,-0.8443,-0.8746,-0.8988,-0.8856,-0.8627,-0.9226,-0.8161,-0.8618,-1.0051,-0.9599,-0.9599,-0.9518,-0.8988,-0.7918,-0.7073,-0.6304,-0.5532,-0.3979,-0.3824,-0.3279,-0.2503,-0.2268,-0.18,-0.1409,-0.1097,-0.0862,-0.0471,0.0392,0.1099,0.1643,0.2109,0.1876,0.1799,0.1878,0.1721,0.1643,0.1956,0.2347,0.2815,0.3439,0.4297,0.5079,0.5315,0.555,0.5628,0.5944,0.6553,0.671,0.6331,0.7096,0.8604,0.9059,0.8685,0.9362,1.0265,1.0645,1.087,1.0196,0.9518,0.9372,0.9296,0.8808,0.8259,0.785,0.8935,0.0179,-0.2051,-0.0978,-0.0978,-0.1514,0.1156,0.1957,0.1691,0.3209,0.473,0.58,0.6587,0.8078,1.0173,1.2225,1.3497,1.3833,1.5674,1.6585,1.7379,1.8048,1.8843,1.8907,1.9257,1.9462,1.9839,1.9213,1.9062,1.8592,1.7685,1.6767,1.5965,1.5658,1.4371,1.2924,1.1575,1.0226,0.8456,0.6773,0.5063,0.3344,0.1399,-0.0078,-0.1322,-0.2414,-0.3513,-0.4139,-0.4373,-0.5375,-0.6538,-0.6927,-0.7306,-0.8008,-0.7783,-0.771,-0.7936,-0.7099,-0.7099,-0.8161,-0.8389,-0.8694,-0.8466,-0.7693,-0.6388,-0.5306,-0.453,-0.3828,-0.2813,-0.2735,-0.219,-0.1489,-0.1176,-0.0941,-0.0392,0.0078,0.0235,0.0549,0.1413,0.2273,0.2969,0.3433,0.3742,0.3746,0.3826,0.3671,0.3202,0.3279,0.3515,0.4059,0.4608,0.5079,0.5864,0.6018,0.6328,0.671,0.6868,0.7399,0.7553,0.7173,0.7553,0.9059,0.9664,0.9518,1.0645,1.1996,1.1922,1.1397,1.0645,1.0051,1.0426,1.0738,1.0732,1.0329,0.9798,0.9825,0.17,0.152,0.2765,0.3032,0.2853,0.3301,0.4103,0.4548,0.5087,0.6065,0.739,0.9218,1.1289,1.336,1.4518,1.5764,1.6838,1.823,1.8939,1.9659,2.044,2.0517,2.0523,2.0426,2.0487,2.106,2.0828,2.0642,2.0529,1.995,1.8944,1.7978,1.7079,1.6281,1.4854,1.302,1.081,0.8978,0.7391,0.6388,0.4593,0.2722,0.1089,-0.0234,-0.1871,-0.3124,-0.32,-0.3202,-0.3748,-0.4993,-0.5148,-0.5461,-0.6237,-0.624,-0.6318,-0.6244,-0.6167,-0.6015,-0.6395,-0.6707,-0.7015,-0.7011,-0.623,-0.4919,-0.4219,-0.3593,-0.2813,-0.1879,-0.1722,-0.1254,-0.0549,-0.0078,-0.0157,0.0314,0.0784,0.1176,0.1647,0.2433,0.3292,0.4142,0.4683,0.4838,0.5074,0.5079,0.4766,0.4297,0.4375,0.4686,0.5309,0.5783,0.6015,0.6409,0.6486,0.6868,0.7629,0.7936,0.8237,0.8613,0.8537,0.8765,0.9593,0.99,1.0121,1.0795,1.1768,1.1842,1.199,1.1545,1.1397,1.1922,1.2061,1.1853,1.2035,1.1891,1.2091,0.4463,0.5087,0.5531,0.4905,0.3748,0.5171,0.5622,0.5714,0.6946,0.8173,0.9396,1.1616,1.3153,1.4343,1.5944,1.6846,1.7568,1.914,2.0012,2.0864,2.1486,2.2252,2.2274,2.2136,2.2323,2.2529,2.2298,2.2094,2.2013,2.1414,2.06,1.9554,1.8385,1.6643,1.5229,1.3643,1.1286,0.9432,0.8169,0.7242,0.6458,0.3973,0.2339,0.1793,-0.0156,-0.1487,-0.2034,-0.219,-0.2815,-0.3437,-0.3671,-0.4062,-0.4453,-0.453,-0.453,-0.453,-0.4533,-0.453,-0.4686,-0.4921,-0.5229,-0.4675,-0.4133,-0.3515,-0.3129,-0.2425,-0.1644,-0.1019,0.0,-0.0392,-0.0157,0.0,0.0157,0.0784,0.141,0.1958,0.2662,0.3528,0.4077,0.4844,0.5389,0.5783,0.5941,0.6103,0.5709,0.5392,0.5628,0.586,0.6405,0.6945,0.7099,0.7326,0.7399,0.7855,0.8613,0.8917,0.9145,0.9448,0.9825,1.0121,1.0421,1.034,1.0714,1.1242,1.1694,1.2137,1.2365,1.2439,1.2466,1.258,1.2627,1.2645,1.3041,1.3548,1.3729,0.5891,0.6694,0.7401,0.6508,0.4994,0.6773,0.7217,0.6858,0.8528,1.0009,1.1203,1.3146,1.4232,1.4989,1.6732,1.8035,1.8735,2.0062,2.0901,2.1748,2.2702,2.3457,2.349,2.3497,2.3369,2.3773,2.3729,2.3461,2.2927,2.2023,2.1174,2.0102,1.8904,1.7343,1.5341,1.3447,1.1571,1.0073,0.917,0.8165,0.7536,0.552,0.3431,0.2965,0.1174,-0.0078,-0.0862,-0.1176,-0.1645,-0.2268,-0.2737,-0.2812,-0.3046,-0.3124,-0.3124,-0.3124,-0.3124,-0.3046,-0.3279,-0.3593,-0.3904,-0.3589,-0.2965,-0.2345,-0.1802,-0.1333,-0.0706,0.0,0.0,0.0157,0.0314,0.0628,0.1097,0.1801,0.2659,0.3283,0.375,0.4457,0.4849,0.5392,0.5864,0.618,0.6257,0.6335,0.6331,0.617,0.6553,0.6707,0.7015,0.7629,0.8161,0.8389,0.8613,0.914,0.9669,0.982,1.004,1.0795,1.1099,1.1174,1.1397,1.1236,1.1236,1.17,1.2218,1.2659,1.2707,1.2621,1.2797,1.2973,1.3217,1.3533,1.34,1.3797,1.4062,0.5447,0.5711,0.7834,0.8013,0.7044,0.836,0.8798,0.8794,1.0005,1.1209,1.2407,1.3736,1.483,1.6003,1.7971,1.9158,1.9993,2.1237,2.2081,2.2765,2.3356,2.3526,2.3683,2.3879,2.4446,2.485,2.4826,2.4483,2.3727,2.3134,2.206,2.071,1.9681,1.8227,1.6103,1.391,1.2273,1.1301,1.0796,0.9606,0.8141,0.6574,0.4927,0.3219,0.1959,0.0706,-0.0078,0.0,0.0,-0.1411,-0.1645,-0.1956,-0.25,-0.2578,-0.2656,-0.2734,-0.2812,-0.289,-0.2968,-0.3124,-0.289,-0.2579,-0.1877,-0.1488,-0.1333,-0.0784,-0.0078,0.0,0.0,0.0706,0.1098,0.1646,0.219,0.2893,0.375,0.4297,0.4844,0.5234,0.5628,0.5786,0.6022,0.6338,0.6335,0.6412,0.6567,0.6791,0.7326,0.7629,0.7855,0.8456,0.914,0.9518,0.9744,1.0271,1.0714,1.0714,1.1087,1.1848,1.215,1.2003,1.2003,1.1922,1.2003,1.2378,1.2666,1.3091,1.2998,1.2832,1.364,1.4441,1.4372,1.4481,1.4225,1.4111,1.4448,0.6514,0.6605,0.7401,0.7929,0.836,0.9492,1.0009,1.0265,1.1209,1.2419,1.3704,1.535,1.6332,1.7407,1.8868,2.0226,2.0672,2.1486,2.2403,2.2702,2.3818,2.4409,2.4624,2.5063,2.5581,2.5873,2.5955,2.5734,2.5545,2.4108,2.3261,2.219,2.0033,1.8199,1.6368,1.4652,1.3487,1.2557,1.1757,1.0678,0.9142,0.7359,0.5486,0.3436,0.2294,0.126,0.0237,0.0,0.0,0.0,0.0,0.0,0.0,0.0,0.0,0.0,0.0,-0.1019,-0.1019,-0.1019,-0.1019,-0.094,-0.0784,-0.0549,-0.0471,-0.0235,0.0314,0.0863,0.1019,0.1645,0.2347,0.2501,0.3047,0.3828,0.4611,0.5082,0.555,0.5864,0.618,0.6103,0.6261,0.6868,0.7173,0.7553,0.7706,0.7778,0.8309,0.8537,0.8765,0.9583,1.0335,1.064,1.0944,1.1397,1.1694,1.1545,1.1687,1.2218,1.2372,1.2231,1.2231,1.2666,1.2879,1.3171,1.3382,1.3535,1.405,1.468,1.5575,1.6134,1.5643,1.5442,1.5292,1.5011,1.4887,0.7316,0.7753,0.8185,0.8969,1.0009,1.0438,1.0961,1.1821,1.2595,1.3548,1.4894,1.6519,1.7504,1.8301,1.959,2.0934,2.1155,2.2038,2.2925,2.322,2.4696,2.5358,2.5804,2.6094,2.6233,2.6383,2.6025,2.5721,2.4981,2.3661,2.268,2.1628,2.0178,1.8337,1.6715,1.5474,1.4281,1.322,1.2172,1.0941,0.9616,0.8023,0.6192,0.448,0.3159,0.225,0.1125,0.0562,0.0,0.0,0.0,0.0,0.0,0.0,0.0,0.0,0.0,0.0,0.0,0.0,0.0,0.047,0.0549,0.0549,0.0706,0.1018,0.1487,0.1956,0.2113,0.2737,0.3437,0.3593,0.3982,0.4766,0.5392,0.5864,0.6099,0.6412,0.6945,0.6872,0.7249,0.7778,0.8161,0.8613,0.8993,0.914,0.9367,0.9518,0.9744,1.049,1.1162,1.1391,1.1626,1.1848,1.2077,1.2077,1.2298,1.2739,1.2813,1.2806,1.3382,1.3882,1.3954,1.4034,1.425,1.4776,1.5861,1.6659,1.6877,1.6731,1.6181,1.6144,1.627,1.5974,1.5604,0.7925,0.9061,1.0178,1.1128,1.198,1.13,1.2083,1.3997,1.4082,1.4734,1.5696,1.6846,1.798,1.9036,2.0079,2.0924,2.1593,2.2627,2.3231,2.4337,2.4981,2.5652,2.5943,2.6164,2.6164,2.5955,2.5511,2.4624,2.3599,2.2776,2.1821,2.0847,1.9747,1.8356,1.7095,1.5916,1.4691,1.3581,1.2669,1.1432,1.008,0.8928,0.7087,0.5499,0.4483,0.3476,0.2483,0.1824,0.1318,0.0,0.0,0.0,0.0,0.0,0.0,0.0,0.0,0.0,0.0,0.0,0.0,0.1488,0.18,0.1721,0.18,0.2188,0.2577,0.2968,0.3205,0.3906,0.453,0.4686,0.4841,0.5547,0.6173,0.6486,0.6641,0.7022,0.7633,0.8089,0.8765,0.9221,0.9291,0.9744,1.0271,1.0496,1.0565,1.064,1.0864,1.1323,1.1842,1.1922,1.2077,1.2157,1.2305,1.2452,1.2813,1.3171,1.3665,1.3875,1.4522,1.495,1.4879,1.4958,1.5267,1.5977,1.7097,1.7521,1.7484,1.7276,1.7498,1.675,1.6802,1.6664,1.6167,0.9831,1.0183,1.0438,1.1295,1.2328,1.2863,1.3476,1.4166,1.481,1.5455,1.5786,1.7738,1.855,1.9116,2.0079,2.0702,2.1078,2.1308,2.1461,2.2489,2.4024,2.4253,2.4696,2.5146,2.537,2.5146,2.4552,2.3745,2.3368,2.2403,2.1451,2.0624,1.952,1.8399,1.722,1.6172,1.5083,1.4054,1.3271,1.2058,1.082,0.9824,0.7942,0.631,0.5412,0.4384,0.3455,0.3117,0.2677,0.2499,0.1662,0.1321,0.1237,0.0,0.0,0.0,0.0,0.0,0.0941,0.1097,0.1567,0.2581,0.3203,0.3203,0.3046,0.3124,0.3667,0.3982,0.4297,0.4844,0.5392,0.5705,0.5857,0.6247,0.6949,0.7484,0.771,0.8161,0.8765,0.9291,0.997,1.0271,1.0415,1.087,1.1403,1.1694,1.1842,1.1768,1.1768,1.207,1.2224,1.2305,1.2378,1.2378,1.2666,1.2879,1.3244,1.3673,1.4307,1.4871,1.5234,1.5517,1.5658,1.6034,1.6625,1.7396,1.8439,1.8572,1.8665,1.9316,1.9464,1.8249,1.7276,1.7268,1.7374,1.0438,1.1209,1.13,1.1986,1.3027,1.3822,1.425,1.4734,1.4977,1.5462,1.6437,1.7658,1.8789,1.9678,2.0323,2.0644,2.0644,2.1221,2.1527,2.1886,2.2787,2.3745,2.4264,2.4337,2.4636,2.4337,2.3734,2.285,2.2702,2.1962,2.0924,1.9913,1.9204,1.806,1.6911,1.5928,1.513,1.4294,1.3444,1.2516,1.1582,1.0389,0.8381,0.7132,0.6275,0.5323,0.446,0.4291,0.4108,0.3744,0.2718,0.2534,0.2439,0.0,0.0,0.0,0.0,0.1835,0.2225,0.2201,0.282,0.3593,0.4377,0.453,0.4608,0.4686,0.4999,0.5237,0.5315,0.5628,0.6177,0.6725,0.6799,0.6949,0.7791,0.8632,0.9003,0.9372,0.9895,1.0496,1.0944,1.1242,1.162,1.2077,1.2305,1.215,1.215,1.2077,1.2077,1.215,1.2305,1.2305,1.2378,1.2452,1.2879,1.3528,1.4091,1.4665,1.5367,1.579,1.6018,1.6403,1.6797,1.7455,1.8119,1.8726,1.9203,1.9723,2.0005,2.0478,2.0576,1.9659,1.8674,1.8266,1.839,1.0611,1.2413,1.2413,1.3027,1.4004,1.425,1.4817,1.5538,1.4977,1.5553,1.7253,1.7577,1.8868,2.0157,2.0566,2.0576,2.0712,2.1145,2.1375,2.1952,2.2925,2.3818,2.4108,2.4108,2.4313,2.4024,2.3187,2.1878,2.1659,2.1145,2.0304,1.9045,1.8798,1.7819,1.6191,1.5545,1.4901,1.4159,1.3385,1.2595,1.1901,1.0514,0.9065,0.8615,0.772,0.6757,0.5874,0.5333,0.5046,0.4282,0.3811,0.3783,0.3413,0.329,0.3283,0.3257,0.2959,0.3177,0.331,0.3351,0.3864,0.4474,0.4851,0.5318,0.555,0.5628,0.5786,0.5864,0.5867,0.6251,0.6718,0.7257,0.7484,0.8012,0.8851,0.9377,0.975,1.0271,1.0944,1.1397,1.1626,1.1922,1.1922,1.2305,1.2305,1.2305,1.2305,1.2305,1.2305,1.2305,1.2592,1.2592,1.3025,1.3382,1.3738,1.4378,1.5084,1.572,1.6358,1.6862,1.7079,1.7508,1.8095,1.8397,1.8647,1.9224,1.9671,2.0137,2.04,2.0508,2.0576,2.0576,2.0079,1.9335,1.9381,1.313,1.3639,1.3646,1.3906,1.4166,1.497,1.5372,1.5779,1.6355,1.7261,1.855,1.9353,1.9913,2.0489,2.0576,2.0576,2.0712,2.0934,2.0934,2.1527,2.2563,2.3294,2.3868,2.3761,2.3906,2.3267,2.219,2.107,2.0971,2.0634,2.001,1.8957,1.839,1.7009,1.5621,1.5061,1.4412,1.4088,1.3737,1.3033,1.2334,1.1809,1.095,0.9575,0.8364,0.7665,0.6956,0.6599,0.6502,0.6204,0.532,0.4594,0.3698,0.364,0.3614,0.3596,0.3787,0.4165,0.4456,0.4639,0.4981,0.5571,0.594,0.6048,0.618,0.6257,0.6335,0.6335,0.649,0.6872,0.7253,0.7787,0.8399,0.915,0.9981,1.0201,1.049,1.1168,1.1922,1.215,1.2231,1.2305,1.2305,1.2305,1.2305,1.2305,1.2305,1.2305,1.2378,1.2519,1.3171,1.3455,1.4243,1.4593,1.4807,1.5226,1.586,1.6437,1.7001,1.751,1.794,1.8144,1.8291,1.8603,1.8965,1.9492,1.9941,2.0254,2.0469,2.0547,2.0576,2.0576,2.0576,2.0079,2.0196,1.3646,1.4088,1.4088,1.4088,1.425,1.4734,1.5462,1.6437,1.709,1.823,1.952,1.9923,2.0167,2.0489,2.0576,2.0576,2.0576,2.0566,2.0722,2.1088,2.168,2.2264,2.2744,2.3018,2.2818,2.2264,2.1394,2.0681,2.0634,2.0489,2.0001,1.855,1.7496,1.6601,1.5304,1.4412,1.4088,1.4088,1.4088,1.3646,1.2942,1.2419,1.1552,1.0091,0.9061,0.8277,0.758,0.7139,0.7139,0.7051,0.6419,0.6062,0.5502,0.5378,0.5269,0.5234,0.5344,0.5352,0.5655,0.5838,0.59,0.6401,0.65,0.6366,0.6416,0.649,0.6641,0.6718,0.7022,0.7403,0.8008,0.8542,0.9367,1.0196,1.0875,1.1397,1.1471,1.1774,1.215,1.2231,1.2305,1.2305,1.2305,1.2305,1.2305,1.2305,1.2305,1.2378,1.2445,1.2806,1.3528,1.4099,1.4807,1.5092,1.5084,1.572,1.6576,1.7148,1.7647,1.7794,1.8027,1.8223,1.8437,1.8818,1.9238,1.9736,2.0137,2.04,2.0498,2.0557,2.0576,2.0576,2.0576,2.0576,2.0596,1.3203,1.3997,1.4088,1.4166,1.4334,1.4334,1.5553,1.7342,1.7577,1.8709,2.0245,1.9678,1.9844,2.0333,2.0576,2.0576,2.0576,2.0576,2.0576,2.0644,2.0934,2.1745,2.1886,2.1745,2.192,2.1694,2.0931,2.0653,2.0566,2.0489,1.9678,1.79,1.7009,1.6363,1.4901,1.4166,1.4088,1.4088,1.4088,1.4088,1.3555,1.2942,1.1729,1.0611,0.9492,0.8364,0.7489,0.7139,0.7139,0.7051,0.6962,0.6782,0.6694,0.6584,0.6675,0.6546,0.6492,0.6525,0.6751,0.6561,0.6685,0.6824,0.668,0.6741,0.6787,0.7038,0.7265,0.748,0.7859,0.8232,0.8836,0.9362,1.026,1.1013,1.1694,1.2224,1.2224,1.2305,1.2305,1.2305,1.2305,1.2305,1.2305,1.2305,1.2305,1.2305,1.2378,1.2445,1.2659,1.331,1.3954,1.4522,1.5084,1.5296,1.5587,1.6219,1.7217,1.7432,1.7862,1.794,1.8076,1.8301,1.8633,1.9121,1.9561,1.9951,2.0254,2.0508,2.0566,2.0576,2.0576,2.0576,2.0576,2.0576,2.0576,1.3913,1.4088,1.4088,1.4573,1.5304,1.5379,1.6683,1.847,1.8638,1.9441,2.0245,2.0489,2.0489,2.0576,2.0576,2.0576,2.0576,2.0576,2.0576,2.0644,2.1078,2.1593,2.1886,2.1735,2.1816,2.1298,2.0767,2.0634,2.0576,2.0566,1.9991,1.863,1.7496,1.6683,1.5538,1.481,1.4088,1.4088,1.4088,1.4088,1.373,1.2948,1.1821,1.0611,0.9492,0.836,0.7489,0.7139,0.7139,0.7139,0.7139,0.7139,0.7139,0.7139,0.7139,0.7312,0.7257,0.7166,0.7191,0.6946,0.6996,0.7594,0.7573,0.7772,0.8043,0.8539,0.8669,0.877,0.914,0.9513,1.004,1.0335,1.1013,1.1545,1.2231,1.2305,1.2305,1.2305,1.2305,1.2305,1.2305,1.2305,1.2298,1.2372,1.2519,1.2519,1.2659,1.2799,1.3448,1.3947,1.4522,1.5013,1.5579,1.6507,1.7295,1.7148,1.7716,1.793,1.8027,1.8066,1.8184,1.8408,1.8789,1.9326,1.9707,2.0068,2.0342,2.0576,2.0576,2.0576,2.0576,2.0576,2.0576,2.0576,2.0576]},{"header":{"parameterUnit":"m.s-1","parameterCategory":1,"la1":31.0,"la2":29.5877,"lo1":-88.7671,"lo2":-86.6584,"dy":0.0162,"dx":0.0185,"nx":115,"ny":88,"refTime":"2023-05-23T06:00:00:Z","depth":0,"parameterNumber":3,"parameterNumberName":"V-component_of_WINDS"},"data":[0.0,0.0,0.0,0.0,0.0,0.0,0.0,0.0,0.0,0.0,0.0,0.0,0.0,0.0,0.0,0.0,0.0,0.0,0.0,0.0,0.0,0.0,0.0,0.0,0.0,0.0,0.0,0.0,0.0,0.0,0.0,0.0,0.0,0.0,0.0,0.0,0.0,0.0,0.0,0.0,0.0,0.0,0.0,0.0,0.0,0.0,0.0,0.0,0.0,0.0,0.0,0.0,0.0,0.0,0.0,0.0,0.0,0.0,0.0,0.0,0.0,0.0,0.0,0.0,0.0,0.0,0.0,0.0,0.0,0.0,0.0,0.0,0.0,0.0,0.0,0.0,0.0,0.0,0.0,0.0,0.0,0.0,0.0,0.0,0.0,0.0,0.0,0.0,0.0,0.0,0.0,0.0,0.0,0.0,0.0,0.0,0.0,0.0,0.0,0.0,0.0,0.0,0.0,0.0,0.0,0.0,0.0,0.0,0.0,0.0,0.0,0.0,0.0,0.0,0.0,0.0,0.0,0.0,0.0,0.0,0.0,0.0,0.0,0.0,0.0,0.0,0.0,0.0,0.0,0.0,0.0,0.0,0.0,0.0,0.0,0.0,0.0,0.0,0.0,0.0,0.0,0.0,0.0,0.0,0.0,0.0,0.0,0.0,0.0,0.0,0.0,0.0,0.0,0.0,0.0,0.0,0.0,0.0,0.0,0.0,0.0,0.0,0.0,0.0,0.0,0.0,0.0,0.0,0.0,0.0,0.0,0.0,0.0,0.0,0.0,0.0,0.0,0.0,0.0,0.0,0.0,0.0,0.0,0.0,0.0,0.0,0.0,0.0,0.0,0.0,0.0,0.0,0.0,0.0,0.0,0.0,0.0,0.0,0.0,0.0,0.0,0.0,0.0,0.0,0.0,0.0,0.0,0.0,0.0,0.0,0.0,0.0,0.0,0.0,0.0,0.0,0.0,0.0,0.0,0.0,0.0,0.0,0.0,0.0,0.0,0.0,0.0,0.0,0.0,0.0,0.0,0.0,0.0,0.0,0.0,0.0,0.0,0.0,0.0,0.0,0.0,0.0,0.0,0.0,0.0,0.0,0.0,0.0,0.0,0.0,0.0,0.0,0.0,0.0,0.0,0.0,0.0,0.0,0.0,0.0,0.0,0.0,0.0,0.0,0.0,0.0,0.0,0.0,0.0,0.0,0.0,0.0,0.0,0.0,0.0,0.0,0.0,0.0,0.0,0.0,0.0,0.0,0.0,0.0,0.0,0.0,0.0,0.0,0.0,0.0,0.0,0.0,0.0,0.0,0.0,0.0,0.0,0.0,0.0,0.0,0.0,0.0,0.0,0.0,0.0,0.0,0.0,0.0,0.0,0.0,0.0,0.0,0.0,0.0,0.0,0.0,0.0,0.0,0.0,0.0,0.0,0.0,0.0,0.0,0.0,0.0,0.0,0.0,0.0,0.0,0.0,0.0,0.0,0.0,0.0,0.0,0.0,0.0,0.0,0.0,0.0,0.0,0.0,0.0,0.0,0.0,0.0,0.0,0.0,0.0,0.0,0.0,0.0,0.0,0.0,0.0,0.0,0.0,0.0,0.0,0.0,0.0,0.0,0.0,0.0,0.0,0.0,0.0,0.0,0.0,0.0,0.0,0.0,0.0,0.0,0.0,0.0,0.0,0.0,0.0,0.0,0.0,0.0,0.0,0.0,0.0,0.0,0.0,0.0,0.0,0.0,0.0,0.0,0.0,0.0,0.0,0.0,0.0,0.0,0.0,0.0,0.0,0.0,0.0,0.0,0.0,0.0,0.0,0.0,0.0,0.0,0.0,0.0,0.0,0.0,0.0,0.0,0.0,0.0,0.0,0.0,0.0,0.0,0.0,0.0,0.0,0.0,0.0,0.0,0.0,0.0,0.0,0.0,0.0,0.0,0.0,0.0,0.0,0.0,0.0,0.0,0.0,0.0,0.0,0.0,0.0,0.0,0.0,0.0,0.0,0.0,0.0,0.0,0.0,0.0,0.0,0.0,0.0,0.0,0.0,0.0,0.0,0.0,0.0,0.0,0.0,0.0,0.0,0.0,0.0,0.0,0.0,0.0,0.0,0.0,0.0,0.0,0.0,0.0,0.0,0.0,0.0,0.0,0.0,0.0,0.0,0.0,0.0,0.0,0.0,0.0,0.0,0.0,0.0,0.0,0.0,0.0,0.0,0.0,0.0,0.0,0.0,0.0,0.0,0.0,0.0,0.0,0.0,0.0,0.0,0.0,0.0,0.0,0.0,0.0,0.0,0.0,0.0,0.0,0.0,0.0,0.0,0.0,0.0,0.0,0.0,0.0,0.0,0.0,0.0,0.0,0.0,0.0,0.0,0.0,0.0,0.0,0.0,0.0,0.0,0.0,0.0,0.0,0.0,0.0,0.0,0.0,0.0,0.0,0.0,0.0,0.0,0.0,0.0,0.0,0.0,0.0,0.0,0.0,0.0,0.0,0.0,0.0,0.0,0.0,0.0,0.0,0.0,0.0,0.0,0.0,0.0,0.0,0.0,0.0,0.0,0.0,0.0,0.0,0.0,0.0,0.0,0.0,0.0,0.0,0.0,0.0,0.0,0.0,0.0,0.0,0.0,0.0,0.0,0.0,0.0,0.0,0.0,0.0,0.0,0.0,0.0,0.0,0.0,0.0,0.0,0.0,0.0,0.0,0.0,0.0,0.0,0.0,0.0,0.0,0.0,0.0,0.0,0.0,0.0,0.0,0.0,0.0,0.0,0.0,0.0,0.0,0.0,0.0,0.0,0.0,0.0,0.0,0.0,0.0,0.0,0.0,0.0,0.0,0.0,0.0,0.0,0.0,0.0,0.0,0.0,0.0,0.0,0.0,0.0,0.0,0.0,0.0,0.0,0.0,0.0,0.0,0.0,0.0,0.0,0.0,0.0,0.0,0.0,0.0,0.0,0.0,0.0,0.0,0.0,0.0,0.0,0.0,0.0,0.0,0.0,0.0,0.0,0.0,0.0,0.0,0.0,0.0,0.0,0.0,0.0,0.0,0.0,0.0,0.0,0.0,0.0,0.0,0.0,0.0,0.0,0.0,0.0,0.0,0.0,0.0,0.0,0.0,0.0,0.0,0.0,0.0,0.0,0.0,0.0,0.0,0.0,0.0,0.0,0.0,0.0,0.0,0.0,0.0,0.0,0.0,0.0,0.0,0.0,0.0,0.0,0.0,0.0,0.0,0.0,0.0,0.0,0.0,0.0,0.0,0.0,0.0,0.0,0.0,0.0,0.0,0.0,0.0,0.0,0.0,0.0,0.0,0.0,0.0,0.0,0.0,0.0,0.0,0.0,0.0,0.0,0.0,0.0,0.0,0.0,0.0,0.0,0.0,0.0,0.0,0.0,0.0,0.0,0.0,0.0,0.0,0.0,0.0,0.0,0.0,0.0,0.0,0.0,0.0,0.0,0.0,0.0,0.0,0.0,0.0,0.0,0.0,0.0,0.0,0.0,0.0,0.0,0.0,0.0,0.0,0.0,0.0,0.0,0.0,0.0,0.0,0.0,0.0,0.0,0.0,0.0,0.0,0.0,0.0,0.0,0.0,0.0,0.0,0.0,0.0,0.0,0.0,0.0,0.0,0.0,0.0,0.0,0.0,0.0,0.0,0.0,0.0,0.0,0.0,0.0,0.0,0.0,0.0,0.0,0.0,0.0,0.0,0.0,0.0,0.0,0.0,0.0,0.0,0.0,0.0,0.0,0.0,0.0,0.0,0.0,0.0,0.0,0.0,0.0,0.0,0.0,0.0,0.0,0.0,0.0,0.0,0.0,0.0,0.0,0.0,0.0,0.0,0.0,0.0,0.0,0.0,0.0,0.0,0.0,0.0,0.0,0.0,0.0,0.0,0.0,0.0,0.0,0.0,0.0,0.0,0.0,0.0,0.0,0.0,0.0,0.0,0.0,0.0,0.0,0.0,0.0,0.0,0.0,0.0,0.0,0.0,0.0,0.0,0.0,0.0,0.0,0.0,0.0,0.0,0.0,0.0,0.0,0.0,0.0,0.0,0.0,0.0,0.0,0.0,0.0,0.0,0.0,0.0,0.0,0.0,0.0,0.0,0.0,0.0,0.0,0.0,0.0,0.0,0.0,0.0,0.0,0.0,0.0,0.0,0.0,0.0,0.0,0.0,0.0,0.0,0.0,0.0,0.0,0.0,0.0,0.0,0.0,0.0,0.0,0.0,0.0,0.0,0.0,0.0,0.0,0.0,0.0,0.0,0.0,0.0,0.0,-2.922,0.0,0.0,0.0,0.0,0.0,0.0,0.0,0.0,0.0,0.0,0.0,0.0,0.0,0.0,0.0,0.0,0.0,0.0,0.0,0.0,0.0,0.0,0.0,0.0,0.0,0.0,0.0,0.0,0.0,0.0,0.0,0.0,0.0,0.0,0.0,0.0,0.0,0.0,0.0,0.0,0.0,0.0,0.0,0.0,0.0,0.0,0.0,0.0,0.0,0.0,0.0,0.0,0.0,0.0,0.0,0.0,0.0,0.0,0.0,0.0,0.0,0.0,0.0,0.0,0.0,0.0,0.0,0.0,0.0,0.0,0.0,0.0,0.0,0.0,0.0,0.0,0.0,0.0,0.0,0.0,0.0,0.0,0.0,0.0,0.0,0.0,0.0,0.0,0.0,0.0,0.0,0.0,0.0,0.0,0.0,0.0,0.0,0.0,0.0,0.0,0.0,0.0,0.0,0.0,0.0,0.0,0.0,0.0,0.0,0.0,-2.8888,-2.8967,-2.9062,-2.9148,-2.9286,0.0,0.0,0.0,0.0,0.0,0.0,0.0,0.0,0.0,0.0,0.0,0.0,0.0,0.0,0.0,0.0,0.0,0.0,0.0,0.0,0.0,0.0,0.0,0.0,0.0,0.0,0.0,0.0,0.0,0.0,0.0,0.0,0.0,0.0,0.0,0.0,0.0,0.0,0.0,0.0,0.0,0.0,0.0,0.0,0.0,0.0,0.0,0.0,0.0,0.0,0.0,0.0,0.0,0.0,0.0,0.0,0.0,0.0,0.0,0.0,0.0,0.0,0.0,0.0,0.0,0.0,0.0,0.0,0.0,0.0,0.0,0.0,0.0,0.0,0.0,0.0,0.0,0.0,0.0,0.0,0.0,0.0,0.0,0.0,0.0,0.0,0.0,0.0,0.0,0.0,0.0,0.0,0.0,0.0,0.0,0.0,0.0,0.0,0.0,0.0,0.0,0.0,0.0,0.0,0.0,0.0,0.0,0.0,0.0,0.0,0.0,0.0,-2.8581,-2.8608,-2.8751,0.0,0.0,0.0,0.0,0.0,0.0,0.0,0.0,0.0,0.0,0.0,0.0,0.0,0.0,0.0,0.0,0.0,0.0,0.0,0.0,0.0,0.0,0.0,0.0,0.0,0.0,0.0,0.0,0.0,0.0,0.0,0.0,0.0,0.0,0.0,0.0,0.0,0.0,0.0,0.0,0.0,0.0,0.0,0.0,0.0,0.0,0.0,0.0,0.0,0.0,0.0,0.0,0.0,0.0,0.0,0.0,0.0,0.0,0.0,0.0,0.0,0.0,0.0,0.0,0.0,0.0,0.0,0.0,0.0,0.0,0.0,0.0,0.0,0.0,0.0,0.0,0.0,0.0,0.0,0.0,0.0,0.0,0.0,0.0,0.0,0.0,0.0,0.0,0.0,0.0,0.0,0.0,0.0,0.0,0.0,0.0,0.0,0.0,0.0,0.0,0.0,0.0,0.0,0.0,0.0,0.0,0.0,0.0,0.0,0.0,-2.7601,-2.7305,-2.7036,0.0,-2.7392,0.0,0.0,0.0,0.0,0.0,0.0,0.0,0.0,0.0,0.0,0.0,0.0,0.0,0.0,0.0,0.0,0.0,0.0,0.0,0.0,0.0,0.0,0.0,0.0,0.0,0.0,0.0,0.0,0.0,0.0,0.0,0.0,0.0,0.0,0.0,0.0,0.0,0.0,0.0,0.0,0.0,0.0,0.0,0.0,0.0,0.0,0.0,0.0,0.0,0.0,0.0,0.0,0.0,0.0,0.0,0.0,0.0,0.0,0.0,0.0,0.0,0.0,0.0,0.0,0.0,0.0,0.0,0.0,0.0,0.0,0.0,0.0,0.0,0.0,0.0,0.0,0.0,0.0,0.0,0.0,0.0,0.0,0.0,0.0,0.0,0.0,0.0,0.0,0.0,0.0,0.0,0.0,0.0,0.0,0.0,0.0,0.0,0.0,0.0,0.0,0.0,0.0,0.0,0.0,0.0,0.0,0.0,0.0,0.0,0.0,-2.5347,-2.4978,-2.4626,-2.4704,0.0,0.0,0.0,0.0,0.0,0.0,0.0,0.0,0.0,0.0,0.0,0.0,0.0,0.0,0.0,0.0,0.0,0.0,0.0,0.0,0.0,0.0,0.0,0.0,0.0,0.0,0.0,0.0,0.0,0.0,0.0,0.0,0.0,0.0,0.0,0.0,0.0,0.0,0.0,0.0,0.0,0.0,0.0,0.0,0.0,0.0,0.0,0.0,0.0,0.0,0.0,0.0,0.0,0.0,0.0,0.0,0.0,0.0,0.0,0.0,0.0,0.0,0.0,0.0,0.0,0.0,0.0,0.0,0.0,0.0,0.0,0.0,0.0,0.0,0.0,0.0,0.0,0.0,0.0,0.0,0.0,0.0,0.0,0.0,0.0,0.0,0.0,0.0,0.0,0.0,0.0,0.0,0.0,0.0,0.0,0.0,0.0,0.0,0.0,0.0,0.0,0.0,0.0,0.0,0.0,0.0,0.0,0.0,0.0,0.0,-2.3115,-2.18,-2.1845,-2.1666,-2.1929,-2.2784,0.0,0.0,0.0,0.0,0.0,0.0,0.0,0.0,0.0,0.0,0.0,0.0,0.0,0.0,0.0,0.0,0.0,0.0,0.0,0.0,0.0,0.0,0.0,0.0,0.0,0.0,0.0,0.0,0.0,0.0,0.0,0.0,0.0,0.0,0.0,0.0,0.0,0.0,0.0,0.0,0.0,0.0,0.0,0.0,0.0,0.0,0.0,0.0,0.0,0.0,0.0,0.0,0.0,0.0,0.0,0.0,0.0,0.0,0.0,0.0,0.0,0.0,0.0,0.0,0.0,0.0,0.0,0.0,0.0,0.0,0.0,0.0,0.0,0.0,0.0,0.0,0.0,0.0,0.0,0.0,0.0,0.0,0.0,0.0,0.0,0.0,0.0,0.0,0.0,0.0,0.0,0.0,0.0,0.0,0.0,0.0,0.0,0.0,0.0,0.0,0.0,0.0,0.0,0.0,0.0,0.0,0.0,0.0,-2.3176,-1.8545,-1.661,-1.7757,-1.802,-1.8785,0.0,0.0,0.0,0.0,0.0,0.0,0.0,0.0,0.0,0.0,0.0,0.0,0.0,0.0,0.0,0.0,0.0,0.0,0.0,0.0,0.0,0.0,0.0,0.0,0.0,0.0,0.0,0.0,0.0,0.0,0.0,0.0,0.0,0.0,0.0,0.0,0.0,0.0,0.0,0.0,0.0,0.0,0.0,0.0,0.0,0.0,0.0,0.0,0.0,0.0,0.0,0.0,0.0,0.0,0.0,0.0,0.0,0.0,0.0,0.0,0.0,0.0,0.0,0.0,0.0,0.0,0.0,0.0,0.0,0.0,0.0,0.0,0.0,0.0,0.0,0.0,0.0,0.0,0.0,0.0,0.0,0.0,0.0,0.0,0.0,0.0,0.0,0.0,0.0,0.0,0.0,0.0,0.0,0.0,0.0,0.0,0.0,0.0,0.0,0.0,0.0,0.0,0.0,0.0,0.0,0.0,0.0,0.0,0.0,-2.018,-1.6324,-1.44,-1.4687,-1.506,-1.6032,0.0,0.0,0.0,0.0,0.0,0.0,0.0,0.0,0.0,0.0,0.0,0.0,0.0,0.0,0.0,0.0,0.0,0.0,0.0,0.0,0.0,0.0,0.0,0.0,0.0,0.0,0.0,0.0,0.0,0.0,0.0,0.0,0.0,0.0,0.0,0.0,0.0,0.0,0.0,0.0,0.0,0.0,0.0,0.0,0.0,0.0,0.0,0.0,0.0,0.0,0.0,0.0,0.0,0.0,0.0,0.0,0.0,0.0,0.0,0.0,0.0,0.0,0.0,0.0,0.0,0.0,0.0,0.0,0.0,0.0,0.0,0.0,0.0,0.0,0.0,0.0,0.0,0.0,0.0,0.0,0.0,0.0,0.0,0.0,0.0,0.0,0.0,0.0,0.0,0.0,0.0,0.0,0.0,0.0,0.0,0.0,0.0,0.0,0.0,0.0,0.0,0.0,0.0,0.0,0.0,0.0,0.0,0.0,0.0,-1.5621,0.0,-1.1981,-1.1783,-1.2316,-1.3433,0.0,0.0,0.0,0.0,0.0,0.0,0.0,0.0,0.0,0.0,0.0,0.0,0.0,0.0,0.0,0.0,0.0,0.0,0.0,0.0,0.0,0.0,0.0,0.0,0.0,0.0,0.0,0.0,0.0,0.0,0.0,0.0,0.0,0.0,0.0,0.0,0.0,0.0,0.0,0.0,0.0,0.0,0.0,0.0,0.0,0.0,0.0,0.0,0.0,0.0,0.0,0.0,0.0,0.0,0.0,0.0,0.0,0.0,0.0,0.0,0.0,0.0,0.0,0.0,0.0,0.0,0.0,0.0,0.0,0.0,0.0,0.0,0.0,0.0,0.0,0.0,0.0,0.0,0.0,0.0,0.0,0.0,0.0,0.0,0.0,0.0,0.0,0.0,0.0,0.0,0.0,0.0,0.0,0.0,0.0,0.0,0.0,0.0,0.0,0.0,0.0,0.0,0.0,0.0,0.0,0.0,0.0,0.0,-1.5273,-0.9621,-0.9286,-0.9209,-0.8982,-0.9711,-1.0933,0.0,0.0,0.0,0.0,0.0,0.0,0.0,0.0,0.0,0.0,0.0,0.0,0.0,0.0,0.0,0.0,0.0,0.0,0.0,0.0,0.0,0.0,0.0,0.0,0.0,0.0,0.0,0.0,0.0,0.0,0.0,0.0,0.0,0.0,0.0,0.0,0.0,0.0,0.0,0.0,0.0,0.0,0.0,0.0,0.0,0.0,0.0,0.0,0.0,0.0,0.0,0.0,0.0,0.0,0.0,0.0,0.0,0.0,0.0,0.0,0.0,0.0,0.0,0.0,0.0,0.0,0.0,0.0,0.0,0.0,0.0,0.0,0.0,0.0,0.0,0.0,0.0,0.0,0.0,0.0,0.0,0.0,0.0,0.0,0.0,0.0,0.0,0.0,0.0,0.0,0.0,0.0,0.0,0.0,0.0,0.0,0.0,0.0,0.0,0.0,0.0,0.0,0.0,0.0,0.0,0.0,0.0,0.0,0.0,-0.8413,-0.7787,-0.7372,-0.7242,-0.8011,-0.9325,0.0,0.0,0.0,0.0,0.0,0.0,0.0,0.0,0.0,0.0,0.0,0.0,0.0,0.0,0.0,0.0,0.0,0.0,0.0,0.0,0.0,0.0,0.0,0.0,0.0,0.0,0.0,0.0,0.0,0.0,0.0,0.0,0.0,0.0,0.0,0.0,0.0,0.0,0.0,0.0,0.0,0.0,0.0,0.0,0.0,0.0,0.0,0.0,0.0,0.0,0.0,0.0,0.0,0.0,0.0,0.0,0.0,0.0,0.0,0.0,0.0,0.0,0.0,0.0,0.0,0.0,0.0,0.0,0.0,0.0,0.0,0.0,0.0,0.0,0.0,0.0,0.0,0.0,0.0,0.0,0.0,0.0,0.0,0.0,0.0,0.0,0.0,0.0,0.0,0.0,0.0,0.0,0.0,0.0,0.0,0.0,0.0,0.0,0.0,0.0,0.0,0.0,0.0,0.0,0.0,0.0,0.0,0.0,0.0,-0.6293,-0.6045,-0.5787,-0.5576,-0.6459,-0.7856,-0.9777,0.0,0.0,0.0,0.0,0.0,0.0,0.0,0.0,0.0,0.0,0.0,0.0,0.0,0.0,0.0,0.0,0.0,0.0,0.0,0.0,0.0,0.0,0.0,0.0,0.0,0.0,0.0,0.0,0.0,0.0,0.0,0.0,0.0,0.0,0.0,0.0,0.0,0.0,0.0,0.0,0.0,0.0,0.0,0.0,0.0,0.0,0.0,0.0,0.0,0.0,0.0,0.0,0.0,0.0,0.0,0.0,0.0,0.0,0.0,0.0,0.0,0.0,0.0,0.0,0.0,0.0,0.0,0.0,0.0,0.0,0.0,0.0,0.0,0.0,0.0,0.0,0.0,0.0,0.0,0.0,0.0,0.0,0.0,0.0,0.0,0.0,0.0,0.0,0.0,0.0,0.0,0.0,0.0,0.0,0.0,0.0,0.0,0.0,0.0,0.0,0.0,0.0,0.0,0.0,0.0,0.0,0.0,0.0,-0.3493,-0.4021,-0.4312,-0.4143,-0.5099,-0.6462,0.0,0.0,0.0,0.0,0.0,0.0,0.0,0.0,0.0,0.0,0.0,0.0,0.0,0.0,0.0,0.0,0.0,0.0,0.0,0.0,0.0,0.0,0.0,0.0,0.0,0.0,0.0,0.0,0.0,0.0,0.0,0.0,0.0,0.0,0.0,0.0,0.0,0.0,0.0,0.0,0.0,0.0,0.0,0.0,0.0,0.0,0.0,0.0,0.0,0.0,0.0,0.0,0.0,0.0,0.0,0.0,0.0,0.0,0.0,0.0,0.0,0.0,0.0,0.0,0.0,0.0,0.0,0.0,0.0,0.0,0.0,0.0,0.0,0.0,0.0,0.0,0.0,0.0,0.0,0.0,0.0,0.0,0.0,0.0,0.0,0.0,0.0,0.0,0.0,0.0,0.0,0.0,0.0,0.0,0.0,0.0,0.0,0.0,0.0,0.0,0.0,0.0,0.0,0.0,0.0,0.0,0.0,0.0,0.0,-0.2689,-0.2546,-0.2765,-0.3145,-0.4443,-0.5906,0.0,0.0,0.0,0.0,0.0,0.0,0.0,0.0,0.0,0.0,0.0,0.0,0.0,0.0,0.0,0.0,0.0,0.0,0.0,0.0,0.0,0.0,0.0,0.0,0.0,0.0,0.0,0.0,0.0,0.0,0.0,0.0,0.0,0.0,0.0,0.0,0.0,0.0,0.0,0.0,0.0,0.0,0.0,0.0,0.0,0.0,0.0,0.0,0.0,0.0,0.0,0.0,0.0,0.0,0.0,0.0,0.0,0.0,0.0,0.0,0.0,0.0,0.0,0.0,0.0,0.0,0.0,0.0,0.0,0.0,0.0,0.0,0.0,0.0,0.0,0.0,0.0,0.0,0.0,0.0,0.0,0.0,0.0,0.0,0.0,0.0,0.0,0.0,0.0,0.0,0.0,0.0,0.0,0.0,0.0,0.0,0.0,0.0,0.0,0.0,0.0,0.0,0.0,0.0,0.0,0.0,0.0,0.0,-0.2913,-0.183,-0.15,-0.159,-0.2008,-0.3579,-0.5156,0.0,0.0,0.0,0.0,0.0,0.0,0.0,0.0,0.0,0.0,0.0,0.0,0.0,0.0,0.0,0.0,0.0,0.0,0.0,0.0,0.0,0.0,0.0,0.0,0.0,0.0,0.0,0.0,0.0,0.0,0.0,0.0,0.0,0.0,0.0,0.0,0.0,0.0,0.0,0.0,0.0,0.0,0.0,0.0,0.0,0.0,0.0,0.0,0.0,0.0,0.0,0.0,0.0,0.0,0.0,0.0,0.0,0.0,0.0,0.0,0.0,0.0,0.0,0.0,0.0,0.0,0.0,0.0,0.0,0.0,0.0,0.0,0.0,0.0,0.0,0.0,0.0,0.0,0.0,0.0,0.0,0.0,0.0,0.0,0.0,0.0,0.0,0.0,0.0,0.0,0.0,0.0,0.0,0.0,0.0,0.0,0.0,0.0,0.0,0.0,0.0,0.0,0.0,0.0,0.0,0.0,0.0,0.0,-0.1939,-0.1058,-0.0768,-0.0785,-0.1044,-0.2776,-0.4399,0.0,0.0,0.0,0.0,0.0,0.0,0.0,0.0,0.0,0.0,0.0,0.0,0.0,0.0,0.0,0.0,0.0,0.0,0.0,0.0,0.0,0.0,0.0,0.0,0.0,0.0,0.0,0.0,0.0,0.0,0.0,0.0,0.0,0.0,0.0,0.0,0.0,0.0,0.0,0.0,0.0,0.0,0.0,0.0,0.0,0.0,0.0,0.0,0.0,0.0,0.0,0.0,0.0,0.0,0.0,0.0,0.0,0.0,0.0,0.0,0.0,0.0,0.0,0.0,0.0,0.0,0.0,0.0,0.0,0.0,0.0,0.0,0.0,0.0,0.0,0.0,0.0,0.0,0.0,0.0,0.0,0.0,0.0,0.0,0.0,0.0,0.0,0.0,0.0,0.0,0.0,0.0,0.0,0.0,0.0,0.0,0.0,0.0,0.0,0.0,0.0,0.0,0.0,0.0,0.0,0.0,0.0,0.0,-0.1354,-0.0919,-0.0611,-0.0535,-0.0802,-0.2464,-0.4093,0.0,0.0,0.0,0.0,0.0,0.0,0.0,0.0,0.0,0.0,0.0,0.0,0.0,0.0,0.0,0.0,0.0,0.0,0.0,0.0,0.0,0.0,0.0,0.0,0.0,0.0,0.0,0.0,0.0,0.0,0.0,0.0,0.0,0.0,0.0,0.0,0.0,0.0,0.0,0.0,0.0,0.0,0.0,0.0,0.0,0.0,0.0,0.0,0.136,0.0,0.0,0.0,0.0,0.0,0.0,0.0,0.0,0.0,0.0,0.0,0.0,0.0,0.0,0.0,0.0,0.0,0.0,0.0,0.0,0.0,0.0,0.0,0.0,0.0,0.0,0.0,0.0,0.0,0.0,0.0,0.0,0.0,0.0,0.0,0.0,0.0,0.0,0.0,0.0,0.0,0.0,0.0,0.0,0.0,0.0,0.0,0.0,0.0,0.0,0.0,0.0,0.0,0.0,0.0,0.0,0.0,0.0,0.0,-0.0813,-0.0589,-0.0351,-0.0449,-0.0896,-0.2234,-0.3748,0.0,0.0,0.0,0.0,0.0,0.0,0.0,0.0,0.0,0.0,0.0,0.0,0.0,0.0,0.0,0.0,0.0,0.0,0.0,0.0,0.0,0.0,0.0,0.0,0.0,0.0,0.0,0.0,0.0,0.0,0.0,0.0,0.0,0.0,0.0,0.0,0.0,0.0,0.0,0.0,0.0,0.0,0.0,0.0,0.0,0.0,0.0,0.0,0.0,0.0,0.0,0.0,0.0,0.0,0.0,0.0,0.0,0.0,0.0,0.0,0.0,0.0,0.0,0.0,0.0,0.0,0.0,0.0,0.0,0.0,0.0,0.0,0.0,0.0,0.0,0.0,0.0,0.0,0.0,0.0,0.0,0.0,0.0,0.0,0.0,0.0,0.0,0.0,0.0,0.0,0.0,0.0,0.0,0.0,0.0,0.0,0.0,0.0,0.0,0.0,0.0,0.0,0.0,0.0,0.0,0.0,0.0,-0.0865,-0.0412,-0.0339,-0.0088,-0.0359,-0.1076,-0.2234,-0.3684,-0.5421,0.0,0.0,0.0,0.0,0.0,0.0,0.0,0.0,0.0,0.0,0.0,0.0,0.0,0.0,0.0,0.0,0.0,0.0,0.0,0.0,0.0,0.0,0.0,0.0,0.0,0.0,0.0,0.0,0.0,0.0,0.0,0.0,0.0,0.0,0.0,0.0,0.0,0.0,0.8663,0.8529,0.0,0.0,0.0,0.0,0.0,0.0,0.0,0.0,0.104,0.0,0.0,0.0,0.0,0.0,0.0,0.0,0.0,0.0,0.0,0.0,0.0,0.0,0.0,0.0,0.0,0.0,0.0,0.0,0.0,0.0,0.0,0.0,0.0,0.0,0.0,0.0,0.0,0.0,0.0,0.0,0.0,0.0,0.0,0.0,0.0,0.0,0.0,0.0,0.0,0.0,0.0,0.0,0.0,0.0,0.0,0.0,0.0,0.0,0.0,0.0,0.0,0.0,0.0,0.0,0.0,-0.1429,-0.0714,-0.0332,-0.0346,-0.0089,-0.0359,-0.1075,-0.2317,-0.3928,-0.5826,0.0,0.0,0.0,0.0,0.0,0.0,0.0,0.0,0.0,0.0,0.0,0.0,0.0,0.0,0.0,0.0,0.0,0.0,0.0,0.0,0.0,0.0,0.0,0.0,0.0,0.0,0.0,0.0,0.0,0.0,0.0,0.0,0.0,0.0,0.0,0.0,0.0,0.0,0.0,0.9727,0.9357,0.0,0.0,0.0,0.0,0.0,0.0,0.0,0.0,0.1218,0.0,0.0,0.0,0.0,0.0,0.0,0.0,0.0,0.0,0.0,0.0,0.0,0.0,0.0,0.0,0.0,0.0,0.0,0.0,0.0,0.0,0.0,0.0,0.0,0.0,0.0,0.0,0.0,0.0,0.0,0.0,0.0,0.0,0.0,0.0,0.0,0.0,0.0,0.0,0.0,0.0,0.0,0.0,0.0,0.0,0.0,0.0,0.0,0.0,0.0,0.0,0.0,0.0,0.0,0.0,-0.0834,-0.0402,-0.0168,-0.0174,0.0,-0.0359,-0.1255,-0.2573,-0.4174,0.0,0.0,0.0,0.0,0.0,0.0,0.0,0.0,0.0,0.0,0.0,0.0,0.0,0.0,0.0,0.0,0.0,0.0,0.0,0.0,0.0,0.0,0.0,0.0,0.0,0.0,0.0,0.0,0.0,0.0,0.0,0.0,0.0,0.0,0.0,0.0,0.0,0.0,0.0,0.0,1.0175,0.9953,0.9697,0.0,0.0,0.0,0.0,0.0,0.0,0.3044,0.2124,0.0,0.0,0.0,0.0,0.0,0.0,0.0,0.0,0.0,0.0,0.0,0.0,0.0,0.0,0.0,0.0,0.0,0.0,0.0,0.0,0.0,0.0,0.0,0.0,0.0,0.0,0.0,0.0,0.0,0.0,0.0,0.0,0.0,0.0,0.0,0.0,0.0,0.0,0.0,0.0,0.0,0.0,0.0,0.0,0.0,0.0,0.0,0.0,0.0,0.0,0.0,0.0,0.0,0.0,0.0,-0.0308,-0.0082,0.0,0.0,0.0,-0.0449,-0.1345,-0.2741,-0.4423,0.0,0.0,0.0,0.0,0.0,0.0,0.0,0.0,0.0,0.0,0.0,0.0,0.0,0.0,0.0,0.0,0.0,0.0,0.0,0.0,0.0,0.0,0.0,0.0,0.0,0.0,0.0,0.0,0.0,0.0,0.0,0.0,0.0,0.0,0.0,0.0,0.0,0.0,0.0,0.0,0.0,1.0279,1.0019,0.9373,0.0,0.0,0.0,0.0,0.4342,0.3812,0.0,0.0,0.0,0.0,0.0,0.0,0.0,0.0,0.0,0.0,0.0,0.0,0.0,0.0,0.0,0.0,0.0,0.0,0.0,0.0,0.0,0.0,0.0,0.0,0.0,0.0,0.0,0.0,0.0,0.0,0.0,0.0,0.0,0.0,0.0,0.0,0.0,0.0,0.0,0.0,0.0,0.0,0.0,0.0,0.0,0.0,0.0,0.0,0.0,0.0,0.0,0.0,0.0,0.0,0.0,0.0,-0.0322,-0.0083,0.0,0.0,0.0,-0.0449,-0.1345,-0.2914,-0.4506,0.0,0.0,0.0,0.0,0.0,0.0,0.0,0.0,0.0,0.0,0.0,0.0,0.0,0.0,0.0,0.0,0.0,0.0,0.0,0.0,0.0,0.0,0.0,0.0,0.0,0.0,0.0,0.0,0.0,0.0,0.0,0.0,0.0,0.0,0.0,0.0,0.0,0.0,0.0,0.0,0.0,1.0521,1.0911,0.9846,0.883,0.0,0.0,0.6427,0.6105,0.5692,0.0,0.0,0.0,0.0,0.0,0.0,0.0,0.0,0.0,0.0,0.0,0.0,0.0,0.0,0.0,0.0,0.0,0.0,0.0,0.0,0.0,0.0,0.0,0.0,0.0,0.0,0.0,0.0,0.0,0.0,0.0,0.0,0.0,0.0,0.0,0.0,0.0,0.0,0.0,0.0,0.0,0.0,0.0,0.0,0.0,0.0,0.0,0.0,0.0,0.0,0.0,0.0,0.0,0.0,0.0,-0.0307,-0.0163,0.0,0.0,0.0,0.0,-0.0449,-0.1346,-0.2828,-0.4421,0.0,0.0,0.0,0.0,0.0,0.0,0.0,0.0,0.0,0.0,0.0,0.0,0.0,0.0,0.0,0.0,0.0,0.0,0.0,0.0,0.0,0.0,0.0,0.0,0.0,0.0,0.0,0.0,0.0,0.0,0.0,0.0,0.0,0.0,0.0,0.0,0.0,0.0,0.0,0.0,0.0,0.0,1.0525,1.0359,0.0,0.0,0.0,0.7026,0.6443,0.0,0.0,0.0,0.0,0.0,0.0,0.0,0.0,0.0,0.0,0.0,0.0,0.0,0.0,0.0,0.0,0.0,0.0,0.0,0.0,0.0,0.0,0.0,0.0,0.0,0.0,0.0,0.0,0.0,0.0,0.0,0.0,0.0,0.0,0.0,0.0,0.0,0.0,0.0,0.0,0.0,0.0,0.0,0.0,0.0,0.0,0.0,0.0,0.0,0.0,0.0,0.0,0.0,0.0,0.0,0.0,0.0,0.0,0.0,0.0,0.0,0.0,-0.0449,-0.1345,-0.2756,0.0,0.0,0.0,0.0,0.0,0.0,0.0,0.0,0.0,0.0,0.0,0.0,0.0,0.0,0.0,0.0,0.0,0.0,0.0,0.0,0.0,0.0,0.0,0.0,0.0,0.0,0.0,0.0,0.0,0.0,0.0,0.0,0.0,0.0,0.0,0.0,0.0,0.0,0.0,0.0,0.0,0.0,1.0945,1.0455,1.0908,1.0697,0.0,0.0,0.7503,0.6582,0.6364,0.5883,0.0,0.0,0.0,0.0,0.0,0.0,0.0,0.0,0.0,0.0,0.0,0.0,0.0,0.0,0.0,0.0,0.0,0.0,0.0,0.0,0.0,0.0,0.0,0.0,0.0,0.0,0.0,0.0,0.0,0.0,0.0,0.0,0.0,0.0,0.0,0.0,0.0,0.0,0.0,0.0,0.0,0.0,0.0,0.0,0.0,0.0,0.0,0.0,0.0,0.0,0.0,0.0,0.0,0.0,0.0,0.0,0.0,0.0,0.0,0.0,-0.0359,-0.1166,-0.2797,-0.4265,0.0,0.0,0.0,0.0,0.0,0.0,0.0,0.0,0.0,0.0,0.0,0.0,0.0,0.0,0.0,0.0,0.0,0.0,0.0,0.0,0.0,0.0,0.0,0.0,0.0,0.0,0.0,0.0,0.0,0.0,0.0,0.0,0.0,0.0,0.0,0.0,0.0,0.0,0.0,0.0,0.0,1.1186,1.1502,1.1618,1.1344,0.0,0.0,0.7932,0.6997,0.6944,0.6679,0.5817,0.0,0.0,0.0,0.0,0.0,0.0,0.0,0.0,0.0,0.0,0.0,0.0,0.0,0.0,0.0,0.0,0.0,0.0,0.0,0.0,0.0,0.0,0.0,0.0,0.0,0.0,0.0,0.0,0.0,0.0,0.0,0.0,0.0,0.0,0.0,0.0,0.0,0.0,0.0,0.0,0.0,0.0,0.0,0.0,0.0,0.0,0.0,0.0,0.0,0.0,0.0,0.0,0.0,0.0,0.0,0.0,0.0,0.0,0.0,-0.0359,-0.1076,-0.1928,-0.3251,0.0,0.0,0.0,0.0,0.0,0.0,0.0,0.0,0.0,0.0,0.0,0.0,0.0,0.0,0.0,0.0,0.0,0.0,0.0,0.0,0.0,0.0,0.0,0.0,0.0,0.0,0.0,0.0,0.4444,0.5265,0.5996,0.0,0.0,0.0,0.0,0.0,0.0,0.0,0.0,0.0,0.0,1.1641,1.2207,1.2304,0.0,0.0,1.0124,0.8746,0.813,0.7421,0.6738,0.6119,0.5828,0.0,0.0,0.0,0.0,0.0,0.0,0.0,0.0,0.0,0.0,0.0,0.0,0.0,0.0,0.0,0.0,0.0,0.0,0.0,0.0,0.0,0.0,0.0,0.0,0.0,0.0,0.0,0.0,0.0,0.0,0.0,0.0,0.0,0.0,0.0,0.0,0.0,0.0,0.0,0.0,0.0,0.0,0.0,0.0,0.0,0.0,0.0,0.0,0.0,0.0,0.0,0.0,0.0,0.0,0.0,0.0,0.0,0.0,-0.0269,-0.0896,-0.1412,-0.2596,0.0,0.0,0.0,0.0,0.0,0.0,0.0,0.0,0.0,0.0,0.0,0.0,0.0,0.0,0.0,0.0,0.0,0.0,0.0,0.0,0.0,0.0,0.0,0.0,0.0,0.0,0.0,0.0,0.5454,0.6179,0.7046,0.0,0.0,0.0,0.0,0.0,0.0,0.0,0.0,0.0,0.0,1.214,1.2582,1.2663,1.2523,1.2016,1.0522,0.9146,0.8518,0.77,0.6954,0.6498,0.0,0.0,0.0,0.0,0.0,0.0,0.0,0.0,0.0,0.0,0.0,0.0,0.0,0.0,0.0,0.0,0.0,0.0,0.0,0.0,0.0,0.0,0.0,0.0,0.0,0.0,0.0,0.0,0.0,0.0,-0.0797,0.0,0.0,0.0,0.0,0.0,0.0,0.0,0.0,0.0,0.0,0.0,0.0,0.0,0.0,0.0,0.0,0.0,0.0,0.0,0.0,0.0,0.0,0.0,0.0,0.0,0.0,0.0,0.0,-0.009,-0.0448,-0.1343,-0.2477,-0.3976,0.0,0.0,0.0,0.0,0.0,0.0,0.0,0.0,0.0,0.0,0.0,0.0,0.0,0.0,0.0,0.0,0.0,0.0,0.0,0.0,0.0,0.0,0.0,0.0,0.0,0.0,0.4729,0.5604,0.6401,0.0,0.0,0.0,0.0,0.0,0.0,0.0,0.0,0.0,0.0,1.2197,1.2688,1.2622,1.265,1.2298,1.1226,1.0222,0.9241,0.8172,0.7769,0.7439,0.0,0.0,0.0,0.0,0.0,0.0,0.0,0.0,0.0,0.0,0.0,0.0,0.0,0.0,0.0,0.0,0.0,0.0,0.0,0.0,0.0,0.0,0.0,0.0,0.0,0.0,0.0,0.1863,0.1489,0.0,0.0,0.0,0.0,0.0,0.0,0.0,0.0,0.0,0.0,0.0,0.3885,0.2837,0.0,0.0,0.0,0.0,0.0,0.0,0.0,0.0,0.0,0.0,0.0,0.0,0.0,0.0,0.0,0.0,0.0,0.0,-0.009,-0.0359,-0.0538,-0.1683,-0.3888,0.0,0.0,0.0,0.0,0.0,0.0,0.0,0.0,0.0,0.0,0.0,0.0,0.0,0.0,0.0,0.0,0.0,0.0,0.0,0.0,0.0,0.0,0.0,0.0,0.0,0.5408,0.0,0.0,0.0,0.0,0.0,0.0,0.0,0.0,0.0,0.0,0.0,1.206,1.24,1.2504,1.27,1.2956,1.2888,1.2817,0.0,0.0,0.0,0.0,0.0,0.0,0.0,0.0,0.0,0.0,0.0,0.0,0.0,0.0,0.5621,0.5542,0.5791,0.6289,0.6699,0.0,0.0,0.0,0.0,0.0,0.0,0.0,0.0,0.0,0.0,0.0,0.0,0.0,0.0,0.3134,0.0,0.2798,0.0,0.0,0.0,0.0,0.0,0.0,0.0,0.0,0.3002,0.3708,0.3984,0.2968,0.2358,0.0,0.0922,0.0165,0.0,0.0,0.0,0.0,0.0,0.0,0.0,0.0,0.0,0.0,0.0,0.0,0.0,0.0,-0.009,-0.0269,-0.0449,-0.1424,-0.3148,-0.4193,-0.5204,0.0,0.0,0.0,0.0,0.0,0.0,0.0,0.0,0.0,0.0,0.0,0.0,0.0,0.0,0.0,0.0,0.0,0.0,0.0,0.0,0.0,0.0,0.0,0.6965,0.0,0.0,0.0,0.0,0.0,0.0,0.0,0.0,0.0,1.1927,1.2324,1.2681,1.3094,1.2975,1.2994,1.3202,0.0,0.0,0.0,0.0,0.0,0.0,0.0,0.8869,0.8431,0.8668,0.8662,0.8145,0.7718,0.751,0.751,0.0,0.0,0.6247,0.6341,0.6689,0.7024,0.7151,0.7484,0.8373,0.9068,0.9767,0.0,0.0,0.0,0.0,0.0,0.0,0.0,0.0,0.424,0.4107,0.0,0.3934,0.0,0.0,0.0,0.0,0.0,0.1328,0.0,0.0,0.2797,0.3268,0.2779,0.2343,0.1996,0.1733,0.0767,0.0169,0.0,0.0,0.0,0.0,0.0,0.0,0.0,0.0,0.0,0.0,0.0,0.0,0.0,0.0,0.0,0.0,-0.1076,-0.17,-0.1878,-0.2976,-0.3718,-0.3964,-0.4639,0.0,0.0,0.0,0.0,0.0,0.0,0.0,0.0,0.0,0.0,0.0,0.0,0.0,0.0,0.0,0.0,0.0,0.0,0.0,0.0,0.7961,0.0,0.0,0.0,0.0,0.0,0.0,0.0,0.0,0.0,0.0,1.2177,1.2785,1.3265,1.3482,0.0,0.0,0.0,0.0,1.303,1.2493,1.2016,1.1422,1.0761,1.0588,1.0273,0.9657,0.0,0.0,1.0388,1.0254,1.004,1.0121,1.012,0.9535,0.7047,0.6908,0.7186,0.7446,0.7642,0.8116,0.9468,0.9937,1.0423,0.6503,0.0,0.0,0.0,0.0,0.4839,0.4997,0.5442,0.5477,0.5408,0.5318,0.5199,0.0,0.0,0.0,0.0,0.0,0.0,0.1271,0.1804,0.2436,0.2986,0.3276,0.2305,0.1862,0.1774,0.0619,0.0088,0.0,0.0,0.0,0.0,0.0,0.0,0.0,0.0,0.0,0.0,0.0,0.0,0.0,0.0,0.0,0.0,-0.0359,-0.0897,-0.179,-0.2134,-0.2638,-0.3288,-0.3156,0.0,0.0,0.0,0.0,0.0,0.0,0.0,0.0,0.0,0.0,0.0,0.0,0.0,0.0,0.0,0.0,0.0,0.0,0.0,0.7577,0.8813,0.9373,0.0,0.0,0.0,0.0,0.0,0.0,0.0,0.0,0.0,1.2903,1.303,1.3104,0.0,0.0,1.3318,1.3431,1.3035,1.3091,1.394,1.2641,0.0,1.2634,1.1671,1.083,1.0453,1.0279,1.019,1.0416,1.007,0.9867,0.9872,1.0048,1.0006,0.9382,0.9351,0.9565,0.967,0.9712,0.985,1.0328,1.0992,1.1729,0.687,0.6606,0.6328,0.6152,0.6033,0.5777,0.6017,0.6399,0.6399,0.6402,0.6315,0.6309,0.58,0.4833,0.3531,0.0,0.0,0.0,0.1637,0.132,0.1845,0.2209,0.2146,0.1433,0.1076,0.1076,0.0359,0.0,0.0,0.0,0.0,0.0,0.0,0.0,0.0,0.0,0.0,0.0,0.0,0.0,0.0,0.0,0.0,0.0,0.0,-0.0359,-0.1075,-0.1076,-0.1336,-0.1758,-0.1827,-0.2137,0.0,0.0,0.0,0.0,0.0,0.0,0.0,0.0,0.0,0.0,0.0,0.1526,0.285,0.0,0.0,0.0,0.7797,0.8504,0.9323,1.0256,0.0,0.0,0.0,0.0,0.0,0.0,0.0,1.219,1.327,1.4123,1.4399,1.4357,1.4253,1.4212,1.3979,1.3814,1.4065,0.0,1.4109,1.4553,1.3784,1.3214,1.3556,1.2843,1.2109,1.1627,1.1389,1.1276,1.1443,1.1255,1.1089,1.1106,1.1294,1.1396,1.1396,1.1521,1.1348,1.0747,1.0611,1.0717,1.1121,1.186,1.2419,0.7231,0.7031,0.6675,0.6645,0.6857,0.6681,0.6843,0.7136,0.7139,0.6966,0.6884,0.7054,0.6536,0.5548,0.4584,0.0,0.061,0.2607,0.2285,0.018,0.1254,0.1165,0.0,0.0,0.0,0.0,0.0,0.0,0.0,0.0,0.0,0.0,0.0,0.0,0.0,0.0,0.0,0.0,0.0,0.0,0.0,0.0,0.0,0.0,0.0,0.0,0.0,0.009,0.018,0.009,-0.0264,-0.0608,-0.078,0.0,0.0,0.0,0.0,0.0,0.0,0.0,0.0,0.0,0.0,0.0,0.0,0.0,0.0,0.0,1.0903,0.0,1.1615,1.1909,0.0,0.0,0.0,1.1257,1.173,1.1564,1.2172,1.4002,0.0,0.0,1.6312,1.6237,1.608,1.5811,1.5108,1.4843,1.5075,1.5512,1.5551,1.4761,1.5188,1.5251,1.4274,1.4042,1.3762,1.3126,1.294,1.2862,1.3104,1.3021,1.3126,1.2942,1.3153,1.3094,1.3173,1.3048,1.2717,1.1149,1.0888,1.1177,1.206,1.2413,1.2741,0.7929,0.7048,0.6974,0.697,0.7001,0.7001,0.7021,0.7139,0.7139,0.7051,0.7054,0.7051,0.6498,0.5406,0.423,0.3439,0.2838,0.2396,0.1959,0.1433,0.1701,0.1165,0.0,0.0,0.0,0.0,0.0,0.0,0.0,0.0,0.0,0.0,0.0,0.0,0.0,0.0,0.0,0.0,0.0,0.0,0.0,0.0,0.0,0.0,0.0,0.0,0.0,0.0897,0.1344,0.1433,0.2135,0.1936,0.078,0.0844,0.0,0.0,0.0,0.0,0.0,0.0,0.0,0.0,0.0,0.5047,0.5902,0.0,0.8927,0.0,1.2064,1.2776,1.1721,1.241,0.0,0.0,1.2267,1.2215,1.2146,1.2444,1.3174,1.4499,1.6411,1.7287,1.6581,1.6547,1.679,1.7121,1.6292,1.5762,1.5953,1.5811,1.5919,1.6263,1.5807,1.5446,1.572,1.5305,1.484,1.4704,1.4003,1.3528,1.3608,1.2954,1.2518,1.2532,1.2712,1.2839,1.2929,1.3039,1.3068,1.2643,1.2588,1.2631,1.2915,1.2965,1.3085,0.854,0.7841,0.7316,0.7139,0.7139,0.7139,0.7139,0.7139,0.7139,0.7139,0.7139,0.7139,0.6425,0.545,0.5265,0.4639,0.357,0.2948,0.2324,0.179,0.1255,0.0628,0.0,0.0,0.0,0.0,0.0,0.0,0.0,0.0,0.0,0.0,0.0,0.0,0.0,0.0,0.0,0.0,0.0,0.0253,0.0664,0.0677,0.0856,0.1113,0.1127,0.1046,0.1046,0.1654,0.2088,0.2262,0.2782,0.2764,0.1966,0.1925,0.1562,0.0,0.0,0.0,0.0,0.0,0.0,0.0,0.0,0.0,0.0,0.0,1.0335,1.1328,1.3278,1.4081,1.3199,1.4068,1.4612,1.4337,1.4481,1.4482,1.4543,1.3959,1.4308,1.6105,1.7786,1.8506,1.7839,1.7678,1.7725,1.8026,1.7417,1.6815,1.6722,1.6711,1.6802,1.6862,1.6655,1.6437,1.6636,1.5799,1.5163,1.5163,1.4736,1.4378,1.4386,1.3954,1.3593,1.36,1.3748,1.3859,1.3874,1.4007,1.4072,1.4072,1.4072,1.3846,1.3345,1.3231,1.3253,0.9152,0.8803,0.7753,0.7228,0.7139,0.7139,0.7139,0.7139,0.7139,0.7139,0.7139,0.7139,0.6517,0.5714,0.6517,0.5888,0.4014,0.3749,0.3037,0.1968,0.0808,0.0179,0.0,0.0,0.0,0.0,0.0,0.0,0.0,0.0,0.0,0.0,0.0,0.0,0.0,0.0,0.0083,0.0167,0.0167,0.0667,0.1662,0.1667,0.192,0.2506,0.2513,0.2516,0.2431,0.2598,0.285,0.3186,0.3186,0.3188,0.3197,0.2889,0.2613,0.0,0.2645,0.0,0.0,0.0,0.0,0.0,0.0,0.0,0.0,1.0789,1.1496,1.2915,1.4469,1.533,1.5204,1.6055,1.6681,1.6893,1.6996,1.7025,1.7105,1.5594,1.5484,1.7973,1.8764,1.9165,1.9102,1.8867,1.8562,1.8475,1.8183,1.7841,1.7619,1.7719,1.7657,1.6853,1.7491,1.7569,1.6991,1.6149,1.5658,1.5596,1.5446,1.5376,1.5367,1.5234,1.5163,1.5163,1.5037,1.5108,1.5163,1.518,1.518,1.5078,1.5086,1.4775,1.3887,1.3574,1.3684,1.0611,0.889,0.8627,0.8013,0.7139,0.7139,0.7139,0.7139,0.7139,0.7139,0.7139,0.7139,0.6966,0.6694,0.6071,0.598,0.6334,0.4459,0.3481,0.3213,0.1968,0.0978,0.0,0.0,0.0,0.0,0.0,0.0,0.0,0.0,0.0,0.0,0.0,0.0,0.0,0.0,0.0,0.0,0.0955,0.1273,0.2302,0.2185,0.2205,0.253,0.2822,0.0,0.3428,0.4516,0.5261,0.551,0.6179,0.0,0.0,0.0,0.0,0.0,0.0,0.0,0.0,0.0,0.0,0.0,1.0632,1.0964,1.1255,1.1863,1.2991,1.467,1.5162,1.5823,1.675,1.6993,1.7194,1.7254,1.7241,1.7158,1.6854,1.671,1.703,1.7685,1.8091,1.8356,1.8737,1.8682,1.8506,1.8272,1.8057,1.8299,1.8822,1.8387,1.794,1.7794,1.8066,1.8008,1.7794,1.7569,1.7423,1.7432,1.6784,1.6419,1.6349,1.5799,1.5305,1.5305,1.5163,1.5305,1.5234,1.5163,1.5376,1.5234,1.5234,1.5095,1.4895,1.4836,1.4895,1.1638,0.0,0.941,0.854,0.0,0.8017,0.7665,0.7139,0.7139,0.7139,0.7139,0.7139,0.7139,0.7051,0.6517,0.6517,0.6959,0.468,0.3605,0.3515,0.1743,0.0605,0.0,0.0,0.0,0.0,0.0,0.0,0.0,0.0,0.0,0.0,0.0,0.0238,0.0785,0.1253,0.1566,0.1567,0.1333,0.2036,0.3519,0.3482,0.3665,0.4064,0.4736,0.0,0.0,0.0,0.0,0.0,0.0,0.0,0.0,0.0,0.0,0.575,0.5946,0.6788,0.8338,0.9266,1.0305,1.1432,1.2371,1.2984,1.3139,1.3913,1.4979,1.625,1.6838,1.7407,1.8069,1.8621,1.884,1.8587,1.8614,1.8443,1.8067,1.8061,1.8109,1.8199,1.8543,1.8914,1.896,1.9375,1.9494,1.9341,1.9299,1.9431,1.9748,1.9177,1.8787,1.9177,1.9299,1.9309,1.9299,1.9299,1.9233,1.9166,1.887,1.8449,1.7997,1.79,1.7619,1.6904,1.7229,1.7687,1.6775,1.6904,1.7101,1.6715,1.6585,1.6603,1.6535,1.5831,1.5346,1.2498,1.2157,1.0269,0.9405,0.9235,0.9235,0.8536,0.7401,0.0,0.0,0.0,0.7139,0.7139,0.7139,0.7115,0.7014,0.6916,0.4779,0.3703,0.3442,0.127,0.0168,0.0,0.0,0.0,0.0,0.0,0.0081,0.0323,0.0238,0.0392,0.0549,0.0549,0.1019,0.188,0.2657,0.2813,0.2192,0.2268,0.3202,0.5071,0.53,0.5616,0.617,0.6996,0.7447,0.7375,0.821,0.8898,0.9281,0.9044,0.868,0.7966,0.7577,0.7426,0.7672,0.7764,0.8532,1.0243,1.12,1.2046,1.2679,1.3915,1.4943,1.538,1.5822,1.6453,1.7413,1.8364,1.89,1.9081,1.982,2.0244,1.9844,1.9775,1.9664,1.9436,1.9275,1.917,1.9073,1.9582,1.991,1.9571,2.0107,2.059,2.059,2.0462,2.0719,2.0655,2.0074,1.9748,2.0268,2.0333,2.0526,2.059,2.0526,2.059,2.0462,2.0451,2.0333,1.9879,2.0139,1.9955,1.87,1.9694,1.9748,1.8854,1.8967,1.9233,1.8586,1.8472,1.8472,1.8337,1.7263,1.6482,1.3203,1.2242,1.198,1.13,1.0351,1.0351,0.9749,0.854,0.7577,0.7139,0.7139,0.7139,0.7139,0.7044,0.7014,0.6959,0.686,0.5357,0.421,0.3283,0.2015,0.0914,0.0,0.0,0.0,0.0,0.0,0.0473,0.126,0.1413,0.1802,0.2578,0.2656,0.2735,0.289,0.3046,0.3513,0.4219,0.475,0.5594,0.6758,0.7516,0.7973,0.8277,0.8737,0.912,0.9432,0.9744,1.0062,1.0282,1.0137,0.9916,0.972,0.9486,0.936,0.9394,0.9333,1.0241,1.2295,1.1926,1.2344,1.4145,1.6068,1.7111,1.6976,1.625,1.6393,1.7943,1.8374,1.8614,1.9161,1.9445,1.9538,1.9404,1.9364,1.9494,1.9782,2.009,2.0286,2.0227,2.0826,2.0978,2.0506,2.059,2.0782,2.0655,2.0835,2.091,2.1479,2.0974,2.0526,2.059,2.059,2.059,2.0782,2.0643,2.0771,2.059,2.0719,2.0719,2.0462,2.0655,2.059,2.0268,2.0526,2.0526,2.0139,2.0333,2.0268,2.0074,2.0009,2.0074,2.002,1.9695,1.9243,1.398,1.3002,1.2529,1.198,1.1466,1.0864,1.0692,1.0595,0.8772,0.7672,0.7129,0.7061,0.7024,0.7014,0.6871,0.6803,0.6713,0.5485,0.4606,0.4108,0.3003,0.2167,0.1751,0.167,0.1661,0.1643,0.1721,0.1956,0.2347,0.2423,0.2657,0.3124,0.3671,0.3984,0.3984,0.453,0.5384,0.6311,0.606,0.6444,0.746,0.8371,0.8903,0.9054,0.9728,1.0185,1.0415,1.1459,1.1909,1.1484,1.1909,1.1589,1.0574,1.0362,1.039,1.0548,1.1021,1.2089,1.3754,1.391,1.461,1.61,1.6547,1.7234,1.829,1.7838,1.7854,1.8761,1.8807,1.8974,1.9243,1.9311,1.937,1.9576,1.9595,1.9806,2.0212,2.0445,2.0577,2.0646,2.1244,2.1584,2.1302,2.1678,2.1928,2.1916,2.1916,2.2298,2.3088,2.2882,2.2445,2.2039,2.1928,2.1928,2.199,2.1928,2.1928,2.1928,2.1928,2.1741,2.1491,2.1604,2.1542,2.091,2.129,2.1491,2.0899,2.0974,2.1037,2.0643,2.059,2.059,2.0635,2.0618,2.0292,1.4866,1.4107,1.3156,1.2745,1.2416,1.1567,1.1567,1.1876,1.0109,0.8704,0.7699,0.7093,0.6963,0.7112,0.6802,0.6812,0.6788,0.5761,0.506,0.4731,0.3859,0.3357,0.3124,0.3124,0.3124,0.3124,0.3124,0.3203,0.3435,0.3437,0.3591,0.3904,0.4686,0.5079,0.5079,0.6093,0.7022,0.7706,0.7443,0.7668,0.8456,0.9442,1.0045,1.034,1.0864,1.1372,1.181,1.2997,1.3455,1.3018,1.3673,1.3361,1.1957,1.181,1.1913,1.2125,1.2811,1.3661,1.4683,1.5839,1.6741,1.7358,1.7028,1.746,1.9056,1.9308,1.9232,1.9213,1.9275,1.938,1.9322,1.9494,1.9716,2.0012,2.0041,2.0291,2.0786,2.091,2.0974,2.1175,2.1753,2.2199,2.231,2.2871,2.3412,2.3577,2.3649,2.3872,2.4394,2.4567,2.4221,2.3813,2.3649,2.3636,2.3649,2.3649,2.3636,2.3649,2.3577,2.3374,2.3002,2.3267,2.3195,2.2299,2.2809,2.3122,2.2115,2.225,2.2494,2.2164,2.2091,2.1916,2.1993,2.1761,2.1202,1.5827,1.5674,1.4721,1.3887,1.3061,1.2974,1.2487,1.1652,1.1284,1.0552,0.9283,0.7544,0.7292,0.7839,0.7042,0.7046,0.7744,0.6731,0.5652,0.4784,0.4613,0.4059,0.3279,0.3202,0.3124,0.3202,0.3202,0.3748,0.453,0.4608,0.5079,0.5864,0.6103,0.618,0.6254,0.7173,0.7706,0.7855,0.9508,1.0404,1.0559,1.1545,1.2432,1.3222,1.2505,1.3011,1.4506,1.4099,1.4099,1.4887,1.5021,1.495,1.4728,1.472,1.4744,1.4776,1.4919,1.5015,1.527,1.6824,1.7505,1.6885,1.8164,1.8987,1.9343,1.9997,1.9892,1.9202,1.9442,1.9682,1.9375,1.9993,2.0424,2.0564,2.0579,2.0825,2.1592,2.1753,2.2063,2.2811,2.2884,2.3017,2.3113,2.3708,2.4394,2.4894,2.4894,2.4993,2.5231,2.5384,2.5439,2.5259,2.5217,2.5217,2.5148,2.5175,2.5092,2.5092,2.5161,2.5022,2.4896,2.4966,2.505,2.4446,2.4784,2.4854,2.4883,2.5036,2.4867,2.4473,2.4456,2.4744,2.4833,2.4275,2.314,1.6286,1.5707,1.4942,1.4038,1.3365,1.3817,1.3416,1.2533,1.2251,1.163,1.0448,0.8918,0.8532,0.8941,0.8356,0.8043,0.7884,0.7435,0.6633,0.5705,0.5628,0.5392,0.5002,0.5002,0.5002,0.4999,0.5002,0.5237,0.5702,0.6237,0.7084,0.7931,0.8084,0.8089,0.8084,0.8466,0.8993,0.9583,1.0914,1.1883,1.2485,1.2945,1.3317,1.3673,1.3882,1.4371,1.5092,1.5296,1.5367,1.5234,1.572,1.5799,1.5234,1.5163,1.5163,1.5234,1.572,1.6289,1.6802,1.7579,1.8066,1.821,1.889,1.9497,2.002,2.0398,2.0357,1.9995,2.0105,2.0271,2.0118,2.0399,2.0809,2.1239,2.1358,2.172,2.2482,2.3027,2.3518,2.3767,2.3826,2.4002,2.4381,2.4724,2.5063,2.5342,2.5384,2.5618,2.5946,2.6332,2.6776,2.7151,2.754,2.7128,2.6313,2.5941,2.6073,2.6347,2.6489,2.6385,2.6087,2.6294,2.6347,2.6034,2.6048,2.6179,2.6356,2.5807,2.5439,2.5727,2.5591,2.5397,2.5401,2.5162,2.4399,1.7071,1.6173,1.5468,1.4607,1.3865,1.4455,1.4234,1.339,1.3051,1.2421,1.1447,1.0796,1.043,1.0182,0.959,0.8993,0.8613,0.8084,0.7399,0.6718,0.6718,0.6567,0.6338,0.6872,0.6945,0.6795,0.7022,0.7099,0.7173,0.7783,0.8613,0.9221,0.9296,0.9296,0.9372,0.9739,1.0479,1.1218,1.2378,1.3469,1.4275,1.4506,1.4514,1.4514,1.495,1.5446,1.5948,1.6618,1.6748,1.641,1.7229,1.7425,1.6729,1.6462,1.6332,1.641,1.7151,1.7997,1.8643,1.8721,1.8977,1.9562,1.9824,2.0268,2.0846,2.1164,2.129,2.1302,2.1455,2.1592,2.0985,2.1164,2.1667,2.2421,2.2543,2.2847,2.3695,2.4279,2.4567,2.4624,2.4567,2.4908,2.5508,2.5687,2.5797,2.604,2.624,2.6385,2.699,2.7555,2.8179,2.8685,2.9088,2.8748,2.7435,2.7285,2.739,2.7573,2.7817,2.7686,2.7205,2.7622,2.7753,2.7614,2.7285,2.727,2.7716,2.7062,2.6538,2.6843,2.6769,2.6457,2.6831,2.6451,2.6332,1.8674,1.7754,1.6899,1.5947,1.515,1.5237,1.4657,1.3784,1.3717,1.32,1.2553,1.3105,1.3025,1.2103,1.0421,0.982,1.0265,0.8761,0.7936,0.7706,0.7706,0.7249,0.649,0.8237,0.8618,0.7859,0.8533,0.8993,0.9069,0.9145,0.9221,0.9372,0.9448,0.9372,0.9739,1.1205,1.2078,1.2451,1.4053,1.5404,1.6182,1.6392,1.6489,1.648,1.572,1.6219,1.7628,1.7833,1.8228,1.9023,1.9803,2.0246,2.0182,1.9465,1.9023,1.909,1.9868,2.0322,2.0322,2.0333,2.0398,2.0666,2.1164,2.1753,2.1877,2.2494,2.2871,2.2944,2.3505,2.3374,2.2286,2.2592,2.328,2.3989,2.4176,2.4452,2.5106,2.5231,2.5342,2.5342,2.5508,2.5877,2.639,2.6457,2.6864,2.7429,2.7963,2.8304,2.8336,2.8857,2.9255,2.9374,2.948,2.939,2.9284,2.8902,2.9025,2.931,2.9291,2.9207,2.9284,2.9284,2.9268,2.9207,2.9069,2.9023,2.9223,2.9178,2.8917,2.8917,2.8732,2.8621,2.8236,2.8299,2.8184,1.9267,1.8007,1.8198,1.7104,1.5367,1.6444,1.6105,1.4807,1.5288,1.5013,1.4307,1.4522,1.445,1.4091,1.3411,1.2238,1.0777,1.0034,0.9367,0.8841,0.877,0.8542,0.8318,0.9018,0.917,0.8841,0.911,0.9637,1.0185,1.0265,1.0571,1.1174,1.1248,1.1465,1.2111,1.2771,1.3491,1.4204,1.5429,1.6522,1.7368,1.7968,1.8593,1.9114,1.8315,1.8392,1.9628,1.9651,1.9771,2.0139,2.0462,2.059,2.059,2.0268,2.0139,2.0139,2.0462,2.059,2.059,2.059,2.0846,2.1428,2.1678,2.2199,2.2689,2.3412,2.3884,2.3989,2.4553,2.4597,2.4412,2.4425,2.4667,2.4951,2.5007,2.5119,2.5412,2.5797,2.6122,2.6215,2.6768,2.7505,2.761,2.8066,2.8449,2.8701,2.895,2.9088,2.918,2.9585,3.0117,3.0402,3.0727,3.1043,3.1391,3.046,3.0091,3.0616,3.0761,3.0327,3.0192,3.0606,3.0694,3.0178,3.0194,3.0508,3.0516,3.0451,3.0344,2.9756,2.9669,2.9859,2.9382,2.9448,2.9383,1.9912,1.8961,1.9401,1.8645,1.7201,1.8275,1.7919,1.6633,1.7192,1.6917,1.6148,1.6027,1.5896,1.5615,1.5632,1.4617,1.2635,1.1991,1.1341,1.0754,1.0679,1.0525,1.0387,1.0887,1.1037,1.0828,1.1089,1.1605,1.2131,1.2497,1.3071,1.4014,1.4014,1.4364,1.4947,1.53,1.5852,1.6573,1.7415,1.8295,1.9138,1.953,2.0268,2.1152,2.0812,2.0493,2.0643,2.0846,2.1037,2.1037,2.129,2.129,2.1037,2.129,2.129,2.1101,2.129,2.153,2.1756,2.183,2.2188,2.293,2.3062,2.3314,2.3813,2.4337,2.4624,2.4781,2.5287,2.5728,2.5823,2.6133,2.624,2.5877,2.5728,2.5906,2.6108,2.6745,2.7195,2.7585,2.8176,2.8639,2.8716,2.9087,2.93,2.9406,2.9641,2.9854,2.9956,3.0525,3.106,3.1391,3.1719,3.2092,3.2297,3.1666,3.1219,3.161,3.1662,3.1304,3.1189,3.1699,3.179,3.1236,3.1236,3.1573,3.1719,3.161,3.1164,3.0451,3.0654,3.1004,3.0727,3.0533,3.0555,2.0752,2.0775,2.0666,2.0797,2.0486,2.0638,2.0117,1.9215,1.9128,1.8645,1.785,1.789,1.7494,1.6734,1.6858,1.6573,1.6086,1.4741,1.3825,1.3475,1.3475,1.3021,1.2349,1.4034,1.4378,1.3652,1.4609,1.5035,1.4898,1.5591,1.6464,1.7321,1.7186,1.7118,1.759,1.8251,1.8934,1.9217,1.9868,2.0835,2.1678,2.1078,2.1455,2.2919,2.2977,2.2335,2.0951,2.1604,2.2002,2.2002,2.2628,2.2689,2.2187,2.2677,2.275,2.2249,2.2689,2.3412,2.4047,2.4105,2.4297,2.4867,2.5217,2.505,2.505,2.5287,2.5439,2.5591,2.6162,2.6602,2.6849,2.7635,2.7849,2.6811,2.664,2.7004,2.7545,2.8125,2.8732,2.9148,2.9448,2.9435,2.9435,2.9713,2.987,2.9982,3.0451,3.0937,3.0992,3.1629,3.2298,3.2433,3.253,3.2769,3.2854,3.284,3.2645,3.2548,3.2366,3.2127,3.2057,3.2332,3.2398,3.2056,3.2254,3.2567,3.2309,3.2243,3.2345,3.1917,3.216,3.2022,3.179,3.1593,3.1865,2.4883,2.4489,2.5005,2.4192,2.2805,2.3216,2.2445,2.0787,2.0721,2.0314,1.9771,1.9749,1.9553,1.9336,1.9367,1.9291,1.9259,1.8624,1.7378,1.5861,1.5591,1.5373,1.5365,1.6347,1.6779,1.6499,1.6714,1.6952,1.6924,1.7263,1.7466,1.7658,1.7772,1.8078,1.8882,1.9055,1.9652,2.0762,2.0662,2.1483,2.3153,2.2627,2.3059,2.4483,2.4627,2.4372,2.3955,2.3715,2.328,2.2811,2.3471,2.3826,2.3741,2.4266,2.431,2.3741,2.4253,2.4724,2.5007,2.5063,2.5161,2.5398,2.5453,2.5398,2.5453,2.5946,2.6347,2.6761,2.7419,2.7997,2.8449,2.8841,2.8748,2.7963,2.8225,2.8497,2.8795,2.9027,2.9536,3.0245,3.0434,3.0757,3.1316,3.1465,3.1353,3.1336,3.1721,3.1952,3.2074,3.2313,3.2648,3.2872,3.3082,3.3377,3.3534,3.3668,3.3676,3.3386,3.3146,3.2985,3.2942,3.2942,3.2985,3.3051,3.3304,3.3313,3.3027,3.2985,3.311,3.2919,3.2684,3.2595,3.2504,3.2648,3.2852,2.7654,2.7072,2.7479,2.6625,2.5063,2.5553,2.4935,2.3726,2.3916,2.3555,2.285,2.269,2.2335,2.1894,2.1561,2.1623,2.182,2.1561,2.0653,1.9221,1.8195,1.7957,1.8024,1.8502,1.8568,1.8537,1.9126,1.9233,1.883,2.0057,2.0707,2.0563,2.0965,2.1475,2.1801,2.1837,2.2381,2.2912,2.2675,2.3246,2.4436,2.4262,2.446,2.559,2.5983,2.5835,2.5494,2.559,2.5232,2.431,2.4452,2.4667,2.4738,2.5119,2.5175,2.4951,2.5119,2.5508,2.5797,2.6011,2.6172,2.624,2.6634,2.6776,2.6739,2.7181,2.7739,2.8115,2.8544,2.9012,2.9316,2.9629,2.9553,2.9444,2.9313,2.9597,2.9827,2.9982,3.0451,3.1185,3.1502,3.1846,3.2281,3.2517,3.2517,3.2517,3.2648,3.2836,3.288,3.3028,3.3328,3.3625,3.3876,3.4115,3.4315,3.4467,3.4614,3.4297,3.3932,3.3806,3.3703,3.3799,3.3876,3.3864,3.4017,3.4041,3.3852,3.3895,3.3938,3.3568,3.336,3.3524,3.3642,3.3542,3.3674,2.9256,2.8744,2.8688,2.8397,2.7703,2.7703,2.753,2.7446,2.794,2.7485,2.6524,2.6022,2.5437,2.4332,2.3689,2.3694,2.4041,2.3694,2.3579,2.3302,2.2224,2.1299,2.1269,2.1404,2.1039,2.0602,2.2063,2.2231,2.1523,2.4053,2.5769,2.5052,2.5897,2.6703,2.5873,2.6199,2.5824,2.5493,2.5411,2.5723,2.6451,2.5901,2.5901,2.6556,2.7179,2.7056,2.6395,2.73,2.7285,2.5781,2.5508,2.5453,2.5467,2.5508,2.5755,2.5645,2.5591,2.6172,2.6663,2.7238,2.754,2.77,2.8449,2.918,2.8528,2.8701,2.9102,2.9284,2.9464,2.9553,2.9772,3.0201,3.0623,3.0796,3.0352,3.0286,3.0842,3.1014,3.1448,3.2195,3.2517,3.2583,3.2681,3.2695,3.2741,3.2805,3.3112,3.3441,3.3642,3.3901,3.4292,3.4467,3.4492,3.462,3.4718,3.4883,3.5021,3.4974,3.4641,3.4489,3.4365,3.4444,3.4505,3.4525,3.4642,3.4679,3.466,3.4643,3.4624,3.4471,3.4469,3.4697,3.46,3.4365,3.4285,3.2363,3.2222,3.2222,3.1751,3.1021,3.0966,3.0357,2.9537,2.9644,2.9465,2.8601,2.7956,2.7676,2.7193,2.6688,2.6512,2.6462,2.6453,2.636,2.6411,2.6401,2.5908,2.5572,2.5416,2.5238,2.5098,2.5777,2.6256,2.5974,2.7193,2.7628,2.7176,2.7937,2.786,2.7141,2.7688,2.778,2.7527,2.7293,2.7646,2.8325,2.7862,2.7878,2.8529,2.8794,2.8685,2.8355,2.8841,2.8435,2.7004,2.64,2.6244,2.6361,2.7078,2.7354,2.7056,2.7743,2.837,2.8529,2.8717,2.8872,2.8934,2.9271,2.9316,2.918,2.9316,2.9629,2.9962,3.0336,3.0694,3.1121,3.1591,3.1899,3.2004,3.1721,3.1685,3.1952,3.2109,3.2348,3.2921,3.2996,3.3148,3.3354,3.357,3.3668,3.3747,3.3944,3.4246,3.4342,3.4408,3.4674,3.4715,3.4775,3.4956,3.5101,3.5262,3.5403,3.5495,3.5325,3.5123,3.4976,3.4902,3.4898,3.4875,3.5116,3.522,3.5156,3.5111,3.5136,3.5128,3.5014,3.496,3.4887,3.4725,3.4745,3.4605,3.4365,3.412,3.3673,3.3173,3.3173,3.2697,3.2112,3.2238,3.1874,3.1207,3.0959,3.064,3.0334,2.987,2.9599,2.9415,2.9353,2.9214,2.9157,2.969,2.9237,2.8345,2.8091,2.8091,2.818,2.8876,2.8903,2.8772,2.9774,3.0048,2.9686,3.0156,3.0087,2.9582,2.9696,2.9802,2.9492,2.9205,2.9479,3.0187,2.9658,2.9727,3.0137,3.0161,3.0041,3.0107,2.9673,2.9011,2.8307,2.7902,2.772,2.7769,2.8417,2.8654,2.8292,2.8995,2.9345,2.9451,2.9585,2.9629,2.9585,2.9761,3.0074,3.0126,3.0236,3.0623,3.1176,3.1428,3.1702,3.2074,3.25,3.2745,3.2777,3.2934,3.2965,3.2809,3.2777,3.2996,3.3314,3.357,3.3688,3.3961,3.4218,3.4357,3.4423,3.4467,3.4674,3.4813,3.487,3.4943,3.5026,3.5101,3.5257,3.5365,3.5494,3.5563,3.567,3.571,3.5543,3.5445,3.531,3.531,3.534,3.5582,3.5677,3.5551,3.546,3.5456,3.5388,3.5271,3.5241,3.5212,3.5173,3.5173,3.6138,3.5545,3.5044,3.4745,3.4659,3.4595,3.4609,3.4672,3.5082,3.4779,3.403,3.4304,3.3874,3.3436,3.2873,3.2634,3.2441,3.2036,3.1834,3.1903,3.2153,3.1746,3.0523,3.0124,3.0007,3.0127,3.1083,3.0947,3.0897,3.2402,3.2698,3.2138,3.2771,3.2947,3.2209,3.2194,3.1941,3.1375,3.111,3.1158,3.1495,3.1131,3.109,3.1362,3.1227,3.1159,3.0993,3.0427,2.9713,2.9669,2.954,2.921,2.9271,2.9406,2.9496,2.9508,2.9669,2.9843,2.98,3.0369,3.041,3.021,3.0874,3.1261,3.1181,3.1462,3.1826,3.2196,3.25,3.2565,3.2695,3.3027,3.3255,3.3372,3.3643,3.3616,3.3458,3.3343,3.3458,3.3823,3.4117,3.4218,3.4334,3.4529,3.4734,3.4755,3.487,3.5043,3.5155,3.5192,3.5303,3.5458,3.5523,3.5582,3.5652,3.571,3.5729,3.5783,3.5857,3.5791,3.5744,3.5677,3.5696,3.5772,3.5806,3.5825,3.5768,3.5727,3.5702,3.5702,3.5618,3.5657,3.5671,3.5612,3.5593,3.6925,3.6812,3.6694,3.6636,3.6601,3.6561,3.6544,3.6566,3.6755,3.658,3.6334,3.6131,3.5952,3.5769,3.5542,3.5127,3.4404,3.4335,3.4334,3.3906,3.3978,3.4243,3.3708,3.3031,3.2623,3.2765,3.3266,3.3408,3.3525,3.3787,3.4274,3.3884,3.4046,3.4167,3.3513,3.3799,3.3777,3.3128,3.2948,3.2793,3.2568,3.2338,3.2191,3.2296,3.216,3.2161,3.2092,3.1591,3.1291,3.1004,3.021,2.9641,2.9657,2.9935,3.0133,3.0327,3.0881,3.1215,3.1329,3.1591,3.1969,3.1719,3.1845,3.2196,3.2178,3.2247,3.2384,3.2583,3.2809,3.3166,3.3429,3.356,3.376,3.3924,3.4049,3.4195,3.4288,3.411,3.4128,3.4357,3.4529,3.4593,3.4614,3.4851,3.4997,3.5032,3.5189,3.54,3.5465,3.5482,3.5582,3.5698,3.5721,3.573,3.5788,3.5818,3.5815,3.5806,3.5876,3.5898,3.5856,3.5852,3.5812,3.5872,3.5953,3.5912,3.5815,3.5873,3.5834,3.5893,3.5911,3.587,3.5831,3.5891,3.5901,3.7925,3.7925,3.7727,3.7727,3.7944,3.7944,3.7925,3.7925,3.7944,3.7944,3.7899,3.7662,3.7755,3.8,3.7791,3.7262,3.6692,3.6137,3.5643,3.5119,3.5022,3.5211,3.538,3.4866,3.4425,3.4516,3.4691,3.487,3.4955,3.504,3.5067,3.4936,3.5086,3.4988,3.4569,3.4839,3.4702,3.4385,3.4201,3.4012,3.3794,3.3644,3.3273,3.3028,3.2898,3.2745,3.2451,3.2264,3.2127,3.1916,3.1278,3.0694,3.0566,3.0801,3.1077,3.1405,3.1754,3.2144,3.2196,3.235,3.2451,3.2517,3.2517,3.2648,3.2745,3.2827,3.2934,3.3087,3.3343,3.3634,3.3961,3.4184,3.4307,3.4357,3.4423,3.4534,3.4698,3.4597,3.4486,3.4694,3.4812,3.4868,3.5009,3.517,3.5309,3.5372,3.54,3.5572,3.5591,3.5624,3.5696,3.578,3.5791,3.5841,3.5901,3.5916,3.5898,3.5854,3.5821,3.5809,3.5789,3.5815,3.5857,3.5901,3.5909,3.5832,3.577,3.5848,3.5876,3.5832,3.5815,3.5876,3.5903,3.5891,3.5918,3.8917,3.8891,3.8497,3.8572,3.8872,3.8891,3.8891,3.8917,3.8957,3.8913,3.8971,3.9021,3.9226,3.9641,3.9384,3.9189,3.8527,3.7499,3.6443,3.5655,3.5585,3.5488,3.5406,3.5145,3.5026,3.5357,3.5259,3.5305,3.5337,3.5438,3.5252,3.5401,3.5383,3.5272,3.5384,3.533,3.5184,3.5154,3.4911,3.4757,3.4712,3.4604,3.424,3.3747,3.3497,3.3189,3.2885,3.2681,3.2616,3.2616,3.2515,3.2263,3.2127,3.1951,3.2057,3.2433,3.2517,3.2583,3.2648,3.2713,3.2759,3.2713,3.2745,3.2903,3.3196,3.3372,3.3496,3.3707,3.3928,3.4043,3.4246,3.4442,3.4653,3.4735,3.4774,3.485,3.4933,3.492,3.4918,3.4905,3.5101,3.5238,3.5316,3.5441,3.5581,3.5689,3.571,3.5723,3.5723,3.5747,3.5825,3.5861,3.589,3.5868,3.5918,3.5847,3.5845,3.583,3.5772,3.5735,3.571,3.5736,3.5761,3.5807,3.5812,3.5741,3.5729,3.5752,3.5747,3.5703,3.5723,3.5792,3.5825,3.5845,3.589,3.9472,3.9472,3.9363,3.9406,3.9472,3.9472,3.9458,3.95,3.9593,3.9619,3.968,3.998,4.0125,4.0277,4.0431,3.9873,3.8885,3.7902,3.6988,3.6113,3.5863,3.558,3.5083,3.4753,3.475,3.4849,3.4845,3.4866,3.4998,3.501,3.5024,3.501,3.5044,3.5117,3.5254,3.5265,3.5341,3.5478,3.5288,3.5134,3.5091,3.4909,3.4621,3.4167,3.4037,3.3828,3.3552,3.3255,3.3075,3.3027,3.2503,3.2538,3.2755,3.2598,3.2533,3.2648,3.2903,3.3075,3.3124,3.3343,3.3522,3.3578,3.3514,3.3532,3.3698,3.3873,3.4006,3.4147,3.4375,3.4551,3.4612,3.4755,3.4851,3.4978,3.5101,3.5191,3.5391,3.5452,3.5433,3.5403,3.5514,3.559,3.5616,3.564,3.5691,3.5777,3.5821,3.583,3.5853,3.5876,3.5934,3.5956,3.5995,3.5955,3.5918,3.5797,3.5729,3.5743,3.5709,3.5648,3.5635,3.5639,3.5648,3.5562,3.5632,3.5702,3.5675,3.5675,3.5687,3.5655,3.5675,3.5691,3.573,3.5762,3.5749,4.0063,4.0063,4.0063,4.0063,4.0082,4.0135,4.0168,4.0183,4.0275,4.0294,4.0311,4.0468,4.0552,4.0594,4.0659,4.0047,3.9021,3.8354,3.7508,3.665,3.5922,3.5421,3.4787,3.424,3.3827,3.3734,3.3696,3.402,3.4434,3.471,3.4601,3.4527,3.4656,3.4878,3.5026,3.514,3.5277,3.5427,3.543,3.5424,3.5429,3.5167,3.4861,3.4698,3.451,3.4398,3.4284,3.4123,3.3887,3.3687,3.3405,3.3358,3.3403,3.3468,3.3299,3.3237,3.3372,3.3494,3.3522,3.3707,3.378,3.3788,3.3928,3.4012,3.4068,3.4242,3.4445,3.4532,3.4715,3.4925,3.4952,3.507,3.5235,3.536,3.5424,3.5524,3.5655,3.5723,3.5749,3.5762,3.5716,3.5717,3.5791,3.5807,3.5821,3.5864,3.5921,3.5925,3.5948,3.5937,3.5929,3.5925,3.5901,3.5857,3.5816,3.5735,3.5646,3.5638,3.563,3.5582,3.5491,3.5481,3.5282,3.509,3.5245,3.5533,3.557,3.5566,3.5579,3.5581,3.5551,3.5551,3.5621,3.565,3.5611,4.0549,4.0549,4.0549,4.0568,4.0577,4.0672,4.0701,4.0714,4.0731,4.0735,4.0709,4.0662,4.0617,4.0604,4.0408,3.9901,3.8897,3.8422,3.771,3.6686,3.5872,3.5329,3.4669,3.3858,3.3087,3.2841,3.2804,3.2919,3.3556,3.3918,3.3956,3.3802,3.4083,3.4398,3.4491,3.4706,3.4971,3.53,3.5492,3.563,3.5621,3.5434,3.5218,3.5133,3.4907,3.4754,3.4632,3.4591,3.4467,3.4315,3.4167,3.4115,3.4043,3.4208,3.4232,3.4012,3.3979,3.3928,3.3815,3.4005,3.4055,3.3935,3.4147,3.4265,3.4379,3.4593,3.4813,3.4906,3.5045,3.5244,3.5309,3.5482,3.5591,3.564,3.5677,3.5755,3.5786,3.5845,3.586,3.5851,3.5786,3.5814,3.5876,3.5896,3.5901,3.5891,3.5937,3.5917,3.5915,3.5857,3.5845,3.5812,3.5772,3.573,3.569,3.565,3.559,3.5557,3.5543,3.5514,3.5391,3.5281,3.51,3.4958,3.513,3.5372,3.5412,3.5354,3.5258,3.522,3.5315,3.5331,3.527,3.5335,3.5388,4.076,4.076,4.076,4.0779,4.076,4.0777,4.074,4.0725,4.0769,4.0761,4.0695,4.0532,4.0471,4.0347,4.0027,3.9342,3.8715,3.8301,3.7644,3.6533,3.591,3.5273,3.4549,3.391,3.2983,3.2527,3.2472,3.2533,3.2822,3.2916,3.2862,3.2862,3.3028,3.314,3.3931,3.4264,3.4529,3.5124,3.5463,3.5624,3.5641,3.5539,3.5388,3.522,3.512,3.4978,3.4832,3.4813,3.4716,3.4655,3.4482,3.4461,3.4593,3.4745,3.4727,3.463,3.4529,3.4394,3.4055,3.4232,3.4398,3.4284,3.4445,3.4612,3.4756,3.4906,3.5159,3.5504,3.5527,3.5542,3.5579,3.5655,3.5677,3.5735,3.5797,3.5849,3.5903,3.5908,3.5937,3.5856,3.5781,3.584,3.5918,3.5937,3.5976,3.5956,3.595,3.5918,3.588,3.5797,3.5735,3.5706,3.5674,3.5631,3.5601,3.5562,3.5489,3.547,3.5482,3.5412,3.5155,3.5015,3.5122,3.5049,3.5122,3.4981,3.4851,3.4774,3.4774,3.487,3.4999,3.4923,3.4798,3.4955,3.5303,4.0863,4.0801,4.0779,4.0773,4.0785,4.0753,4.0736,4.076,4.0801,4.0766,4.0699,4.0615,4.0449,4.0142,3.9688,3.9202,3.8746,3.8314,3.7796,3.6755,3.605,3.5325,3.476,3.3938,3.3051,3.2599,3.2397,3.2383,3.2397,3.2476,3.2484,3.2484,3.2745,3.3219,3.3606,3.4125,3.4542,3.4971,3.5315,3.5572,3.5576,3.5585,3.5544,3.5446,3.5417,3.5316,3.522,3.5211,3.5092,3.4996,3.4831,3.4756,3.4755,3.487,3.4927,3.4733,3.4999,3.4889,3.4483,3.4612,3.4612,3.4614,3.4755,3.4994,3.5155,3.5301,3.543,3.5618,3.5635,3.5689,3.5791,3.5807,3.5834,3.5871,3.5901,3.5908,3.5954,3.5955,3.596,3.5841,3.5758,3.5791,3.5814,3.583,3.5838,3.5841,3.5825,3.5802,3.5768,3.5714,3.564,3.5577,3.5562,3.5546,3.5534,3.5522,3.5355,3.5345,3.5455,3.527,3.4832,3.4716,3.4832,3.4636,3.4379,3.4284,3.4213,3.442,3.4614,3.4674,3.4694,3.468,3.4735,3.541,3.5836,4.0937,4.0847,4.075,4.075,4.0812,4.0745,4.0734,4.0766,4.0772,4.0722,4.0623,4.0444,4.0152,3.9694,3.9069,3.8649,3.8529,3.7839,3.747,3.6849,3.6199,3.5439,3.5005,3.421,3.3372,3.2694,3.2454,3.2362,3.2364,3.2402,3.2381,3.2197,3.2282,3.2854,3.3449,3.3857,3.4248,3.4888,3.5254,3.5461,3.5546,3.5617,3.5625,3.5639,3.5641,3.5667,3.5639,3.5611,3.5434,3.5278,3.5224,3.5127,3.5034,3.5105,3.5141,3.507,3.5289,3.5289,3.4999,3.4944,3.487,3.4926,3.5064,3.5325,3.5504,3.5611,3.5674,3.5749,3.5755,3.5812,3.5907,3.5918,3.5925,3.5935,3.5976,3.5976,3.5972,3.5968,3.5885,3.5736,3.5655,3.5605,3.5643,3.5655,3.5671,3.5696,3.5689,3.5687,3.5629,3.5601,3.5577,3.5515,3.5489,3.5435,3.5345,3.5335,3.5187,3.5155,3.5254,3.5155,3.4716,3.4553,3.4614,3.4284,3.3876,3.3902,3.4062,3.4284,3.4483,3.4371,3.4316,3.4563,3.4869,3.5631,3.6352,4.098,4.0968,4.0824,4.0805,4.0799,4.0804,4.0751,4.0704,4.0699,4.0584,4.0364,3.9926,3.937,3.8799,3.8319,3.7823,3.7379,3.6764,3.6381,3.602,3.5582,3.5357,3.5015,3.4505,3.3762,3.2899,3.2537,3.2401,3.238,3.2397,3.2001,3.1455,3.1952,3.2126,3.2595,3.3265,3.4027,3.4717,3.5149,3.5325,3.5485,3.558,3.5647,3.5683,3.5693,3.5703,3.5677,3.5696,3.5663,3.553,3.5508,3.5481,3.5372,3.5391,3.5378,3.5411,3.5424,3.547,3.5364,3.5326,3.5266,3.5247,3.5334,3.556,3.565,3.5679,3.5749,3.5849,3.5857,3.5896,3.5953,3.5976,3.5976,3.5956,3.5948,3.5918,3.5919,3.5914,3.5826,3.5659,3.5572,3.5551,3.5538,3.5577,3.56,3.564,3.5631,3.5591,3.5523,3.5509,3.547,3.5441,3.5427,3.5335,3.5138,3.507,3.4981,3.487,3.4889,3.4832,3.4593,3.4526,3.4442,3.4237,3.3935,3.391,3.3858,3.4012,3.4062,3.3902,3.406,3.467,3.5454,3.6326,3.6939,4.0752,4.0699,4.0641,4.0682,4.0785,4.0649,4.0648,4.0655,4.0423,4.0173,3.9905,3.9214,3.8746,3.8363,3.779,3.7396,3.7041,3.6187,3.5735,3.5244,3.4891,3.4594,3.4464,3.425,3.3567,3.2934,3.2595,3.245,3.2482,3.2506,3.2335,3.2067,3.2167,3.2314,3.2659,3.3141,3.3975,3.4597,3.5037,3.52,3.5273,3.556,3.5685,3.5697,3.5839,3.5848,3.5821,3.5812,3.5768,3.5694,3.5671,3.5648,3.5621,3.5611,3.5611,3.5611,3.5631,3.5611,3.5591,3.5579,3.5516,3.5514,3.5581,3.5687,3.5762,3.5797,3.5861,3.5923,3.5957,3.5974,3.5976,3.5976,3.5976,3.5929,3.589,3.5864,3.5819,3.5823,3.5784,3.559,3.5531,3.5509,3.5502,3.5515,3.554,3.555,3.5534,3.5496,3.5422,3.532,3.5289,3.5223,3.5187,3.5069,3.487,3.4793,3.4734,3.4653,3.4548,3.4442,3.4353,3.4357,3.4242,3.4093,3.3961,3.3805,3.3743,3.3716,3.3789,3.3872,3.4458,3.522,3.6074,3.6971,3.7466,4.063,4.0545,4.0422,4.0516,4.0671,4.0472,4.0415,4.0438,4.0119,3.9775,3.9395,3.8728,3.8321,3.8053,3.7362,3.6773,3.6377,3.564,3.5132,3.4636,3.4137,3.3813,3.3861,3.3713,3.3374,3.2871,3.2661,3.259,3.2896,3.2805,3.2919,3.3128,3.3243,3.3315,3.3468,3.3706,3.4333,3.4843,3.4829,3.5018,3.5078,3.5353,3.5636,3.5678,3.586,3.5937,3.5908,3.5918,3.588,3.5807,3.5774,3.5729,3.571,3.5703,3.5703,3.5703,3.5703,3.571,3.5689,3.5679,3.5646,3.564,3.5678,3.5783,3.5873,3.5913,3.595,3.5976,3.6016,3.5996,3.5975,3.5951,3.5901,3.5853,3.578,3.5728,3.5682,3.566,3.5629,3.555,3.5515,3.5501,3.5488,3.5474,3.5455,3.5443,3.5355,3.5326,3.5266,3.5138,3.4999,3.4944,3.487,3.4715,3.4572,3.4529,3.4445,3.4237,3.416,3.4136,3.4062,3.4074,3.4074,3.3979,3.3797,3.3634,3.3762,3.3982,3.4,3.4016,3.4885,3.5956,3.6567,3.7399,3.7863,4.0692,4.0636,4.03,4.0285,4.0466,4.0194,4.0101,4.0082,3.9757,3.9414,3.9053,3.8523,3.8136,3.7701,3.6847,3.6222,3.5701,3.4998,3.4495,3.4071,3.3668,3.3598,3.3511,3.3323,3.2886,3.268,3.2501,3.2638,3.3264,3.3347,3.3647,3.413,3.4261,3.4461,3.473,3.4867,3.5145,3.5306,3.4769,3.4934,3.5264,3.547,3.5618,3.5891,3.5884,3.593,3.5957,3.5976,3.5937,3.591,3.588,3.5825,3.5752,3.5747,3.5741,3.5735,3.5729,3.5723,3.5717,3.5703,3.5723,3.5766,3.581,3.5868,3.5913,3.5948,3.5976,3.5976,3.5996,3.597,3.594,3.59,3.5812,3.5762,3.5682,3.564,3.559,3.5554,3.5534,3.5528,3.5509,3.5493,3.5474,3.546,3.5432,3.535,3.5223,3.5138,3.5069,3.4888,3.4715,3.4614,3.4551,3.4398,3.4242,3.4242,3.4123,3.3928,3.3842,3.3895,3.3895,3.3902,3.3895,3.378,3.3652,3.3447,3.386,3.432,3.4407,3.465,3.5797,3.6762,3.7301,3.7741,3.8136,4.0554,4.0559,4.0422,4.0321,4.0194,3.9922,3.9775,3.969,3.9414,3.909,3.87,3.7993,3.756,3.7117,3.644,3.5749,3.5448,3.4891,3.4333,3.4137,3.3391,3.2986,3.2826,3.2516,3.216,3.1951,3.191,3.2064,3.2114,3.3182,3.3687,3.4006,3.505,3.5335,3.5102,3.5155,3.5597,3.5956,3.5918,3.6049,3.6328,3.6173,3.6168,3.6518,3.6216,3.6091,3.6151,3.623,3.6191,3.6094,3.6074,3.5996,3.5898,3.5898,3.5898,3.5898,3.5898,3.5903,3.5903,3.5903,3.5903,3.5906,3.5909,3.5933,3.5973,3.5976,3.5975,3.5947,3.5923,3.588,3.5802,3.5772,3.573,3.5674,3.5621,3.5596,3.5546,3.5515,3.5501,3.5515,3.5507,3.5335,3.5254,3.5155,3.5122,3.5086,3.4944,3.4889,3.4832,3.4555,3.4338,3.4265,3.4189,3.4062,3.3961,3.4012,3.3943,3.3797,3.3762,3.3834,3.3834,3.3652,3.355,3.3437,3.3332,3.3291,3.3713,3.4167,3.4777,3.5403,3.6411,3.728,3.7848,3.8107,3.8281,4.0457,4.0356,4.023,4.0043,3.9775,3.9645,3.9524,3.9275,3.9054,3.8796,3.83,3.7542,3.7114,3.6706,3.6079,3.5362,3.5207,3.4592,3.3987,3.3786,3.2772,3.2312,3.2007,3.1796,3.1682,3.1582,3.1853,3.2048,3.2555,3.3479,3.4104,3.4781,3.5664,3.5988,3.5845,3.6016,3.6253,3.657,3.6644,3.6643,3.6852,3.6951,3.7005,3.7153,3.7033,3.6787,3.6819,3.6792,3.6699,3.6543,3.6426,3.6309,3.6172,3.6035,3.6016,3.6016,3.6016,3.5996,3.5996,3.5996,3.5957,3.5934,3.5953,3.5953,3.593,3.5884,3.5848,3.5825,3.5836,3.5774,3.5694,3.5679,3.5638,3.56,3.555,3.5515,3.5495,3.546,3.532,3.5354,3.5239,3.5086,3.4999,3.487,3.4774,3.4715,3.4655,3.4614,3.4551,3.4311,3.4099,3.4043,3.4005,3.3928,3.3868,3.3868,3.3788,3.3625,3.3597,3.3578,3.3332,3.3105,3.3075,3.3063,3.297,3.2995,3.3441,3.3967,3.499,3.588,3.6773,3.7577,3.833,3.8328,3.8142,4.0302,4.0042,3.9712,3.9457,3.9186,3.9408,3.9216,3.8719,3.8689,3.8382,3.7893,3.7396,3.6865,3.6374,3.5854,3.5345,3.4894,3.4186,3.3802,3.3039,3.2555,3.2104,3.1894,3.1739,3.1739,3.191,3.2216,3.2826,3.3547,3.4087,3.4752,3.5391,3.5994,3.6417,3.6659,3.6825,3.7057,3.7312,3.7322,3.7393,3.7618,3.7547,3.7778,3.7924,3.788,3.7829,3.7887,3.7983,3.775,3.7519,3.7305,3.6836,3.6445,3.6113,3.6094,3.6074,3.6133,3.6016,3.5996,3.5996,3.5937,3.5887,3.5834,3.5838,3.5834,3.5773,3.5727,3.5717,3.5735,3.5666,3.5611,3.5591,3.557,3.5526,3.5463,3.5427,3.5398,3.5304,3.5157,3.5035,3.4832,3.4714,3.4675,3.4551,3.4398,3.433,3.4288,3.4265,3.4195,3.4087,3.391,3.3902,3.3868,3.386,3.3807,3.3753,3.3597,3.3437,3.3196,3.3087,3.2809,3.2616,3.2648,3.2634,3.2555,3.2757,3.3375,3.4387,3.565,3.6423,3.6685,3.7183,3.7737,3.7649,3.7631,3.98,3.9731,3.9645,3.9389,3.9099,3.9008,3.8862,3.8658,3.8332,3.8013,3.7877,3.6981,3.6603,3.6333,3.5854,3.5498,3.5253,3.5115,3.5021,3.4301,3.3219,3.3077,3.2772,3.2477,3.2327,3.2477,3.2879,3.3443,3.3684,3.4333,3.5005,3.5543,3.6139,3.6701,3.714,3.7416,3.7805,3.8096,3.8003,3.8242,3.8367,3.8331,3.8605,3.8747,3.8508,3.8481,3.8517,3.8526,3.8285,3.8121,3.8069,3.7828,3.7792,3.7754,3.7715,3.6894,3.6445,3.5976,3.5925,3.5921,3.5884,3.5786,3.5716,3.5716,3.571,3.5703,3.5632,3.5638,3.564,3.559,3.555,3.5521,3.5477,3.543,3.5339,3.5209,3.5141,3.4999,3.4832,3.4675,3.4486,3.4398,3.4334,3.4213,3.408,3.3961,3.391,3.3935,3.3935,3.385,3.3815,3.3807,3.378,3.378,3.3652,3.355,3.3408,3.3214,3.2903,3.2631,3.2484,3.235,3.2282,3.2337,3.2454,3.289,3.3436,3.4565,3.5665,3.5761,3.6036,3.6601,3.7049,3.7031,3.7046,3.9645,3.9414,3.9408,3.9205,3.8933,3.8762,3.8627,3.8382,3.8267,3.8032,3.7578,3.702,3.6481,3.6054,3.5739,3.5577,3.5577,3.5144,3.4958,3.4688,3.4103,3.3443,3.3093,3.3039,3.2841,3.3039,3.3427,3.4037,3.4137,3.464,3.5345,3.5924,3.6308,3.6825,3.7324,3.7754,3.8165,3.8486,3.877,3.91,3.9102,3.9112,3.9431,3.9438,3.9069,3.9112,3.9141,3.918,3.9082,3.8883,3.887,3.8667,3.8497,3.8359,3.834,3.7559,3.6934,3.6536,3.6377,3.5987,3.5827,3.5679,3.565,3.5611,3.5601,3.5591,3.5568,3.5574,3.5562,3.5534,3.5482,3.5422,3.5388,3.5339,3.5143,3.4946,3.4812,3.4674,3.4508,3.433,3.4189,3.4093,3.3986,3.3868,3.3807,3.3842,3.3842,3.3868,3.3868,3.3842,3.3807,3.3807,3.378,3.3753,3.355,3.3273,3.2996,3.2745,3.24,3.2196,3.2127,3.202,3.1925,3.2149,3.252,3.3097,3.3769,3.4507,3.5358,3.547,3.5639,3.602,3.6452,3.6636,3.6684,3.9599,3.9072,3.9072,3.8933,3.8738,3.8627,3.835,3.798,3.8267,3.8016,3.721,3.7058,3.644,3.581,3.5622,3.5639,3.5515,3.5191,3.5052,3.4624,3.3987,3.3391,3.3182,3.3182,3.3008,3.3219,3.3738,3.4508,3.483,3.5191,3.5705,3.6392,3.6498,3.6943,3.7685,3.7998,3.8318,3.864,3.8873,3.9054,3.9231,3.9584,4.0061,4.0101,4.0183,4.0376,4.0514,4.051,4.0369,3.9908,3.9582,3.9291,3.9011,3.8571,3.8493,3.8182,3.7598,3.7247,3.6903,3.6467,3.6004,3.5796,3.5648,3.5581,3.5546,3.5534,3.5528,3.5515,3.5534,3.5449,3.5383,3.5277,3.5209,3.5053,3.4851,3.4693,3.4569,3.4398,3.4189,3.4062,3.4005,3.3902,3.3902,3.3807,3.3807,3.3807,3.3807,3.3807,3.3807,3.3807,3.368,3.368,3.3494,3.3332,3.3166,3.2872,3.2533,3.223,3.1933,3.1714,3.162,3.1585,3.1501,3.2026,3.2625,3.3465,3.4244,3.4878,3.5334,3.552,3.5639,3.5639,3.5854,3.6172,3.6259,3.896,3.8785,3.8803,3.8732,3.8658,3.8249,3.8047,3.7859,3.7614,3.7228,3.6603,3.6207,3.5924,3.5667,3.5639,3.5639,3.5515,3.5362,3.5362,3.4958,3.4252,3.3735,3.3308,3.3312,3.3208,3.354,3.4169,3.4894,3.5249,3.556,3.5915,3.6416,3.6684,3.7323,3.7946,3.8234,3.8546,3.8707,3.8792,3.8952,3.9117,3.9238,3.9486,3.9882,4.0213,4.0372,4.0481,4.0521,4.0477,4.0307,4.0413,4.0325,4.0241,3.9618,3.9326,3.9132,3.8447,3.8034,3.7647,3.7113,3.6596,3.6195,3.5978,3.5663,3.5501,3.5488,3.5474,3.5474,3.5446,3.5354,3.5258,3.5124,3.4982,3.4753,3.4524,3.4439,3.4311,3.4117,3.3902,3.3842,3.3834,3.3807,3.3807,3.3807,3.3807,3.3807,3.3807,3.3807,3.378,3.3707,3.3437,3.3302,3.2952,3.2777,3.2681,3.2466,3.2161,3.1914,3.164,3.1428,3.123,3.1427,3.1681,3.2222,3.2848,3.3761,3.4539,3.5081,3.5453,3.5588,3.5639,3.5639,3.5639,3.5854,3.5878,3.8803,3.8707,3.8707,3.8707,3.8627,3.8382,3.8032,3.7578,3.7285,3.6764,3.6139,3.5941,3.5827,3.5667,3.5639,3.5639,3.5639,3.5622,3.5532,3.527,3.4864,3.4447,3.4038,3.3806,3.3989,3.4284,3.4742,3.5284,3.556,3.5667,3.5898,3.6603,3.7097,3.7506,3.8117,3.8546,3.8707,3.8707,3.8707,3.8803,3.8961,3.909,3.9314,3.9735,4.0042,4.0232,4.0408,4.0489,4.0489,4.0504,4.053,4.0565,4.0428,4.0169,4.0026,3.9755,3.9267,3.8694,3.8414,3.7932,3.725,3.6771,3.6397,3.6103,3.5479,3.5446,3.5398,3.5383,3.5304,3.5207,3.5034,3.4908,3.4655,3.442,3.4232,3.4062,3.4037,3.3954,3.3842,3.3834,3.3807,3.3807,3.3807,3.3807,3.3807,3.3807,3.3807,3.378,3.3734,3.3578,3.3273,3.3014,3.2681,3.255,3.2533,3.223,3.1842,3.1582,3.1351,3.1291,3.1224,3.1562,3.1935,3.2594,3.3322,3.4184,3.4878,3.5334,3.5504,3.5605,3.5639,3.5639,3.5639,3.5639,3.5673,3.8894,3.8719,3.8707,3.8658,3.8596,3.8596,3.8016,3.719,3.7058,3.6522,3.5783,3.6054,3.5985,3.5756,3.5639,3.5639,3.5639,3.5639,3.5639,3.5577,3.5362,3.48,3.4688,3.48,3.4574,3.4717,3.5182,3.5414,3.5622,3.5667,3.6054,3.6904,3.7323,3.7632,3.8318,3.8658,3.8707,3.8707,3.8707,3.8707,3.8815,3.8961,3.9282,3.9599,3.9922,4.0213,4.0406,4.0489,4.0489,4.0504,4.0519,4.053,4.0545,4.0424,4.0429,4.0193,3.9865,3.9523,3.9287,3.8686,3.7911,3.7271,3.694,3.6373,3.5748,3.5381,3.5315,3.519,3.5088,3.4962,3.4794,3.4636,3.436,3.4147,3.3961,3.3815,3.3815,3.3807,3.3807,3.3807,3.3807,3.3807,3.3807,3.3807,3.3807,3.3807,3.378,3.3734,3.3634,3.3361,3.3075,3.2809,3.2533,3.2433,3.2316,3.2004,3.1545,3.1449,3.1252,3.123,3.1309,3.1698,3.2273,3.3119,3.388,3.4556,3.5081,3.552,3.5622,3.5639,3.5639,3.5639,3.5639,3.5639,3.5639,3.875,3.8707,3.8707,3.8465,3.8117,3.8065,3.747,3.6643,3.658,3.6182,3.5783,3.5667,3.5667,3.5639,3.5639,3.5639,3.5639,3.5639,3.5639,3.5577,3.5253,3.4894,3.4688,3.4783,3.4409,3.4755,3.5256,3.556,3.5639,3.5622,3.5881,3.6563,3.7097,3.747,3.798,3.8332,3.8707,3.8707,3.8707,3.8707,3.8773,3.898,3.9275,3.9599,3.9922,4.0194,4.0406,4.0489,4.0489,4.0489,4.0489,4.0489,4.0489,4.0489,4.0489,4.0438,4.013,4.0127,3.9765,3.9392,3.8689,3.8178,3.7644,3.6566,3.5907,3.523,3.5097,3.4851,3.4715,3.4595,3.4445,3.4338,3.4147,3.4012,3.3834,3.3807,3.3807,3.3807,3.3807,3.3807,3.3807,3.3807,3.3788,3.3762,3.3707,3.3707,3.3634,3.356,3.3284,3.3057,3.2809,3.2565,3.2298,3.1878,3.1524,3.1582,3.1312,3.1213,3.1224,3.1292,3.1495,3.1884,3.2544,3.3474,3.4134,3.4759,3.5233,3.5639,3.5639,3.5639,3.5639,3.5639,3.5639,3.5639,3.5639]}]]